     2              OBSERVATION DATA    GPS                 RINEX VERSION / TYPE
teqc 2000Feb29 20020409 20:35:35UTC                         PGM / RUN BY / DATE
                                                            COMMENT
L2: 1 -> 1; 150 -> 5; 250 -> 9                              COMMENT
L2: 1 -> 1; 150 -> 5; 250 -> 9                              COMMENT
L2: 1 -> 1; 150 -> 5; 250 -> 9                              COMMENT
L2: 1 -> 1; 150 -> 5; 250 -> 9                              COMMENT
L2: 1 -> 1; 150 -> 5; 250 -> 9                              COMMENT
Original Marker Name: CG09                                  COMMENT
Campaign Name: Northern Baja                                COMMENT
4-Character Station Name: CG09                              COMMENT
6-Character Antenna Code: DMRCHT                            COMMENT
Vertical Measurement Point: BCR                             COMMENT
Vertical Offset to Rinex Ref. Point: 0.0348                 COMMENT
Radial Measurement Point: ECF                               COMMENT
Radial Offset to Rinex Ref. Point: 0.1897                   COMMENT
Antenna Height from Field Measurement: 1.0751 m             COMMENT
Additional Antenna Identification Info.:                    COMMENT
Turborogue and Ashtech Choke Ring                           COMMENT
Original XYZ: -2293802.8607 -4879305.2047 3395906.7007      COMMENT
New XYZ position is based on association with SCEC monument COMMENT
E1C9D2S1+0011. Position of that monument is believed to be  COMMENT
valid to within 1 m horizontally; vertical accuracy         COMMENT
should be no worse than 3-times this value.                 COMMENT
                                                            COMMENT
Revised Rinex header created by UCSD GPS archive for        COMMENT
GSAC on 27-Jun-2003 (2003:178) 15:48:27 GMT                 COMMENT
For assistance contact dagnew@ucsd.edu                      COMMENT
or anderson@python.ucsd.edu                                 COMMENT
                                                            COMMENT
GEOTERMICO CP 09                                            MARKER NAME
JGG CICESE (ENSENADA)                                       OBSERVER / AGENCY
317 ASHTECH Z-XII3 CC00                                     REC # / TYPE / VERS
16408 DORNE-MARGOL. TYPE T                                  ANT # / TYPE
 -2297858.3129 -4875660.8560  3398561.9802                  APPROX POSITION XYZ
        1.0234        0.0000        0.0000                  ANTENNA: DELTA H/E/N
     1     1     0                                          WAVELENGTH FACT L1/2
     7    C1    L1    L2    P1    P2    S1    S2            # / TYPES OF OBSERV
     0                                                      INTERVAL
  2002     2    24     0     0   30.000000                  TIME OF FIRST OBS
  2002     2    24    12    42   30.000000                  TIME OF LAST OBS
                                                            END OF HEADER
 02  2 24  0  0 30.0000000  0  9G 5G15G23G26G 6G30G18G10G17
  23399012.730     9352083.85749   7275936.44245  23399012.581    23399030.213
       221.000         160.000
  23293846.997    -8289086.08149  -6442297.90945  23293845.596    23293863.599
       222.000         161.000
  20748219.958    -8580982.31849  -6668904.90847  20748219.037    20748230.911
       244.000         212.000
  23495786.776    -7246550.72449  -5632391.02045  23495786.276    23495804.452
       213.000         150.000
  20542787.443    -6836065.75249  -5309438.92648  20542786.945    20542798.293
       246.000         213.000
  21499293.683     4380747.04849   3412956.70247  21499293.879    21499306.768
       238.000         197.000
  23796374.665    -5709218.69749  -4391456.40845  23796372.824    23796391.702
       217.000         155.000
  21644509.053     3810351.45249   2969808.98747  21644508.279    21644521.408
       236.000         193.000
  22281141.745    -7358693.38549  -5717362.76046  22281140.557    22281155.158
       232.000         187.000
 02  2 24  0  1  0.0000000  0  9G 5G15G23G26G 6G30G18G10G17
  23418521.046     9454599.24549   7355818.33645  23418519.866    23418538.452
       219.000         159.000
  23280786.611    -8357717.98949  -6495777.06645  23280784.628    23280804.097
       221.000         161.000
  20741431.792    -8616653.83849  -6696700.81547  20741430.956    20741442.737
       244.000         212.000
  23479471.279    -7332288.70249  -5699199.57545  23479471.210    23479489.301
       214.000         152.000
  20536402.307    -6869619.78549  -5335584.86748  20536401.605    20536412.983
       246.000         213.000
  21513743.232     4456679.84549   3472125.03647  21513743.455    21513755.880
       238.000         196.000
  23776198.335    -5815244.81549  -4474073.76145  23776196.941    23776215.310
       217.000         155.000
  21658357.807     3883126.72649   3026516.93647  21658357.011    21658370.480
       236.000         193.000
  22271845.115    -7407546.97149  -5755430.36746  22271844.203    22271858.864
       232.000         187.000
 02  2 24  0  1 30.0000000  0  9G 5G15G23G26G 6G30G18G10G17
  23438045.811     9557201.37949   7435767.82445  23438044.989    23438063.068
       220.000         158.000
  23267755.720    -8426195.29149  -6549135.77145  23267754.599    23267772.716
       219.000         161.000
  20734740.354    -8651817.21849  -6724100.76847  20734739.379    20734751.166
       244.000         212.000
  23463183.978    -7417879.12749  -5765893.15545  23463183.486    23463202.688
       215.000         154.000
  20530077.675    -6902855.70549  -5361482.93748  20530077.093    20530087.995
       246.000         213.000
  21528264.346     4532988.47849   3531586.23047  21528264.323    21528277.081
       238.000         196.000
  23756051.768    -5921113.95749  -4556568.79745  23756049.869    23756068.874
       215.000         155.000
  21672283.373     3956306.02549   3083539.71847  21672282.011    21672295.729
       235.000         193.000
  22262580.026    -7456234.92849  -5793368.91246  22262578.907    22262593.364
       231.000         187.000
 02  2 24  0  2  0.0000000  0  9G 5G15G23G26G 6G30G18G10G17
  23457586.638     9659888.01649   7515783.16045  23457586.481    23457603.154
       220.000         158.000
  23254754.199    -8494517.55449  -6602373.65145  23254753.109    23254771.385
       220.000         161.000
  20728145.797    -8686471.41949  -6751103.95447  20728144.844    20728156.842
       244.000         212.000
  23446925.240    -7503318.24149  -5832468.82645  23446924.032    23446943.436
       214.000         155.000
  20523814.004    -6935771.40149  -5387131.47748  20523813.380    20523824.578
       247.000         213.000
  21542856.552     4609670.73749   3591338.56747  21542856.511    21542869.353
       238.000         196.000
  23735935.504    -6026823.64549  -4638939.57545  23735933.825    23735952.109
       212.000         153.000
  21686285.388     4029886.99449   3140875.48947  21686284.508    21686298.047
       236.000         192.000
  22253346.395    -7504757.24949  -5831178.38646  22253345.809    22253359.791
       232.000         187.000
 02  2 24  0  2 30.0000000  0  9G 5G15G23G26G 6G30G18G10G17
  23477143.002     9762656.71349   7595862.43845  23477142.992    23477161.109
       218.000         157.000
  23241782.310    -8562684.88449  -6655490.80745  23241780.820    23241799.476
       221.000         162.000
  20721648.302    -8720615.68449  -6777709.78948  20721647.322    20721659.166
       245.000         213.000
  23430695.929    -7588602.45849  -5898923.79345  23430694.708    23430713.574
       215.000         155.000
  20517611.663    -6968364.88649  -5412528.93948  20517611.153    20517622.075
       246.000         214.000
  21557519.382     4686724.05349   3651380.04547  21557519.540    21557532.286
       238.000         195.000
  23715850.134    -6132371.32749  -4721184.12245  23715847.970    23715866.627
       213.000         152.000
  21700363.358     4103867.15149   3198522.30547  21700362.522    21700375.948
       235.000         192.000
  22244144.379    -7553114.19849  -5868859.00546  22244143.140    22244157.462
       232.000         187.000
 02  2 24  0  3  0.0000000  0  9G 5G15G23G26G 6G30G18G10G17
  23496714.472     9865504.67649   7676003.48045  23496713.863    23496732.363
       217.000         156.000
  23228839.753    -8630697.39049  -6708487.33745  23228838.660    23228856.634
       220.000         162.000
  20715247.946    -8754249.60249  -6803917.95347  20715246.933    20715258.813
       245.000         212.000
  23414496.762    -7673728.43249  -5965255.47745  23414495.902    23414514.170
       216.000         155.000
  20511470.946    -7000634.30649  -5437673.88348  20511470.295    20511481.663
       246.000         214.000
  21572252.237     4764145.50949   3711708.36947  21572252.121    21572265.174
       237.000         195.000
  23695795.961    -6237755.06349  -4803300.91945  23695793.923    23695812.474
       212.000         151.000
  21714516.773     4178243.77549   3256478.06747  21714515.694    21714529.790
       235.000         192.000
  22234973.568    -7601306.23049  -5906411.10846  22234972.309    22234986.970
       231.000         187.000
 02  2 24  0  3 30.0000000  0  9G 5G15G23G26G 6G30G18G10G17
  23516300.518     9968429.34149   7756204.27845  23516300.024    23516319.219
       216.000         154.000
  23215926.620    -8698554.92649  -6761363.10145  23215924.980    23215942.851
       221.000         162.000
  20708944.834    -8787372.37249  -6829727.82647  20708943.886    20708955.616
       245.000         212.000
  23398328.526    -7758692.33449  -6031460.87045  23398328.394    23398345.965
       217.000         155.000
  20505392.270    -7032577.69049  -5462564.77648  20505391.553    20505402.924
       246.000         214.000
  21587054.681     4841932.55049   3772321.57147  21587054.883    21587067.605
       236.000         194.000
  23675773.524    -6342972.27249  -4885287.95545  23675772.374    23675790.168
       215.000         151.000
  21728745.127     4253014.22049   3314740.69947  21728744.653    21728757.648
       236.000         192.000
  22225834.185    -7649333.55149  -5943834.87146  22225832.866    22225847.481
       232.000         187.000
 02  2 24  0  4  0.0000000  0  9G 5G15G23G26G 6G30G18G10G17
  23535900.547    10071427.65049   7836462.46745  23535900.965    23535918.725
       216.000         154.000
  23203042.968    -8766258.00249  -6814118.51646  23203041.369    23203059.472
       222.000         163.000
  20702739.012    -8819983.88549  -6855139.31047  20702737.973    20702749.848
       244.000         212.000
  23382191.828    -7843491.10549  -6097537.59845  23382190.806    23382209.623
       218.000         156.000
  20499375.924    -7064193.38549  -5487200.32648  20499375.468    20499386.570
       246.000         214.000
  21601926.045     4920082.03149   3833217.18947  21601925.848    21601939.425
       235.000         193.000
  23655783.107    -6448021.07049  -4967143.76345  23655780.594    23655799.555
       213.000         150.000
  21743047.967     4328175.56349   3373307.92847  21743047.451    21743061.411
       236.000         192.000
  22216726.007    -7697196.91849  -5981130.87346  22216724.482    22216739.368
       231.000         187.000
 02  2 24  0  4 30.0000000  0  9G 5G15G23G26G 6G30G18G10G17
  23555514.114    10174496.54349   7916775.65245  23555513.297    23555532.650
       215.000         154.000
  23190188.620    -8833806.89149  -6866753.79646  23190186.298    23190203.824
       223.000         164.000
  20696630.414    -8852084.30049  -6880152.53748  20696629.671    20696641.383
       245.000         213.000
  23366086.953    -7928121.55949  -6163483.15145  23366085.476    23366104.529
       216.000         157.000
  20493422.260    -7095480.10249  -5511579.52748  20493421.949    20493432.707
       247.000         214.000
  21616865.738     4998590.80749   3894392.77647  21616866.155    21616878.865
       235.000         193.000
  23635825.097    -6552899.55349  -5048866.87745  23635823.740    23635841.455
       211.000         148.000
  21757424.539     4403724.53849   3432177.19947  21757423.519    21757436.846
       235.000         191.000
  22207648.886    -7744897.01549  -6018299.66246  22207647.965    22207662.470
       233.000         187.000
 02  2 24  0  5  0.0000000  0  9G 5G15G23G26G 6G30G18G10G17
  23575140.789    10277634.33749   7997142.51245  23575140.410    23575158.498
       214.000         153.000
  23177363.793    -8901200.89249  -6919268.38946  23177362.376    23177380.186
       224.000         165.000
  20690619.481    -8883672.02749  -6904766.27047  20690618.473    20690630.269
       244.000         212.000
  23350014.825    -8012579.34149  -6229294.15445  23350014.561    23350031.799
       217.000         155.000
  20487531.694    -7126435.08049  -5535700.22948  20487531.027    20487542.208
       247.000         214.000
  21631873.598     5077457.15149   3955846.98747  21631874.065    21631887.155
       237.000         194.000
  23615899.976    -6657604.69149  -5130454.91545  23615898.873    23615917.590
       211.000         146.000
  21771874.469     4479659.34849   3491347.12647  21771873.396    21771886.893
       235.000         191.000
  22198602.997    -7792433.30349  -6055340.80046  22198601.278    22198615.929
       231.000         187.000
 02  2 24  0  5 30.0000000  0  9G 5G15G23G26G 6G30G18G10G17
  23594779.779    10380837.33049   8077560.17945  23594779.214    23594799.085
       214.000         154.000
  23164568.274    -8968441.28149  -6971663.27146  23164567.624    23164584.808
       223.000         166.000
  20684705.890    -8914747.63549  -6928980.94947  20684705.097    20684716.509
       246.000         212.000
  23333976.329    -8096861.88649  -6294968.61845  23333975.965    23333992.736
       218.000         155.000
  20481704.410    -7157057.41149  -5559561.72648  20481703.722    20481715.160
       247.000         214.000
  21646948.756     5156677.23049   4017576.83847  21646948.889    21646962.095
       236.000         194.000
  23596008.120    -6762135.47249  -5211907.07845  23596005.305    23596024.336
       212.000         145.000
  21786397.207     4555976.43949   3550814.92447  21786396.661    21786409.680
       235.000         191.000
  22189587.828    -7839807.42949  -6092255.56847  22189586.459    22189601.214
       232.000         188.000
 02  2 24  0  6  0.0000000  0  9G 5G15G23G26G 6G30G18G10G17
  23614430.791    10484103.28149   8158026.89945  23614429.830    23614449.544
       213.000         154.000
  23151802.057    -9035527.47249  -7023937.99246  23151801.112    23151818.477
       222.000         165.000
  20678890.003    -8945310.22549  -6952795.88147  20678889.183    20678900.738
       246.000         212.000
  23317971.905    -8180965.34149  -6360503.53145  23317970.885    23317988.393
       217.000         154.000
  20475940.839    -7187344.93549  -5583162.33748  20475940.301    20475951.389
       247.000         214.000
  21662090.666     5236248.63549   4079580.44247  21662090.986    21662104.251
       235.000         192.000
  23576149.968    -6866489.01449  -5293221.15845  23576148.762    23576167.332
       214.000         146.000
  21800992.290     4632673.49749   3610578.80147  21800991.278    21801004.899
       235.000         190.000
  22180603.742    -7887018.87549  -6129043.58647  22180602.668    22180617.212
       233.000         189.000
 02  2 24  0  6 30.0000000  0  9G 5G15G23G26G 6G30G18G10G17
  23634093.250    10587429.45249   8238540.54045  23634093.008    23634111.713
       213.000         154.000
  23139065.207    -9102459.50549  -7076092.60346  23139063.740    23139080.518
       223.000         166.000
  20673171.750    -8975359.55149  -6976210.86247  20673170.342    20673182.152
       243.000         212.000
  23302001.893    -8264886.11549  -6425896.09145  23302000.821    23302018.612
       213.000         153.000
  20470241.311    -7217295.86649  -5606500.66048  20470240.737    20470251.880
       245.000         214.000
  21677299.031     5316168.69749   4141855.73347  21677299.518    21677312.502
       235.000         192.000
  23556326.122    -6970662.92549  -5374395.24145  23556325.135    23556342.135
       215.000         148.000
  21815659.123     4709747.93949   3670636.75347  21815658.384    21815671.093
       235.000         190.000
  22171650.448    -7934068.21949  -6165705.28647  22171648.977    22171663.664
       232.000         189.000
 02  2 24  0  7  0.0000000  0  9G 5G15G23G26G 6G30G18G10G17
  23653766.544    10690813.16449   8319099.00345  23653767.218    23653785.195
       212.000         154.000
  23126357.620    -9169237.71449  -7128127.32346  23126356.407    23126374.394
       222.000         167.000
  20667551.205    -9004895.12049  -6999225.50848  20667550.463    20667561.959
       245.000         213.000
  23286067.410    -8348620.89549  -6491143.72045  23286065.322    23286085.287
       214.000         153.000
  20464606.118    -7246908.62849  -5629575.48748  20464605.359    20464616.601
       245.000         214.000
  21692573.118     5396434.27649   4204400.25247  21692573.524    21692586.531
       235.000         191.000
  23536536.791    -7074655.27849  -5455427.88145  23536534.966    23536552.342
       217.000         150.000
  21830397.055     4787196.54149   3730986.25747  21830395.732    21830409.062
       235.000         189.000
  22162727.890    -7980955.81649  -6202240.96247  22162726.644    22162741.299
       233.000         189.000
 02  2 24  0  7 30.0000000  0  9G 5G15G23G26G 6G30G18G10G17
  23673450.391    10794252.06549   8399700.47845  23673450.481    23673469.289
       214.000         156.000
  23113679.244    -9235861.95449  -7180042.09146  23113677.344    23113695.454
       222.000         167.000
  20662028.639    -9033916.28249  -7021839.32748  20662027.656    20662039.078
       245.000         213.000
  23270169.333    -8432165.81549  -6556243.39045  23270169.487    23270187.000
       216.000         154.000
  20459035.704    -7276180.98249  -5652385.05948  20459035.185    20459046.277
       245.000         214.000
  21707912.452     5477042.92649   4267212.10447  21707913.274    21707925.140
       235.000         190.000
  23516782.504    -7178463.48949  -5536317.01645  23516780.682    23516799.366
       216.000         151.000
  21845205.855     4865016.98749   3791625.50047  21845204.669    21845218.210
       235.000         189.000
  22153836.149    -8027682.10149  -6238650.92947  22153835.099    22153849.611
       232.000         189.000
 02  2 24  0  8  0.0000000  0  9G 5G15G23G26G 6G30G18G10G17
  23693144.144    10897742.97449   8480342.48745  23693144.118    23693163.276
       215.000         158.000
  23101030.136    -9302332.78349  -7231837.31346  23101028.681    23101046.571
       222.000         166.000
  20656603.885    -9062423.29349  -7044052.50848  20656603.151    20656614.286
       246.000         213.000
  23254307.944    -8515517.93549  -6621192.84445  23254307.198    23254324.815
       215.000         153.000
  20453530.409    -7305111.58549  -5674928.32848  20453529.826    20453540.957
       247.000         214.000
  21723316.498     5557991.32149   4330288.69047  21723316.731    21723329.720
       235.000         190.000
  23497063.520    -7282085.92549  -5617061.40445  23497062.162    23497079.173
       217.000         151.000
  21860084.792     4943206.13049   3852552.04147  21860083.699    21860097.379
       233.000         188.000
  22144974.843    -8074247.69149  -6274935.67647  22144974.014    22144988.108
       232.000         189.000
 02  2 24  0  8 30.0000000  0  9G 5G15G23G26G 6G30G18G10G17
  23712847.493    11001283.73149   8561023.31845  23712847.108    23712866.784
       216.000         158.000
  23088410.222    -9368649.93049  -7283512.77346  23088408.557    23088426.656
       222.000         166.000
  20651277.148    -9090415.46249  -7065864.51148  20651276.349    20651287.760
       245.000         213.000
  23238483.762    -8598673.18449  -6685988.88545  23238483.493    23238500.606
       213.000         152.000
  20448090.478    -7333698.35049  -5697203.67548  20448089.732    20448100.554
       246.000         213.000
  21738784.735     5639277.17649   4393628.22647  21738784.942    21738798.388
       235.000         191.000
  23477380.317    -7385519.93449  -5697658.96645  23477378.059    23477396.614
       218.000         151.000
  21875033.297     5021761.70049   3913764.11547  21875032.400    21875045.873
       234.000         188.000
  22136144.197    -8120652.72849  -6311095.32647  22136143.147    22136157.070
       232.000         189.000
 02  2 24  0  9  0.0000000  0  9G 5G15G23G26G 6G30G18G10G17
  23732559.715    11104871.30749   8641740.63945  23732559.631    23732578.691
       216.000         158.000
  23075819.636    -9434813.34749  -7335068.45846  23075817.754    23075835.951
       222.000         166.000
  20646048.338    -9117892.70649  -7087275.27448  20646047.339    20646058.888
       246.000         213.000
  23222697.586    -8681628.35149  -6750629.01845  23222696.302    23222714.908
       214.000         151.000
  20442716.275    -7361939.53049  -5719209.73648  20442715.682    20442726.741
       246.000         213.000
  21754316.590     5720897.35049   4457228.26847  21754317.100    21754330.199
       235.000         191.000
  23457733.597    -7488763.46049  -5778108.13145  23457732.450    23457749.150
       220.000         152.000
  21890051.040     5100680.55649   3975259.25646  21890049.964    21890064.124
       233.000         187.000
  22127343.940    -8166897.59249  -6347130.14947  22127342.560    22127356.905
       231.000         188.000
 02  2 24  0  9 30.0000000  0  9G 5G15G23G26G 6G30G18G10G17
  23752280.337    11208502.82349   8722492.20745  23752280.219    23752300.020
       216.000         159.000
  23063258.073    -9500823.61649  -7386504.80546  23063257.169    23063273.876
       221.000         165.000
  20640917.512    -9144855.18649  -7108284.92748  20640916.601    20640928.013
       245.000         214.000
  23206950.234    -8764380.09949  -6815110.64345  23206949.433    23206966.913
       214.000         151.000
  20437408.203    -7389833.60949  -5740945.33448  20437407.827    20437418.562
       246.000         213.000
  21769911.465     5802848.67549   4521086.34847  21769911.764    21769925.046
       236.000         191.000
  23438123.402    -7591814.61549  -5858407.38345  23438121.496    23438138.180
       220.000         154.000
  21905137.418     5179959.71249   4037035.14246  21905136.689    21905150.546
       233.000         187.000
  22118573.981    -8212983.08449  -6383040.79747  22118573.031    22118587.158
       230.000         188.000
 02  2 24  0 10  0.0000000  0  9G 5G15G23G26G 6G30G18G10G17
  23772008.929    11312175.42149   8803275.77545  23772008.751    23772029.193
       217.000         160.000
  23050725.593    -9566681.07349  -7437822.07346  23050724.885    23050741.909
       223.000         166.000
  20635884.654    -9171302.69349  -7128893.30248  20635883.625    20635895.118
       245.000         213.000
  23191242.241    -8846925.08949  -6879431.15745  23191240.578    23191258.387
       214.000         153.000
  20432166.464    -7417378.99049  -5762409.21648  20432165.836    20432176.822
       246.000         213.000
  21785568.888     5885128.23049   4585200.19647  21785569.504    21785582.029
       236.000         191.000
  23418550.141    -7694671.49349  -5938555.25445  23418548.886    23418565.119
       221.000         156.000
  21920291.905     5259596.54249   4099089.74546  21920291.168    21920304.650
       233.000         187.000
  22109834.375    -8258909.58549  -6418827.56246  22109833.421    22109847.313
       231.000         187.000
 02  2 24  0 10 30.0000000  0  9G 5G15G23G26G 6G30G18G10G17
  23791744.815    11415886.68249   8884089.45445  23791744.298    23791764.321
       217.000         160.000
  23038222.246    -9632385.89149  -7489020.41946  23038220.572    23038237.610
       223.000         166.000
  20630949.864    -9197234.79649  -7149100.06248  20630948.951    20630960.600
       245.000         213.000
  23175574.146    -8929259.80749  -6943587.83645  23175572.615    23175590.477
       214.000         152.000
  20426991.370    -7444573.87049  -5783599.98548  20426990.878    20427001.869
       245.000         213.000
  21801288.238     5967733.25949   4649567.66347  21801288.762    21801301.671
       237.000         191.000
  23399014.286    -7797331.70149  -6018549.87345  23399013.090    23399029.783
       222.000         158.000
  21935513.834     5339588.27349   4161420.89546  21935513.130    21935526.790
       233.000         187.000
  22101124.898    -8304677.53449  -6454490.77447  22101123.730    22101137.933
       232.000         188.000
 02  2 24  0 11  0.0000000  0  9G 5G15G23G26G 6G30G18G10G17
  23811487.537    11519634.11349   8964931.32345  23811487.370    23811506.254
       216.000         159.000
  23025747.916    -9697938.05049  -7540099.82146  23025746.507    23025763.697
       224.000         166.000
  20626113.219    -9222651.38249  -7168905.12748  20626112.220    20626123.767
       245.000         213.000
  23159946.700    -9011380.67049  -7007577.85945  23159946.113    23159962.955
       216.000         152.000
  20421883.412    -7471416.22349  -5804516.06048  20421882.835    20421893.735
       245.000         213.000
  21817068.945     6050660.87849   4714186.49147  21817069.507    21817082.701
       237.000         191.000
  23379516.342    -7899793.01449  -6098389.52245  23379515.069    23379531.851
       221.000         160.000
  21950802.900     5419932.23449   4224026.50446  21950802.246    21950815.692
       233.000         187.000
  22092445.597    -8350287.13049  -6490030.59947  22092444.349    22092458.246
       233.000         188.000
 02  2 24  0 11 30.0000000  0  9G 5G15G23G26G 6G30G18G10G17
  23831236.575    11623414.69849   9045799.02145  23831236.528    23831255.719
       216.000         158.000
  23013302.545    -9763337.96549  -7591060.56746  23013300.414    23013317.864
       224.000         166.000
  20621374.611    -9247552.46849  -7188308.49948  20621373.670    20621384.979
       244.000         213.000
  23144360.811    -9093284.29149  -7071398.60445  23144361.312    23144377.050
       217.000         153.000
  20416842.813    -7497904.54449  -5825156.26748  20416842.184    20416853.407
       245.000         213.000
  21832910.513     6133908.13349   4779054.38747  21832910.720    21832923.984
       235.000         190.000
  23360056.517    -8002053.44749  -6178072.63445  23360054.731    23360072.202
       220.000         159.000
  21966158.390     5500625.21449   4286904.08246  21966157.496    21966171.154
       233.000         187.000
  22083796.272    -8395739.19549  -6525447.67647  22083795.097    22083809.307
       234.000         189.000
 02  2 24  0 12  0.0000000  0  9G 5G15G23G26G 6G30G18G10G17
  23850991.415    11727226.15449   9126690.78345  23850991.562    23851011.210
       215.000         158.000
  23000886.222    -9828585.24749  -7641902.39946  23000884.989    23000902.931
       223.000         167.000
  20616734.232    -9271937.54649  -7207309.78648  20616733.392    20616744.887
       246.000         213.000
  23128817.064    -9174967.02149  -7135047.24945  23128816.863    23128833.229
       219.000         155.000
  20411869.970    -7524036.73349  -5845518.96848  20411869.437    20411880.608
       245.000         213.000
  21848812.246     6217472.25249   4844169.19047  21848812.162    21848825.813
       236.000         189.000
  23340635.345    -8104110.81549  -6257597.51645  23340633.486    23340651.057
       220.000         159.000
  21981579.790     5581664.90249   4350051.81746  21981578.670    21981592.818
       232.000         186.000
  22075176.990    -8441033.60049  -6560741.89647  22075175.944    22075189.950
       235.000         190.000
 02  2 24  0 12 30.0000000  0  9G 5G15G23G26G 6G30G18G10G17
  23870751.546    11831065.57549   9207604.32245  23870751.812    23870771.594
       215.000         157.000
  22988498.813    -9893680.43049  -7692625.70946  22988496.875    22988514.663
       223.000         167.000
  20612191.980    -9295807.07249  -7225909.35048  20612190.967    20612202.432
       245.000         213.000
  23113315.799    -9256425.62649  -7198521.22345  23113315.075    23113333.225
       217.000         156.000
  20406965.222    -7549811.32549  -5865603.02648  20406964.862    20406975.808
       246.000         213.000
  21864773.744     6301350.17049   4909528.50747  21864774.072    21864787.541
       236.000         190.000
  23321253.221    -8205962.95949  -6336962.50645  23321251.274    23321268.344
       221.000         159.000
  21997066.596     5663048.17849   4413467.28146  21997065.978    21997079.791
       234.000         186.000
  22066587.586    -8486171.23449  -6595913.96347  22066586.410    22066600.399
       235.000         190.000
 02  2 24  0 13  0.0000000  0  9G 5G15G23G26G 6G30G18G10G17
  23890516.675    11934930.48149   9288537.72545  23890516.859    23890536.308
       215.000         156.000
  22976140.326    -9958623.49349  -7743230.48646  22976138.680    22976156.134
       222.000         168.000
  20607747.907    -9319160.63649  -7244106.86548  20607746.904    20607758.323
       245.000         213.000
  23097857.784    -9337656.42549  -7261817.70045  23097857.416    23097873.456
       218.000         156.000
  20402128.824    -7575226.64649  -5885407.13348  20402128.191    20402139.107
       245.000         213.000
  21880794.396     6385538.86449   4975129.99147  21880794.441    21880807.859
       236.000         190.000
  23301910.667    -8307607.76249  -6416165.92345  23301909.504    23301924.906
       220.000         160.000
  22012618.401     5744772.57649   4477148.55746  22012617.412    22012631.688
       233.000         186.000
  22058027.842    -8531152.37549  -6630964.09447  22058027.096    22058040.745
       235.000         190.000
 02  2 24  0 13 30.0000000  0  9G 5G15G23G26G 6G30G18G10G17
  23910286.079    12038818.16349   9369488.87845  23910285.834    23910305.773
       213.000         154.000
  22963810.780   -10023414.53149  -7793716.80046  22963808.966    22963826.639
       220.000         167.000
  20603402.009    -9341998.12849  -7261902.24448  20603401.112    20603412.307
       245.000         213.000
  23082444.001    -9418655.88749  -7324933.92945  23082443.407    23082459.933
       219.000         158.000
  20397361.179    -7600280.65749  -5904929.69848  20397360.591    20397371.684
       246.000         213.000
  21896873.762     6470035.84249   5040971.69147  21896874.259    21896887.293
       236.000         190.000
  23282607.890    -8409042.85649  -6495205.96045  23282605.777    23282621.392
       219.000         160.000
  22028234.392     5826835.09349   4541093.31546  22028233.361    22028246.802
       234.000         186.000
  22049497.878    -8575977.23349  -6665892.44647  22049497.341    22049510.875
       236.000         191.000
 02  2 24  0 14  0.0000000  0  9G 5G15G23G26G 6G30G18G10G17
  23930059.185    12142725.89349   9450455.63345  23930058.645    23930079.636
       211.000         151.000
  22951510.143   -10088053.62249  -7844084.71446  22951508.331    22951526.393
       221.000         167.000
  20599154.392    -9364319.48349  -7279295.44948  20599153.593    20599164.630
       245.000         213.000
  23067074.840    -9499420.64149  -7387867.27645  23067074.966    23067090.753
       221.000         159.000
  20392662.570    -7624971.88449  -5924169.57948  20392661.944    20392673.057
       245.000         213.000
  21913011.109     6554837.80149   5107051.03147  21913011.368    21913024.339
       236.000         189.000
  23263345.418    -8510266.47249  -6574081.18645  23263343.303    23263360.267
       219.000         160.000
  22043914.203     5909232.89749   4605299.33246  22043913.586    22043927.260
       232.000         186.000
  22040997.608    -8620646.34249  -6700699.43747  22040996.426    22041010.561
       235.000         191.000
 02  2 24  0 14 30.0000000  0  9G 5G15G23G26G 6G30G18G10G17
  23949835.621    12246651.08249   9531436.00345  23949836.463    23949854.667
       208.000         147.000
  22939238.408   -10152541.26049  -7894334.59946  22939235.937    22939254.750
       219.000         167.000
  20595004.977    -9386124.57949  -7296286.36648  20595003.895    20595015.214
       244.000         213.000
  23051751.044    -9579947.13949  -7450614.95345  23051750.265    23051766.480
       220.000         161.000
  20388033.316    -7649298.53249  -5943125.37248  20388032.699    20388043.645
       245.000         213.000
  21929206.031     6639942.05849   5173365.94347  21929206.726    21929219.133
       235.000         189.000
  23244123.628    -8611276.38649  -6652789.87045  23244122.049    23244138.993
       218.000         160.000
  22059657.377     5991963.48049   4669764.64746  22059657.067    22059670.498
       235.000         186.000
  22032526.854    -8665159.95349  -6735385.25947  22032525.910    22032539.012
       235.000         191.000
 02  2 24  0 15  0.0000000  0  9G 5G15G23G26G 6G30G18G10G17
  23969614.912    12350591.12249   9612427.92345  23969614.701    23969635.483
       208.000         144.000
  22926995.429   -10216877.52649  -7944466.54546  22926993.493    22927011.779
       219.000         167.000
  20590953.681    -9407413.68149  -7312875.21448  20590952.800    20590964.028
       246.000         213.000
  23036473.150    -9660232.07149  -7513174.39146  23036472.872    23036490.076
       221.000         163.000
  20383473.780    -7673258.97749  -5961795.80748  20383473.155    20383483.977
       245.000         213.000
  21945457.818     6725345.37149   5239913.86647  21945458.026    21945471.649
       233.000         188.000
  23224942.899    -8712070.51149  -6731330.43745  23224941.837    23224957.398
       221.000         161.000
  22075463.369     6075023.56549   4734486.72146  22075462.395    22075476.172
       232.000         186.000
  22024085.562    -8709518.95849  -6769950.62147  22024084.953    22024098.135
       235.000         191.000
 02  2 24  0 15 30.0000000  0  9G 5G15G23G26G 6G30G18G10G17
  23989396.554    12454543.38449   9693429.37145  23989396.476    23989414.821
       210.000         142.000
  22914781.356   -10281062.21449  -7994480.36646  22914779.438    22914797.876
       220.000         167.000
  20587000.735    -9428186.60249  -7329061.84648  20586999.887    20587010.924
       247.000         213.000
  23021241.909    -9740271.72549  -7575542.70746  23021240.447    23021256.536
       221.000         163.000
  20378984.283    -7696851.44849  -5980179.51148  20378983.733    20378994.754
       246.000         213.000
  21961765.953     6811045.02849   5306692.70646  21961765.926    21961779.521
       234.000         187.000
  23205803.603    -8812646.64949  -6809701.15245  23205802.337    23205818.194
       221.000         162.000
  22091331.374     6158410.77849   4799463.69646  22091330.200    22091344.339
       233.000         186.000
  22015673.681    -8753723.34849  -6804395.49447  22015672.417    22015686.801
       234.000         191.000
 02  2 24  0 16  0.0000000  0  9G 5G15G23G26G 6G30G18G10G17
  24009180.270    12558505.34349   9774438.39445  24009180.021    24009199.645
       209.000         141.000
  22902595.932   -10345095.73649  -8044376.40246  22902595.213    22902612.415
       222.000         167.000
  20583145.948    -9448443.41449  -7344846.30848  20583144.945    20583156.244
       246.000         213.000
  23006058.107    -9820062.58449  -7637717.17546  23006057.638    23006074.138
       221.000         164.000
  20374565.087    -7720074.21449  -5998275.13248  20374564.522    20374575.442
       246.000         213.000
  21978129.963     6897038.19649   5373700.26546  21978130.397    21978143.711
       233.000         187.000
  23186706.181    -8913002.86749  -6887900.48246  23186704.718    23186721.058
       222.000         163.000
  22107261.196     6242122.22049   4864693.32046  22107260.152    22107273.865
       231.000         185.000
  22007291.040    -8797773.68749  -6838720.32947  22007289.830    22007303.760
       235.000         191.000
 02  2 24  0 16 30.0000000  0  9G 5G15G23G26G 6G30G18G10G17
  24028965.169    12662474.29949   9855452.85545  24028965.543    24028985.206
       209.000         141.000
  22890439.354   -10408978.45749  -8094154.92946  22890437.700    22890455.463
       223.000         170.000
  20579389.264    -9468184.37649  -7360228.81348  20579388.366    20579399.737
       246.000         213.000
  22990922.331    -9899601.40649  -7699695.24146  22990921.806    22990937.772
       221.000         164.000
  20370216.609    -7742925.63549  -6016081.39648  20370216.033    20370226.911
       246.000         213.000
  21994549.161     6983321.44249   5440933.85546  21994549.340    21994563.043
       233.000         187.000
  23167651.137    -9013137.04049  -6965926.81646  23167649.340    23167664.861
       223.000         163.000
  22123252.187     6326154.83249   4930173.19246  22123251.502    22123265.077
       232.000         184.000
  21998937.681    -8841670.48949  -6872925.53647  21998936.683    21998950.783
       235.000         191.000
 02  2 24  0 17  0.0000000  0  9G 5G15G23G26G 6G30G18G10G17
  24048750.893    12766447.52149   9936470.62745  24048751.366    24048769.891
       210.000         142.000
  22878311.371   -10472710.62249  -8143816.13446  22878309.716    22878326.733
       223.000         170.000
  20575730.815    -9487409.70749  -7375209.53548  20575729.969    20575741.068
       247.000         213.000
  22975835.112    -9978884.74649  -7761474.22046  22975833.731    22975850.702
       221.000         165.000
  20365939.094    -7765404.03949  -6033596.99648  20365938.504    20365949.348
       247.000         213.000
  22011023.062     7069891.86849   5508391.21946  22011023.625    22011036.573
       234.000         187.000
  23148638.729    -9113046.83849  -7043778.29246  23148636.922    23148653.159
       223.000         164.000
  22139303.828     6410505.81649   4995901.14946  22139302.959    22139316.730
       231.000         184.000
  21990613.467    -8885414.15449  -6907011.41147  21990611.926    21990625.983
       235.000         192.000
 02  2 24  0 17 30.0000000  0  9G 5G15G23G26G 6G30G18G10G17
  24068536.941    12870422.45149  10017489.73845  24068536.709    24068557.187
       212.000         144.000
  22866212.064   -10536292.27849  -8193360.07246  22866211.111    22866227.716
       223.000         170.000
  20572170.418    -9506119.47549  -7389788.51248  20572169.423    20572180.756
       246.000         213.000
  22960797.039   -10057909.03349  -7823051.34346  22960795.452    22960813.288
       221.000         164.000
  20361732.870    -7787507.76149  -6050820.63648  20361732.296    20361743.027
       246.000         213.000
  22027551.122     7156746.86849   5576070.33046  22027551.513    22027564.768
       233.000         187.000
  23129669.347    -9212730.26149  -7121453.37746  23129668.184    23129683.669
       224.000         165.000
  22155415.340     6495172.58449   5061875.17846  22155414.406    22155428.063
       232.000         183.000
  21982318.349    -8929004.96149  -6940978.16847  21982317.628    21982330.885
       236.000         192.000
 02  2 24  0 18  0.0000000  0  9G 5G15G23G26G 6G30G18G10G17
  24088322.798    12974396.50949  10098508.16045  24088322.351    24088342.886
       212.000         145.000
  22854141.296   -10599723.52049  -8242786.78846  22854139.219    22854157.523
       223.000         170.000
  20568708.101    -9524313.58649  -7403965.67748  20568707.150    20568718.432
       246.000         213.000
  22945808.932   -10136670.72449  -7884423.85346  22945807.898    22945824.462
       220.000         165.000
  20357598.262    -7809235.20449  -6067751.06848  20357597.858    20357608.431
       246.000         213.000
  22044132.707     7243883.29649   5643968.73446  22044132.824    22044146.533
       232.000         187.000
  23110743.453    -9312185.42549  -7198950.61446  23110742.646    23110757.488
       225.000         165.000
  22171586.492     6580152.30849   5128093.06946  22171585.241    22171599.060
       230.000         183.000
  21974052.263    -8972443.37349  -6974826.18347  21974051.481    21974064.902
       236.000         193.000
 02  2 24  0 18 30.0000000  0  9G 5G15G23G26G 6G30G18G10G17
  24108108.068    13078367.54349  10179524.22445  24108108.264    24108128.876
       214.000         145.000
  22842099.289   -10663003.94549  -8292096.01146  22842098.055    22842114.697
       224.000         170.000
  20565343.962    -9541991.91149  -7417740.93348  20565343.119    20565354.400
       246.000         213.000
  22930871.540   -10215166.13049  -7945588.85946  22930870.798    22930887.210
       222.000         165.000
  20353535.668    -7830584.27149  -6084386.66548  20353535.071    20353545.792
       246.000         213.000
  22060767.317     7331298.58249   5712084.41846  22060767.798    22060781.122
       233.000         186.000
  23091861.498    -9411409.82549  -7276268.02546  23091859.708    23091875.470
       225.000         166.000
  22187816.584     6665442.55549   5194552.91946  22187816.005    22187828.775
       232.000         182.000
  21965815.147    -9015729.49549  -7008555.52647  21965814.053    21965827.625
       237.000         193.000
 02  2 24  0 19  0.0000000  0  9G 5G15G23G26G 6G30G18G10G17
  24127892.126    13182332.23349  10260535.33445  24127892.198    24127911.325
       213.000         147.000
  22830085.879   -10726134.65449  -8341288.55646  22830084.322    22830101.639
       225.000         171.000
  20562077.873    -9559155.26349  -7431114.91548  20562077.000    20562088.047
       246.000         213.000
  22915985.398   -10293392.41749  -8006544.16146  22915984.244    22916001.398
       221.000         166.000
  20349545.237    -7851553.96749  -6100726.64748  20349544.593    20349555.384
       246.000         213.000
  22077454.386     7418989.06549   5780414.54646  22077454.726    22077468.266
       232.000         186.000
  23073023.630    -9510402.05149  -7353404.52746  23073021.620    23073037.077
       223.000         166.000
  22204105.383     6751039.81049   5261251.99146  22204104.418    22204118.062
       230.000         182.000
  21957606.816    -9058864.37149  -7042167.02147  21957605.826    21957619.745
       237.000         194.000
 02  2 24  0 19 30.0000000  0  9G 5G15G23G26G 6G30G18G10G17
  24147674.496    13286288.27249  10341539.72045  24147675.322    24147694.420
       215.000         149.000
  22818100.903   -10789115.34149  -8390364.20846  22818099.638    22818116.357
       225.000         171.000
  20558909.741    -9575803.61249  -7444087.59548  20558908.824    20558920.011
       246.000         213.000
  22901151.257   -10371345.68649  -8067286.72446  22901150.843    22901167.515
       222.000         167.000
  20345627.354    -7872142.34549  -6116769.50148  20345626.846    20345637.414
       246.000         213.000
  22094193.223     7506951.88949   5848956.89346  22094193.188    22094206.674
       231.000         185.000
  23054230.468    -9609159.69849  -7430358.23846  23054229.159    23054242.869
       224.000         166.000
  22220451.883     6836941.51549   5328188.30446  22220450.992    22220465.172
       230.000         182.000
  21949427.204    -9101848.10749  -7075660.73247  21949426.138    21949439.249
       236.000         194.000
 02  2 24  0 20  0.0000000  0  9G 5G15G23G26G 6G30G18G10G17
  24167454.899    13390233.13649  10422535.39845  24167455.569    24167475.268
       215.000         150.000
  22806144.419   -10851946.24349  -8439323.14446  22806143.316    22806160.129
       225.000         172.000
  20555839.626    -9591937.10449  -7456659.09148  20555838.769    20555849.945
       246.000         213.000
  22886369.646   -10449022.59049  -8127813.95046  22886368.916    22886385.388
       220.000         168.000
  20341782.359    -7892347.69749  -6132513.89148  20341781.827    20341792.667
       246.000         213.000
  22110983.350     7595184.37249   5917709.36146  22110983.724    22110997.474
       232.000         185.000
  23035482.250    -9707680.85349  -7507127.66046  23035480.769    23035496.457
       223.000         167.000
  22236855.886     6923145.06149   5395359.81246  22236854.976    22236869.398
       231.000         182.000
  21941276.267    -9144680.98849  -7109036.90247  21941275.231    21941288.895
       236.000         193.000
 02  2 24  0 20 30.0000000  0  9G 5G15G23G26G 6G30G18G10G17
  24187232.670    13494164.24949  10503520.35045  24187232.787    24187253.208
       216.000         151.000
  22794216.461   -10914627.56949  -8488165.53146  22794215.173    22794231.556
       227.000         173.000
  20552867.395    -9607555.94149  -7468829.55748  20552866.447    20552877.429
       246.000         213.000
  22871641.276   -10526419.55449  -8188123.03646  22871641.012    22871656.130
       221.000         167.000
  20338010.584    -7912168.41949  -6147958.56648  20338009.869    20338020.590
       245.000         213.000
  22127824.297     7683683.36849   5986669.50546  22127824.596    22127837.940
       232.000         185.000
  23016779.414    -9805963.50949  -7583711.24846  23016778.456    23016793.520
       224.000         168.000
  22253316.879     7009647.70549   5462764.38546  22253315.980    22253330.222
       231.000         182.000
  21933153.991    -9187363.54149  -7142295.92747  21933152.774    21933166.655
       236.000         194.000
 02  2 24  0 21  0.0000000  0  9G 5G15G23G26G 6G30G18G10G17
  24207007.153    13598078.20849  10584491.93245  24207007.607    24207028.310
       214.000         151.000
  22782316.789   -10977160.31849  -8536892.13946  22782315.541    22782331.189
       225.000         172.000
  20549992.923    -9622661.18549  -7480599.82648  20549991.947    20550002.995
       246.000         213.000
  22856966.690   -10603533.96849  -8248211.96146  22856966.262    22856981.652
       222.000         167.000
  20334312.083    -7931603.62049  -6163102.84448  20334311.509    20334322.418
       245.000         213.000
  22144715.239     7772445.18849   6055834.43946  22144715.502    22144729.451
       231.000         185.000
  22998122.236    -9904006.36449  -7660107.98346  22998120.692    22998136.053
       225.000         169.000
  22269834.164     7096445.76249   5530399.14546  22269833.885    22269846.960
       230.000         182.000
  21925060.056    -9229896.94349  -7175438.73047  21925058.888    21925072.514
       236.000         194.000
 02  2 24  0 21 30.0000000  0  9G 5G15G23G26G 6G30G18G10G17
  24226778.160    13701973.41949  10665448.89645  24226778.740    24226798.841
       214.000         151.000
  22770445.465   -11039543.74949  -8585502.40146  22770444.209    22770458.899
       226.000         172.000
  20547216.338    -9637252.10749  -7491969.32047  20547215.389    20547226.338
       246.000         212.000
  22842346.745   -10680361.47949  -8308077.32046  22842346.403    22842361.651
       221.000         167.000
  20330687.521    -7950650.64849  -6177944.64348  20330687.018    20330697.889
       245.000         213.000
  22161655.736     7861467.87849   6125202.64846  22161656.115    22161669.814
       231.000         183.000
  22979511.368   -10001806.24649  -7736315.38946  22979509.487    22979526.119
       224.000         169.000
  22286407.190     7183537.26849   5598262.57446  22286406.292    22286420.258
       230.000         181.000
  21916994.619    -9272280.64149  -7208464.87547  21916993.991    21917006.627
       237.000         194.000
 02  2 24  0 22  0.0000000  0  9G 5G15G23G26G 6G30G18G10G17
  24246544.958    13805847.08349  10746389.06845  24246546.155    24246565.407
       216.000         151.000
  22758602.521   -11101778.10649  -8633996.51246  22758601.478    22758617.252
       225.000         171.000
  20544537.442    -9651329.31549  -7502938.52147  20544536.503    20544547.615
       246.000         212.000
  22827782.026   -10756898.75649  -8367716.53946  22827781.376    22827797.276
       222.000         168.000
  20327137.089    -7969308.16049  -6192482.92948  20327136.576    20327147.354
       246.000         213.000
  22178645.224     7950747.96349   6194771.43946  22178645.203    22178658.837
       232.000         183.000
  22960947.039   -10099361.42749  -7812332.12146  22960946.068    22960960.153
       224.000         169.000
  22303035.452     7270919.10949   5666352.25746  22303034.940    22303049.162
       230.000         182.000
  21908957.580    -9314515.22749  -7241374.83947  21908956.195    21908970.087
       235.000         194.000
 02  2 24  0 22 30.0000000  0  9G 5G15G23G26G 6G30G18G10G17
  24266307.241    13909696.71649  10827310.51445  24266306.106    24266327.942
       215.000         151.000
  22746787.848   -11163863.53949  -8682374.57746  22746786.597    22746802.648
       226.000         170.000
  20541956.303    -9664893.01749  -7513507.58747  20541955.410    20541966.549
       245.000         212.000
  22813273.241   -10833142.28749  -8427126.85446  22813273.220    22813287.472
       221.000         167.000
  20323661.067    -7987574.58049  -6206716.46348  20323660.483    20323671.331
       245.000         213.000
  22195683.261     8040282.67649   6264538.63146  22195683.788    22195697.582
       231.000         183.000
  22942429.646   -10196670.00349  -7888156.68446  22942428.128    22942443.093
       225.000         169.000
  22319718.559     7358588.77249   5734666.18546  22319717.881    22319731.938
       230.000         182.000
  21900948.735    -9356601.03049  -7274168.84947  21900947.210    21900961.004
       236.000         193.000
 02  2 24  0 23  0.0000000  0  9G 5G15G23G26G 6G30G18G10G17
  24286064.411    14013519.78449  10908211.25245  24286064.767    24286084.664
       214.000         151.000
  22735001.486   -11225800.36649  -8730636.85646  22735000.467    22735016.439
       226.000         171.000
  20539472.816    -9677943.55949  -7523676.79447  20539471.929    20539483.094
       245.000         212.000
  22798820.929   -10909088.59249  -8486305.57746  22798819.865    22798835.700
       221.000         167.000
  20320259.808    -8005448.26949  -6220643.97348  20320259.397    20320270.165
       246.000         213.000
  22212769.105     8130069.17149   6334502.01446  22212769.739    22212783.106
       231.000         183.000
  22923959.624   -10293729.65749  -7963787.31046  22923957.764    22923972.667
       224.000         169.000
  22336455.910     7446543.47749   5803202.23546  22336455.294    22336469.231
       229.000         181.000
  21892968.254    -9398538.35249  -7306847.17247  21892967.304    21892981.245
       235.000         193.000
 02  2 24  0 23 30.0000000  0  9G 5G15G23G26G 6G30G18G10G17
  24305815.975    14117313.53449  10989089.15145  24305815.724    24305836.141
       215.000         151.000
  22723243.318   -11287589.01649  -8778783.66846  22723242.097    22723257.566
       226.000         172.000
  20537086.914    -9690481.31149  -7533446.41747  20537086.001    20537097.104
       245.000         212.000
  22784425.744   -10984734.43949  -8545250.17046  22784425.211    22784440.906
       220.000         168.000
  20316933.574    -8022927.78249  -6234264.32748  20316932.840    20316943.855
       246.000         214.000
  22229902.259     8220104.04049   6404658.93746  22229902.609    22229916.096
       232.000         183.000
  22905537.220   -10390538.73249  -8039222.66346  22905534.948    22905550.894
       224.000         170.000
  22353246.800     7534780.49149   5871958.25846  22353245.650    22353260.013
       230.000         181.000
  21885015.835    -9440327.87449  -7339410.32547  21885014.800    21885028.453
       236.000         193.000
 02  2 24  0 24  0.0000000  0  9G 5G15G23G26G 6G30G18G10G17
  24325561.512    14221075.70549  11069942.43045  24325562.424    24325581.999
       212.000         151.000
  22711513.409   -11349229.33749  -8826814.89146  22711512.357    22711529.376
       228.000         173.000
  20534798.516    -9702506.53149  -7542816.66747  20534797.565    20534808.931
       245.000         212.000
  22770088.421   -11060076.12949  -8603957.74146  22770087.486    22770104.438
       221.000         168.000
  20313682.652    -8040011.20049  -6247576.03948  20313682.101    20313692.812
       246.000         214.000
  22247082.196     8310384.67849   6475007.37146  22247082.425    22247096.230
       232.000         182.000
  22887163.019   -10487094.83249  -8114460.88246  22887161.328    22887175.650
       223.000         169.000
  22370091.073     7623297.18549   5940932.22446  22370089.729    22370105.286
       229.000         181.000
  21877091.558    -9481969.81449  -7371858.47847  21877090.655    21877104.259
       236.000         194.000
 02  2 24  0 24 30.0000000  0  9G 5G15G23G26G 6G30G18G10G17
  24345300.370    14324803.37749  11150768.83445  24345301.239    24345320.476
       212.000         149.000
  22699811.710   -11410721.81749  -8874730.93546  22699810.708    22699825.985
       227.000         173.000
  20532607.542    -9714020.01349  -7551788.16647  20532606.742    20532617.693
       245.000         212.000
  22755809.771   -11135110.68949  -8662426.02446  22755809.481    22755824.960
       222.000         169.000
  20310507.372    -8056697.35349  -6260578.19048  20310506.909    20310517.470
       246.000         214.000
  22264308.265     8400907.57049   6545544.56646  22264308.680    22264322.713
       232.000         182.000
  22868837.125   -10583396.47249  -8189500.84746  22868836.094    22868850.298
       221.000         168.000
  22386987.959     7712090.30049   6010121.57946  22386987.651    22387001.039
       229.000         181.000
  21869195.265    -9523464.89149  -7404192.20147  21869194.182    21869207.519
       236.000         194.000
 02  2 24  0 25  0.0000000  0  9G 5G15G23G26G 6G30G18G10G17
  24365032.305    14428494.24249  11231566.55145  24365032.049    24365053.728
       208.000         147.000
  22688138.070   -11472066.49049  -8922531.80046  22688136.880    22688153.523
       228.000         174.000
  20530513.880    -9725022.08949  -7560361.16047  20530512.962    20530524.150
       246.000         212.000
  22741590.181   -11209834.55749  -8720652.20746  22741589.635    22741604.673
       220.000         169.000
  20307407.983    -8072984.57949  -6273269.49048  20307407.414    20307417.896
       246.000         214.000
  22281579.885     8491669.83049   6616268.29046  22281580.353    22281594.242
       231.000         182.000
  22850560.052   -10679441.50049  -8264340.84846  22850559.277    22850573.528
       223.000         168.000
  22403936.960     7801157.04849   6079524.16046  22403935.998    22403950.865
       229.000         181.000
  21861326.714    -9564813.40749  -7436411.71947  21861326.009    21861338.340
       236.000         193.000
 02  2 24  0 25 30.0000000  0  9G 5G15G23G26G 6G30G18G10G17
  24384756.828    14532145.60449  11312333.46645  24384757.104    24384779.010
       207.000         145.000
  22676492.501   -11533263.75149  -8970217.79946  22676491.142    22676507.175
       229.000         175.000
  20528517.419    -9735513.34349  -7568536.11148  20528516.704    20528527.831
       246.000         213.000
  22727430.273   -11284244.55949  -8778633.81646  22727429.718    22727445.584
       222.000         169.000
  20304384.836    -8088871.26249  -6285648.68248  20304384.277    20304394.789
       246.000         214.000
  22298896.336     8582668.32549   6687176.08046  22298896.665    22298911.032
       230.000         181.000
  22832332.243   -10775228.17249  -8338979.55046  22832331.086    22832345.416
       223.000         168.000
  22420937.431     7890494.74249   6149137.86546  22420936.209    22420950.513
       227.000         180.000
  21853486.113    -9606015.88749  -7468517.43647  21853485.267    21853498.459
       237.000         194.000
 02  2 24  0 26  0.0000000  0  9G 5G15G23G26G 6G30G18G10G17
  24404473.379    14635755.36349  11393067.96045  24404473.315    24404494.713
       206.000         142.000
  22664874.982   -11594313.26249  -9017788.67346  22664874.154    22664889.269
       228.000         174.000
  20526618.206    -9745493.80249  -7576313.04248  20526617.458    20526628.338
       246.000         213.000
  22713330.785   -11358336.75349  -8836367.77846  22713329.639    22713345.126
       221.000         169.000
  20301438.289    -8104355.50649  -6297714.28348  20301437.767    20301448.251
       246.000         214.000
  22316257.298     8673900.47849   6758265.94646  22316257.317    22316271.235
       230.000         181.000
  22814154.017   -10870754.08449  -8413415.06246  22814153.230    22814166.782
       223.000         168.000
  22437988.789     7980100.72949   6218960.61146  22437986.935    22438002.470
       227.000         179.000
  21845673.284    -9647072.27049  -7500509.31747  21845672.136    21845686.053
       237.000         194.000
 02  2 24  0 26 30.0000000  0  9G 5G15G23G26G 6G30G18G10G17
  24424181.655    14739321.28149  11473768.31045  24424182.870    24424202.461
       203.000         140.000
  22653285.677   -11655215.01749  -9065244.39446  22653284.867    22653301.355
       228.000         175.000
  20524816.140    -9754963.74749  -7583692.17148  20524815.376    20524826.231
       246.000         213.000
  22699292.518   -11432107.44049  -8893851.22346  22699291.977    22699307.387
       222.000         168.000
  20298568.602    -8119435.71449  -6309465.05448  20298568.004    20298578.580
       246.000         214.000
  22333662.266     8765363.54149   6829535.74146  22333662.907    22333676.494
       230.000         181.000
  22796025.892   -10966017.00049  -8487645.63746  22796023.911    22796038.708
       224.000         168.000
  22455090.880     8069972.48849   6288990.47046  22455090.185    22455104.740
       227.000         179.000
  21837888.190    -9687982.78849  -7532387.54847  21837887.125    21837900.473
       237.000         195.000
 02  2 24  0 27  0.0000000  0  9G 5G15G23G26G 6G30G18G10G17
  24443880.767    14842840.13249  11554431.95445  24443881.273    24443902.143
       207.000         139.000
  22641724.290   -11715969.91249  -9112585.68846  22641722.532    22641738.062
       227.000         174.000
  20523110.963    -9763924.51949  -7590674.53848  20523110.097    20523120.979
       246.000         213.000
  22685315.941   -11505554.17249  -8951082.22846  22685315.503    22685331.191
       222.000         168.000
  20295775.926    -8134111.06849  -6320900.35248  20295775.257    20295785.956
       246.000         214.000
  22351110.367     8857053.57649   6900982.39746  22351110.948    22351124.430
       231.000         181.000
  22777948.049   -11061015.64149  -8561670.28346  22777946.366    22777961.419
       225.000         170.000
  22472242.766     8160106.49149   6359224.66546  22472241.611    22472256.437
       225.000         178.000
  21830130.652    -9728748.64449  -7564153.04947  21830129.486    21830143.536
       237.000         196.000
 02  2 24  0 27 30.0000000  0  9G 5G15G23G26G 6G30G18G10G17
  24463570.614    14946310.00049  11635057.45445  24463570.263    24463593.845
       205.000         138.000
  22630190.903   -11776577.52549  -9159812.20546  22630190.145    22630205.354
       226.000         174.000
  20521502.642    -9772375.90549  -7597259.98348  20521501.650    20521512.681
       246.000         213.000
  22671401.846   -11578672.72749  -9008057.51846  22671401.475    22671416.965
       223.000         169.000
  20293060.787    -8148379.25849  -6332018.37548  20293060.187    20293070.776
       245.000         214.000
  22368601.311     8948968.42649   6972604.24846  22368601.589    22368615.650
       230.000         180.000
  22759921.023   -11155747.50949  -8635487.06246  22759919.486    22759934.662
       226.000         171.000
  22489444.065     8250500.34549   6429661.34946  22489443.192    22489458.176
       226.000         177.000
  21822400.691    -9769369.44549  -7595805.52047  21822399.787    21822413.168
       238.000         196.000
 02  2 24  0 28  0.0000000  0  9G 5G15G23G26G 6G30G18G10G17
  24483250.511    15049727.67749  11715642.27545  24483249.479    24483272.759
       205.000         138.000
  22618685.370   -11837038.71649  -9206924.63146  22618684.141    22618699.866
       226.000         174.000
  20519991.046    -9780319.12549  -7603449.45448  20519990.156    20520001.082
       246.000         213.000
  22657550.646   -11651460.41249  -9064774.99046  22657549.295    22657564.782
       222.000         169.000
  20290423.214    -8162239.50049  -6342818.52348  20290422.433    20290433.263
       244.000         214.000
  22386134.251     9041104.33849   7044398.33046  22386133.992    22386148.829
       229.000         180.000
  22741945.002   -11250211.34549  -8709094.97946  22741943.180    22741958.816
       226.000         171.000
  22506694.441     8341151.19149   6500298.27746  22506692.471    22506708.383
       225.000         177.000
  21814698.253    -9809846.22049  -7627345.77147  21814697.219    21814710.268
       237.000         196.000
 02  2 24  0 28 30.0000000  0  9G 5G15G23G26G 6G30G18G10G17
  24502920.006    15153091.28349  11796184.98845  24502920.211    24502941.454
       207.000         137.000
  22607207.753   -11897353.23449  -9253922.77346  22607205.987    22607221.526
       226.000         173.000
  20518576.205    -9787754.21049  -7609242.97748  20518575.286    20518586.169
       246.000         213.000
  22643763.131   -11723913.27849  -9121231.55446  22643762.080    22643778.556
       221.000         170.000
  20287863.648    -8175689.88749  -6353299.30948  20287863.075    20287873.694
       244.000         214.000
  22403708.816     9133458.76349   7116362.68846  22403709.205    22403722.768
       229.000         180.000
  22724020.414   -11344404.68849  -8782492.14646  22724019.339    22724032.920
       227.000         172.000
  22523993.130     8432056.68849   6571133.64146  22523991.995    22524007.133
       224.000         176.000
  21807023.098    -9850178.88049  -7658773.72447  21807022.263    21807035.074
       238.000         196.000
 02  2 24  0 29  0.0000000  0  9G 5G15G23G26G 6G30G18G10G17
  24522578.883    15256398.03349  11876683.37845  24522579.072    24522599.998
       206.000         137.000
  22595757.976   -11957521.39349  -9300806.86146  22595756.523    22595771.219
       227.000         172.000
  20517257.882    -9794681.93749  -7614641.15848  20517256.919    20517268.005
       246.000         213.000
  22630039.898   -11796028.19849  -9177424.78246  22630039.170    22630054.493
       221.000         170.000
  20285382.376    -8188729.00549  -6363459.62148  20285381.812    20285392.287
       244.000         214.000
  22421324.359     9226028.56849   7188494.86646  22421324.350    22421338.755
       229.000         180.000
  22706147.630   -11438325.84449  -8855677.21446  22706145.772    22706161.120
       227.000         172.000
  22541339.812     8523213.91249   6642165.14446  22541338.436    22541353.065
       224.000         175.000
  21799375.287    -9890368.11249  -7690089.91947  21799374.407    21799387.751
       237.000         196.000
 02  2 24  0 29 30.0000000  0  9G 5G15G23G26G 6G30G18G10G17
  24542226.331    15359645.20749  11957135.34245  24542225.911    24542249.434
       209.000         138.000
  22584335.975   -12017543.71249  -9347577.30246  22584335.240    22584350.173
       227.000         173.000
  20516035.917    -9801103.11249  -7619644.61548  20516035.144    20516045.989
       245.000         213.000
  22616381.549   -11867802.04849  -9233352.25646  22616380.086    22616396.428
       222.000         169.000
  20282979.582    -8201355.62949  -6373298.51348  20282979.006    20282989.545
       244.000         213.000
  22438980.238     9318810.46049   7260792.32146  22438981.047    22438994.698
       228.000         180.000
  22688326.919   -11531973.02249  -8928648.79546  22688325.779    22688339.747
       228.000         173.000
  22558733.869     8614619.79649   6713390.39946  22558733.024    22558747.742
       223.000         174.000
  21791754.730    -9930414.36449  -7721294.70847  21791753.653    21791766.694
       236.000         196.000
 02  2 24  0 30  0.0000000  0  9G 5G15G23G26G 6G30G18G10G17
  24561862.017    15462830.22149  12037538.85545  24561861.807    24561884.195
       208.000         138.000
  22572941.661   -12077420.50549  -9394234.34946  22572940.518    22572955.360
       227.000         173.000
  20514910.181    -9807018.47649  -7624253.93547  20514909.454    20514920.174
       245.000         212.000
  22602788.838   -11939231.59449  -9289011.42946  22602788.185    22602803.541
       222.000         170.000
  20280655.511    -8213568.34649  -6382814.87848  20280655.015    20280665.378
       244.000         213.000
  22456675.844     9411801.24649   7333252.53646  22456676.326    22456689.985
       228.000         179.000
  22670558.758   -11625344.54149  -9001405.56646  22670557.050    22670572.085
       229.000         174.000
  22576174.655     8706271.46349   6784807.18246  22576174.380    22576188.611
       223.000         174.000
  21784161.162    -9970318.23149  -7752388.54547  21784160.330    21784172.849
       236.000         196.000
 02  2 24  0 30 30.0000000  0  9G 5G15G23G26G 6G30G18G10G17
  24581485.549    15565950.94149  12117892.27845  24581486.221    24581508.881
       208.000         137.000
  22561575.086   -12137151.47649  -9440777.78346  22561573.498    22561589.506
       229.000         175.000
  20513880.665    -9812428.50149  -7628469.49147  20513879.906    20513890.417
       246.000         212.000
  22589262.327   -12010313.22449  -9344399.49146  22589261.130    22589276.638
       222.000         170.000
  20278410.553    -8225365.50749  -6392007.43648  20278409.989    20278420.380
       244.000         213.000
  22474410.711     9504998.11749   7405873.34946  22474410.939    22474425.247
       228.000         179.000
  22652843.498   -11718438.08549  -9073945.73246  22652841.834    22652856.546
       229.000         174.000
  22593661.640     8798166.28849   6856413.43746  22593660.584    22593675.508
       221.000         172.000
  21776594.705   -10010079.89149  -7783371.57547  21776593.298    21776606.810
       236.000         195.000
 02  2 24  0 31  0.0000000  0  9G 5G15G23G26G 6G30G18G10G17
  24601096.309    15669004.95949  12198193.73545  24601097.025    24601119.283
       209.000         136.000
  22550236.230   -12196736.89049  -9487207.76346  22550234.777    22550250.219
       229.000         177.000
  20512947.138    -9817333.86449  -7632291.79647  20512946.263    20512957.227
       245.000         212.000
  22575802.665   -12081043.55049  -9399513.82046  22575801.528    22575817.238
       221.000         170.000
  20276244.914    -8236745.77049  -6400875.13748  20276244.408    20276254.790
       244.000         213.000
  22492184.354     9598398.25049   7478652.54646  22492184.555    22492198.849
       229.000         178.000
  22635181.348   -11811252.16649  -9146268.15446  22635180.461    22635193.681
       230.000         175.000
  22611194.444     8890301.56249   6928207.06846  22611193.586    22611209.075
       222.000         172.000
  21769055.235   -10049699.53949  -7814243.94247  21769054.087    21769067.304
       236.000         195.000
 02  2 24  0 31 30.0000000  0  9G 5G15G23G26G 6G30G18G10G17
  24620693.947    15771989.87249  12278441.33245  24620694.278    24620718.705
       209.000         137.000
  22538924.972   -12256176.96749  -9533524.51646  22538923.638    22538938.450
       229.000         178.000
  20512109.603    -9821735.19649  -7635721.35247  20512108.733    20512119.587
       245.000         212.000
  22562410.404   -12151419.20949  -9454351.78446  22562409.859    22562425.036
       221.000         170.000
  20274158.899    -8247707.67749  -6409416.85348  20274158.302    20274168.941
       244.000         213.000
  22509996.023     9691998.44649   7551587.63146  22509995.704    22510010.625
       227.000         178.000
  22617572.807   -11903784.68449  -9218371.16346  22617571.701    22617585.431
       230.000         176.000
  22628772.516     8982674.53649   7000185.90146  22628771.977    22628786.884
       222.000         171.000
  21761542.750   -10089177.72849  -7845006.09547  21761541.858    21761554.462
       236.000         195.000
 02  2 24  0 32  0.0000000  0  9G 5G15G23G26G 6G30G18G10G17
  24640277.997    15874902.99749  12358632.96945  24640278.310    24640301.570
       209.000         138.000
  22527641.390   -12315472.08649  -9579728.29346  22527639.839    22527655.568
       228.000         178.000
  20511367.752    -9825633.44749  -7638758.89947  20511366.746    20511377.657
       245.000         212.000
  22549086.247   -12221437.12949  -9508910.99546  22549085.733    22549100.901
       224.000         170.000
  20272152.739    -8258249.80749  -6417631.46348  20272152.091    20272162.778
       244.000         213.000
  22527845.018     9785795.58049   7624676.17146  22527845.947    22527859.429
       227.000         177.000
  22600018.159   -11996033.96049  -9290253.47246  22600016.574    22600030.585
       230.000         176.000
  22646395.284     9075282.51149   7072347.85546  22646394.287    22646408.738
       221.000         170.000
  21754056.995   -10128514.89449  -7875658.34847  21754055.711    21754068.762
       236.000         194.000
 02  2 24  0 32 30.0000000  0 10G 5G15G23G26G 6G30G22G18G10G17
  24659847.904    15977741.83549  12438766.73345  24659848.282    24659870.173
       209.000         138.000
  22516385.262   -12374622.70549  -9625819.48746  22516383.292    22516398.869
       227.000         178.000
  20510721.426    -9829029.42249  -7641405.06647  20510720.544    20510731.293
       246.000         212.000
  22535830.845   -12291094.09949  -9563188.94246  22535829.840    22535845.030
       223.000         170.000
  20270226.772    -8268370.84449  -6425517.95148  20270226.194    20270236.900
       243.000         213.000
  22545730.982     9879786.44849   7697915.67146  22545731.085    22545744.860
       226.000         177.000
  24312168.659    -3429230.04949  -2477427.56245  24312166.258    24312190.516
       209.000         133.000
  22582517.827   -12087998.06849  -9361913.56746  22582516.819    22582529.962
       230.000         176.000
  22664062.186     9168122.22549   7144690.38746  22664061.507    22664075.495
       223.000         170.000
  21746598.005   -10167711.69249  -7906201.22847  21746596.604    21746609.820
       236.000         194.000
 02  2 24  0 33  0.0000000  0 10G 5G15G23G26G 6G30G22G18G10G17
  24679401.820    16080496.62349  12518834.98045  24679402.155    24679425.423
       207.000         138.000
  22505155.109   -12433636.25449  -9671803.86446  22505153.307    22505168.834
       226.000         177.000
  20510169.237    -9831931.05449  -7643666.02448  20510168.296    20510179.398
       245.000         213.000
  22522643.412   -12360393.87049  -9617188.56646  22522642.389    22522658.042
       221.000         171.000
  20268379.804    -8278076.60549  -6433080.84948  20268379.113    20268389.629
       243.000         213.000
  22563651.858     9973960.85249   7771298.19446  22563652.019    22563666.880
       227.000         176.000
  24300884.569    -3488526.39649  -2523632.25645  24300884.258    24300906.006
       208.000         133.000
  22565070.713   -12179682.20849  -9433355.50546  22565069.827    22565082.873
       230.000         176.000
  22681771.306     9261184.06549   7217205.99846  22681770.427    22681785.563
       223.000         170.000
  21739164.359   -10206775.51949  -7936640.48947  21739163.490    21739176.388
       236.000         195.000
 02  2 24  0 33 30.0000000  0 10G 5G15G23G26G 6G30G22G18G10G17
  24698941.470    16183176.28449  12598844.65945  24698942.478    24698964.792
       207.000         137.000
  22493953.255   -12492501.38149  -9717672.59446  22493951.112    22493967.248
       226.000         176.000
  20509713.125    -9834327.76749  -7645533.54248  20509712.102    20509723.033
       245.000         213.000
  22509526.654   -12429322.00349  -9670898.60046  22509525.720    22509540.662
       220.000         171.000
  20266614.207    -8287354.57749  -6440310.40948  20266613.665    20266624.088
       244.000         213.000
  22581609.319    10068327.12749   7844830.22046  22581609.557    22581624.014
       228.000         176.000
  24289686.226    -3547373.41849  -2569486.78845  24289684.551    24289703.284
       204.000         133.000
  22547679.270   -12271073.74249  -9504569.44846  22547677.817    22547690.747
       230.000         176.000
  22699524.388     9354476.32049   7289901.16746  22699523.957    22699538.935
       225.000         171.000
  21731758.070   -10245695.51949  -7966967.66947  21731757.058    21731769.638
       236.000         195.000
 02  2 24  0 34  0.0000000  0 10G 5G15G23G26G 6G30G22G18G10G17
  24718465.771    16285776.10749  12678792.16045  24718465.382    24718489.872
       206.000         136.000
  22482779.196   -12551220.61949  -9763427.64646  22482777.877    22482793.053
       226.000         177.000
  20509352.515    -9836222.74749  -7647010.10547  20509351.601    20509362.304
       246.000         212.000
  22496480.817   -12497877.43249  -9724318.22446  22496480.101    22496495.710
       223.000         171.000
  20264929.918    -8296205.60049  -6447207.27848  20264929.371    20264939.916
       244.000         213.000
  22599602.253    10162879.86049   7918507.54146  22599602.741    22599617.068
       227.000         177.000
  24278572.835    -3605771.61049  -2614991.59644  24278570.735    24278592.650
       201.000         130.000
  22530343.496   -12362172.86649  -9575555.53946  22530342.379    22530356.435
       229.000         176.000
  22717320.445     9447994.29349   7362772.22546  22717319.247    22717334.618
       224.000         171.000
  21724378.691   -10284474.14349  -7997184.69747  21724377.876    21724390.319
       238.000         196.000
 02  2 24  0 34 30.0000000  0 10G 5G15G23G26G 6G30G22G18G10G17
  24737974.544    16388293.39249  12758675.33745  24737975.276    24737999.721
       203.000         136.000
  22471632.710   -12609794.53749  -9809069.46946  22471631.803    22471646.397
       228.000         177.000
  20509087.216    -9837616.79449  -7648096.32548  20509086.405    20509097.163
       246.000         213.000
  22483506.394   -12566057.15149  -9777445.06746  22483505.263    22483521.095
       221.000         171.000
  20263327.114    -8304628.39449  -6453770.46348  20263326.501    20263336.951
       244.000         213.000
  22617629.994    10257615.81549   7992327.62346  22617630.280    22617644.315
       226.000         176.000
  24267545.303    -3663719.77549  -2660145.70844  24267544.459    24267566.987
       203.000         131.000
  22513063.672   -12452977.92449  -9646312.48946  22513062.161    22513076.130
       228.000         176.000
  22735158.851     9541734.78749   7435816.66446  22735158.307    22735172.882
       226.000         172.000
  21717026.059   -10323112.20449  -8027292.18747  21717024.986    21717037.902
       237.000         197.000
 02  2 24  0 35  0.0000000  0 10G 5G15G23G26G 6G30G22G18G10G17
  24757466.967    16490724.94249  12838491.67845  24757467.422    24757491.464
       205.000         135.000
  22460513.918   -12668223.97449  -9854598.71246  22460511.931    22460528.445
       228.000         178.000
  20508916.894    -9838511.67949  -7648793.58248  20508916.003    20508926.848
       246.000         213.000
  22470604.049   -12633858.59549  -9830277.16546  22470603.575    22470618.148
       223.000         171.000
  20261805.876    -8312622.30049  -6459999.44848  20261805.354    20261815.813
       245.000         213.000
  22635691.878    10352531.16049   8066287.48646  22635692.266    22635706.424
       226.000         176.000
  24256603.968    -3721216.86849  -2704948.32345  24256602.334    24256626.007
       203.000         134.000
  22495839.959   -12543488.14549  -9716839.69446  22495838.605    22495852.132
       229.000         176.000
  22753038.979     9635694.27249   7509031.76146  22753038.829    22753051.993
       225.000         172.000
  21709699.922   -10361610.99549  -8057291.15347  21709699.348    21709712.020
       238.000         197.000
 02  2 24  0 35 30.0000000  0 10G 5G15G23G26G 6G30G22G18G10G17
  24776942.599    16593068.30849  12918239.32445  24776943.289    24776967.326
       206.000         134.000
  22449422.404   -12726509.24449  -9900015.61446  22449421.379    22449436.516
       228.000         178.000
  20508841.385    -9838908.43149  -7649102.69548  20508840.515    20508851.077
       246.000         213.000
  22457774.315   -12701278.72249  -9882812.12846  22457773.507    22457788.447
       222.000         170.000
  20260366.470    -8320186.40549  -6465893.52748  20260365.871    20260376.412
       244.000         214.000
  22653787.283    10447622.57549   8140384.55646  22653787.349    22653802.068
       225.000         176.000
  24245748.452    -3778261.37549  -2749398.29445  24245745.260    24245768.447
       200.000         133.000
  22478672.667   -12633701.74949  -9787135.78046  22478671.350    22478684.738
       229.000         176.000
  22770960.117     9729869.90849   7582415.28046  22770960.002    22770973.418
       224.000         171.000
  21702400.334   -10399970.81349  -8087181.84147  21702399.461    21702411.963
       238.000         198.000
 02  2 24  0 36  0.0000000  0 10G 5G15G23G26G 6G30G22G18G10G17
  24796401.113    16695321.26749  12997916.52645  24796400.239    24796424.618
       208.000         134.000
  22438358.353   -12784650.64549  -9945320.40746  22438356.249    22438372.238
       227.000         178.000
  20508860.496    -9838807.85449  -7649024.27547  20508859.372    20508870.113
       245.000         212.000
  22445017.704   -12768314.27149  -9935047.41846  22445017.368    22445031.452
       222.000         170.000
  20259009.102    -8327319.26949  -6471451.57648  20259008.530    20259019.314
       244.000         214.000
  22671915.679    10542887.31849   8214616.67546  22671915.500    22671930.654
       226.000         176.000
  24234979.034    -3834851.74149  -2793494.39545  24234977.134    24235000.467
       200.000         134.000
  22461562.293   -12723616.65549  -9857199.11246  22461560.995    22461574.088
       230.000         177.000
  22788921.826     9824259.16449   7655965.24746  22788921.828    22788935.160
       225.000         171.000
  21695127.013   -10438191.95149  -8116964.45047  21695125.957    21695138.911
       237.000         198.000
 02  2 24  0 36 30.0000000  0  9G15G23G26G 6G30G22G18G10G17
  22427322.558   -12842643.34849  -9990509.34046  22427321.129    22427336.382
       229.000         178.000
  20508975.006    -9838205.71949  -7648555.03048  20508974.193    20508984.818
       246.000         213.000
  22432335.968   -12834956.78349  -9986976.45146  22432335.787    22432348.447
       224.000         171.000
  20257735.014    -8334014.35049  -6476668.49348  20257734.502    20257745.031
       245.000         214.000
  22690077.398    10638327.33049   8288985.37046  22690077.616    22690092.560
       225.000         175.000
  24224298.014    -3890981.11549  -2837231.25145  24224298.077    24224317.753
       203.000         137.000
  22444509.972   -12813226.38149  -9927024.65246  22444509.100    22444521.783
       228.000         177.000
  22806924.711     9918864.57449   7729683.65046  22806923.645    22806937.167
       224.000         171.000
  21687880.977   -10476269.75649  -8146635.37147  21687880.183    21687892.565
       238.000         198.000
 02  2 24  0 37  0.0000000  0  9G15G23G26G 6G30G22G18G10G17
  22416313.629   -12900494.95249 -10035588.33446  22416312.000    22416327.323
       229.000         178.000
  20509183.386    -9837110.59649  -7647701.64548  20509182.578    20509193.350
       246.000         213.000
  22419728.134   -12901210.81949 -10038602.78146  22419727.056    22419741.585
       223.000         171.000
  20256543.065    -8340278.07149  -6481549.29148  20256542.497    20256552.978
       244.000         214.000
  22708270.390    10733931.99449   8363482.36446  22708270.521    22708285.479
       224.000         174.000
  24213703.492    -3946655.81149  -2880613.79745  24213702.153    24213723.189
       204.000         141.000
  22427514.548   -12902536.75449  -9996616.93646  22427513.356    22427526.905
       229.000         177.000
  22824966.753    10013675.53349   7803562.21946  22824965.935    22824980.406
       225.000         170.000
  21680660.817   -10514212.21049  -8176200.83547  21680659.802    21680672.400
       237.000         198.000
 02  2 24  0 37 30.0000000  0  9G15G23G26G 6G30G22G18G10G17
  22405331.605   -12958204.97549 -10080556.99946  22405330.003    22405345.677
       229.000         179.000
  20509485.545    -9835522.60449  -7646464.20247  20509484.589    20509495.249
       245.000         212.000
  22407194.930   -12967072.13849 -10089923.10446  22407194.112    22407208.054
       221.000         172.000
  20255433.544    -8346108.35149  -6486092.33948  20255432.966    20255443.453
       244.000         214.000
  22726494.326    10829698.99049   8438105.84246  22726494.126    22726509.208
       224.000         174.000
  24203195.716    -4001873.29649  -2923640.11145  24203194.637    24203216.159
       204.000         144.000
  22410576.627   -12991545.07249 -10065973.85446  22410574.992    22410589.356
       229.000         178.000
  22843047.581    10108690.16949   7877599.51246  22843046.148    22843061.538
       224.000         171.000
  21673466.341   -10552018.84149  -8205660.45447  21673464.992    21673478.339
       237.000         198.000
 02  2 24  0 38  0.0000000  0  9G15G23G26G 6G30G22G18G10G17
  22394376.632   -13015772.99349 -10125415.02046  22394375.347    22394390.396
       229.000         179.000
  20509881.420    -9833441.95449  -7644842.87447  20509880.555    20509891.121
       246.000         212.000
  22394737.245   -13032536.88349 -10140934.39446  22394736.207    22394751.025
       222.000         172.000
  20254406.966    -8351503.22949  -6490296.11548  20254406.386    20254417.044
       244.000         214.000
  22744748.771    10925626.13649   8512854.12146  22744748.758    22744764.081
       225.000         174.000
  24192775.632    -4056631.38449  -2966308.43645  24192774.181    24192796.253
       205.000         147.000
  22393696.698   -13080248.84749 -10135093.47246  22393695.297    22393709.161
       229.000         179.000
  22861166.502    10203906.73349   7951794.14846  22861165.395    22861180.228
       224.000         170.000
  21666297.747   -10589689.30349  -8235013.96547  21666296.805    21666309.522
       236.000         197.000
 02  2 24  0 38 30.0000000  0  9G15G23G26G 6G30G22G18G10G17
  22383448.812   -13073198.75449 -10170162.21446  22383447.822    22383462.634
       231.000         180.000
  20510370.981    -9830869.18049  -7642838.07547  20510370.026    20510380.868
       245.000         212.000
  22382355.727   -13097601.59849 -10191633.95546  22382355.288    22382370.287
       223.000         173.000
  20253463.561    -8356461.00849  -6494159.29348  20253463.059    20253473.317
       245.000         214.000
  22763033.201    11021710.63849   8587724.99946  22763033.940    22763048.402
       224.000         173.000
  24182443.124    -4110928.07049  -3008617.21645  24182441.294    24182463.111
       207.000         148.000
  22376875.123   -13168645.88449 -10203974.07546  22376873.673    22376887.141
       230.000         179.000
  22879323.571    10299322.57149   8026144.05446  22879323.464    22879338.009
       225.000         170.000
  21659155.163   -10627223.54949  -8264261.33947  21659153.830    21659166.859
       236.000         197.000
 02  2 24  0 39  0.0000000  0  9G15G23G26G 6G30G22G18G10G17
  22372547.963   -13130482.59849 -10214798.81346  22372546.468    22372561.509
       229.000         181.000
  20510953.896    -9827805.57349  -7640450.80547  20510952.823    20510963.779
       245.000         212.000
  22370050.781   -13162263.28849 -10242019.49146  22370050.276    22370064.795
       223.000         173.000
  20252603.518    -8360980.45449  -6497680.91748  20252603.045    20252613.320
       245.000         214.000
  22781347.027    11117949.41349   8662716.10546  22781347.002    22781362.517
       225.000         173.000
  24172198.731    -4164762.02749  -3050565.45845  24172197.056    24172218.150
       210.000         150.000
  22360112.173   -13256734.80949 -10272614.60046  22360110.927    22360124.110
       230.000         179.000
  22897518.299    10394934.95449   8100647.10546  22897517.329    22897532.901
       224.000         170.000
  21652038.276   -10664622.21549  -8293403.06447  21652037.267    21652049.726
       236.000         196.000
 02  2 24  0 39 30.0000000  0  9G15G23G26G 6G30G22G18G10G17
  22361673.994   -13187624.73949 -10259324.99446  22361672.936    22361687.430
       230.000         181.000
  20511630.048    -9824252.15749  -7637681.87247  20511629.364    20511639.732
       246.000         212.000
  22357823.344   -13226518.63949 -10292088.38946  22357822.162    22357836.832
       224.000         174.000
  20251827.157    -8365060.30549  -6500859.99148  20251826.822    20251837.095
       245.000         214.000
  22799689.544    11214339.35049   8737824.98946  22799689.893    22799704.688
       224.000         173.000
  24162042.864    -4218131.92149  -3092152.08145  24162040.927    24162062.331
       209.000         152.000
  22343408.172   -13344513.78549 -10341013.60546  22343406.522    22343420.078
       231.000         180.000
  22915749.828    10490741.28349   8175301.27846  22915749.117    22915763.272
       222.000         170.000
  21644947.202   -10701885.54749  -8322439.33747  21644946.335    21644958.599
       237.000         196.000
 02  2 24  0 40  0.0000000  0  9G15G23G26G 6G30G22G18G10G17
  22350827.229   -13244624.66649 -10303740.36446  22350825.695    22350840.399
       230.000         181.000
  20512399.412    -9820209.13749  -7634531.43447  20512398.272    20512409.217
       245.000         212.000
  22345673.848   -13290363.91549 -10341837.75246  22345673.102    22345688.002
       224.000         174.000
  20251134.775    -8368698.77249  -6503695.13548  20251134.241    20251144.631
       245.000         214.000
  22818060.330    11310878.03149   8813049.78146  22818060.425    22818075.741
       225.000         172.000
  24151975.238    -4271035.48249  -3133375.36045  24151973.147    24151994.680
       209.000         152.000
  22326763.674   -13431980.59149 -10409169.35646  22326762.374    22326775.652
       230.000         181.000
  22934017.738    10586739.53349   8250104.99946  22934017.420    22934031.998
       223.000         169.000
  21637882.040   -10739013.17449  -8351369.86147  21637880.827    21637893.695
       237.000         197.000
 02  2 24  0 40 30.0000000  0  9G15G23G26G 6G30G22G18G10G17
  22340007.305   -13301482.51049 -10348045.01946  22340005.586    22340020.369
       229.000         180.000
  20513261.744    -9815677.37949  -7631000.15647  20513260.835    20513271.658
       244.000         212.000
  22333603.050   -13353795.70749 -10391264.92546  22333602.888    22333616.514
       226.000         175.000
  20250526.640    -8371894.47749  -6506185.26848  20250526.053    20250536.224
       245.000         214.000
  22836458.902    11407562.58949   8888388.23146  22836458.988    22836474.179
       224.000         171.000
  24141996.965    -4323471.10949  -3174234.00545  24141995.934    24142016.882
       214.000         154.000
  22310178.874   -13519133.43449 -10477080.46546  22310178.095    22310190.648
       231.000         182.000
  22952321.468    10682927.13949   8325056.28446  22952320.289    22952336.144
       220.000         168.000
  21630842.570   -10776005.35949  -8380194.85447  21630841.430    21630854.432
       237.000         197.000
 02  2 24  0 41  0.0000000  0  9G15G23G26G 6G30G22G18G10G17
  22329214.442   -13358198.99549 -10392239.53046  22329213.087    22329227.881
       231.000         181.000
  20514216.740    -9810658.55649  -7627089.34547  20514215.884    20514226.374
       245.000         212.000
  22321611.510   -13416811.51149 -10440367.94646  22321611.010    22321625.223
       225.000         175.000
  20250002.924    -8374646.72749  -6508329.84948  20250002.315    20250012.472
       245.000         213.000
  22854884.604    11504389.79049   8963837.85046  22854885.012    22854898.989
       225.000         171.000
  24132107.995    -4375437.75249  -3214727.19845  24132106.320    24132127.006
       213.000         155.000
  22293654.155   -13605970.74549 -10544745.71046  22293652.785    22293665.724
       232.000         183.000
  22970660.824    10779301.16549   8400152.83346  22970659.973    22970674.199
       222.000         167.000
  21623828.780   -10812862.92149  -8408914.95847  21623827.995    21623840.407
       237.000         197.000
 02  2 24  0 41 30.0000000  0  9G15G23G26G 6G30G22G18G10G17
  22318448.517   -13414773.89349 -10436323.71246  22318447.450    22318461.565
       229.000         180.000
  20515264.304    -9805153.62049  -7622799.75347  20515263.599    20515274.046
       245.000         212.000
  22309699.616   -13479408.00549 -10489144.23146  22309698.727    22309712.681
       226.000         175.000
  20249563.826    -8376954.08549  -6510127.76348  20249563.059    20249573.634
       244.000         213.000
  22873336.869    11601356.41149   9039396.09746  22873337.358    22873351.510
       224.000         170.000
  24122308.424    -4426934.09849  -3254853.94945  24122307.394    24122327.204
       214.000         155.000
  22277189.771   -13692490.93749 -10612163.84246  22277187.914    22277201.554
       232.000         183.000
  22989035.432    10875858.86449   8475392.48946  22989034.852    22989049.732
       223.000         168.000
  21616840.563   -10849585.95749  -8437530.23247  21616839.713    21616851.987
       238.000         197.000
 02  2 24  0 42  0.0000000  0  9G15G23G26G 6G30G22G18G10G17
  22307709.359   -13471207.70549 -10480297.96946  22307708.405    22307722.601
       230.000         180.000
  20516404.099    -9799163.80749  -7618132.33447  20516403.140    20516413.829
       245.000         212.000
  22297868.196   -13541582.20549 -10537591.46946  22297867.028    22297880.647
       225.000         175.000
  20249209.538    -8378815.60149  -6511578.27248  20249209.004    20249219.230
       244.000         213.000
  22891814.955    11698459.34449   9115060.55246  22891814.706    22891830.107
       223.000         170.000
  24112598.644    -4477958.77349  -3294613.14345  24112596.097    24112618.033
       212.000         154.000
  22260786.026   -13778692.49949 -10679333.70846  22260785.279    22260797.731
       232.000         184.000
  23007444.423    10972597.32949   8550773.01146  23007443.908    23007458.546
       221.000         167.000
  21609877.872   -10886175.18149  -8466041.23847  21609876.884    21609889.722
       238.000         198.000
 02  2 24  0 42 30.0000000  0  9G15G23G26G 6G30G22G18G10G17
  22296997.106   -13527500.63949 -10524162.44246  22296995.801    22297010.265
       230.000         181.000
  20517636.013    -9792689.97449  -7613087.74947  20517635.137    20517645.968
       245.000         212.000
  22286117.581   -13603330.92349 -10585707.15746  22286115.853    22286131.247
       223.000         175.000
  20248940.331    -8380229.95749  -6512680.33748  20248939.611    20248949.909
       244.000         213.000
  22910318.469    11795695.86449   9190829.11046  22910318.976    22910333.423
       224.000         169.000
  24102978.745    -4528510.14849  -3334003.55945  24102976.567    24102996.355
       212.000         151.000
  22244443.236   -13864573.77949 -10746253.98446  22244442.153    22244454.841
       232.000         184.000
  23025887.243    11069514.30649   8626292.61746  23025886.031    23025900.960
       221.000         166.000
  21602940.537   -10922630.58149  -8494447.96347  21602939.266    21602951.518
       238.000         198.000
 02  2 24  0 43  0.0000000  0  9G15G23G26G 6G30G22G18G10G17
  22286311.619   -13583652.19849 -10567916.75746  22286310.448    22286324.733
       231.000         181.000
  20518959.963    -9785732.52249  -7607666.32747  20518958.990    20518969.523
       245.000         212.000
  22274448.637   -13664650.37749 -10633488.36746  22274448.080    22274461.714
       224.000         174.000
  20248756.571    -8381195.45649  -6513432.64748  20248755.988    20248766.412
       244.000         213.000
  22928847.043    11893063.56349   9266699.89146  22928847.469    22928862.715
       224.000         168.000
  24093449.282    -4578586.32949  -3373023.67045  24093447.333    24093468.004
       211.000         148.000
  22228161.908   -13950131.99749 -10812922.53946  22228160.755    22228173.032
       232.000         183.000
  23044363.564    11166607.60249   8701949.63146  23044361.820    23044376.864
       221.000         166.000
  21596028.745   -10958951.80749  -8522750.14747  21596027.671    21596039.842
       238.000         198.000
 02  2 24  0 43 30.0000000  0  9G15G23G26G 6G30G22G18G10G17
  22275653.116   -13639662.89549 -10611561.30746  22275652.167    22275666.194
       231.000         181.000
  20520375.645    -9778292.98249  -7601869.24947  20520374.550    20520385.183
       245.000         212.000
  22262861.909   -13725537.80049 -10680932.92346  22262861.252    22262874.709
       225.000         174.000
  20248658.428    -8381711.07549  -6513834.40448  20248657.836    20248668.234
       244.000         213.000
  22947400.024    11990559.09149   9342670.27346  22947400.215    22947416.817
       224.000         169.000
  24084010.580    -4628186.23649  -3411672.67345  24084008.368    24084029.892
       210.000         147.000
  22211942.225   -14035366.25349 -10879338.64846  22211941.053    22211953.559
       232.000         183.000
  23062872.626    11263874.32349   8777741.77346  23062871.127    23062886.278
       219.000         166.000
  21589142.349   -10995139.64149  -8550948.38847  21589141.169    21589153.695
       238.000         197.000
 02  2 24  0 44  0.0000000  0  9G15G23G26G 6G30G22G18G10G17
  22265021.287   -13695532.78049 -10655096.12946  22265019.578    22265034.223
       231.000         181.000
  20521882.758    -9770372.73549  -7595697.59747  20521881.937    20521892.528
       246.000         212.000
  22251358.009   -13785990.15149 -10728038.46346  22251357.885    22251371.497
       227.000         175.000
  20248646.074    -8381775.80149  -6513884.81948  20248645.514    20248655.697
       244.000         213.000
  22965976.690    12088179.35249   9418737.84146  22965977.934    22965992.370
       226.000         168.000
  24074662.491    -4677308.57549  -3449949.54545  24074659.430    24074681.530
       207.000         142.000
  22195784.472   -14120274.90549 -10945501.05346  22195783.439    22195795.747
       233.000         184.000
  23081414.392    11361312.10749   8853667.22146  23081413.290    23081427.514
       222.000         165.000
  21582281.330   -11031194.22149  -8579042.79047  21582280.088    21582292.323
       237.000         197.000
 02  2 24  0 44 30.0000000  0  9G15G23G26G 6G30G22G18G10G17
  22254416.184   -13751262.37449 -10698521.64146  22254414.509    22254429.201
       231.000         181.000
  20523481.132    -9761973.14549  -7589152.42847  20523480.190    20523490.845
       245.000         212.000
  22239937.563   -13846004.68549 -10774802.84346  22239937.712    22239950.551
       226.000         176.000
  20248719.659    -8381388.91449  -6513583.31748  20248719.173    20248729.510
       244.000         213.000
  22984576.470    12185921.03349   9494900.02646  22984577.388    22984592.590
       224.000         168.000
  24065405.481    -4725952.50449  -3487853.64445  24065404.087    24065422.912
       208.000         139.000
  22179688.968   -14204856.53549 -11011408.62846  22179687.672    22179700.751
       234.000         184.000
  23099988.329    11458917.75349   8929723.48646  23099987.142    23100002.920
       222.000         165.000
  21575445.497   -11067116.46649  -8607034.08147  21575444.790    21575456.661
       237.000         197.000
 02  2 24  0 45  0.0000000  0  9G15G23G26G 6G30G22G18G10G17
  22243837.697   -13806852.12549 -10741838.17546  22243836.213    22243850.743
       230.000         181.000
  20525170.417    -9753095.69149  -7582234.89447  20525169.401    20525180.074
       244.000         212.000
  22228600.917   -13905578.76349 -10821224.01646  22228600.580    22228613.918
       227.000         177.000
  20248879.341    -8380549.70449  -6512929.36148  20248878.693    20248889.120
       244.000         213.000
  23003198.769    12283780.81349   9571154.25446  23003199.326    23003214.879
       223.000         167.000
  24056240.054    -4774116.97449  -3525384.11045  24056236.734    24056259.306
       207.000         137.000
  22163655.966   -14289109.99449 -11077060.49246  22163655.071    22163667.081
       233.000         185.000
  23118593.520    11556688.50149   9005908.35046  23118592.382    23118607.545
       220.000         165.000
  21568634.835   -11102906.84349  -8634922.62247  21568633.955    21568645.965
       237.000         197.000
 02  2 24  0 45 30.0000000  0  9G15G23G26G 6G30G22G18G10G17
  22233285.861   -13862301.80549 -10785045.56646  22233284.358    22233298.472
       231.000         182.000
  20526950.508    -9743741.10149  -7574945.57047  20526949.748    20526960.177
       245.000         212.000
  22217348.755   -13964708.83149 -10867299.20446  22217347.900    22217362.174
       226.000         178.000
  20249125.385    -8379256.49049  -6511921.63748  20249124.733    20249135.342
       244.000         213.000
  23021843.065    12381756.22949   9647498.55246  23021843.000    23021859.138
       224.000         167.000
  24047165.601    -4821800.02049  -3562539.49445  24047161.656    24047183.171
       206.000         135.000
  22147685.757   -14373033.15449 -11142454.97446  22147684.917    22147697.772
       233.000         185.000
  23137229.878    11654621.95649   9082220.04746  23137229.699    23137244.053
       223.000         165.000
  21561849.171   -11138565.08949  -8662708.19147  21561848.153    21561860.606
       237.000         197.000
 02  2 24  0 46  0.0000000  0  9G15G23G26G 6G30G22G18G10G17
  22222760.609   -13917611.68449 -10828144.01746  22222758.734    22222774.118
       230.000         181.000
  20528821.140    -9733910.76049  -7567285.53247  20528820.333    20528830.762
       245.000         212.000
  22206181.600   -14023391.98649 -10913026.15246  22206180.601    22206194.031
       226.000         178.000
  20249458.065    -8377508.26149  -6510559.35548  20249457.472    20249467.761
       244.000         213.000
  23040508.740    12479844.24349   9723930.59946  23040508.978    23040524.190
       223.000         166.000
  24038183.399    -4869000.68049  -3599318.95345  24038180.114    24038201.870
       208.000         135.000
  22131778.739   -14456624.49849 -11207590.90146  22131777.959    22131790.597
       234.000         185.000
  23155896.803    11752715.30849   9158656.33346  23155895.527    23155910.814
       222.000         165.000
  21555088.580   -11174091.74749  -8690391.22847  21555087.384    21555099.888
       237.000         197.000
 02  2 24  0 46 30.0000000  0  9G15G23G26G 6G30G22G18G10G17
  22212261.915   -13972782.04349 -10871133.75446  22212260.692    22212274.266
       230.000         181.000
  20530782.095    -9723605.80449  -7559255.65747  20530781.186    20530791.959
       245.000         212.000
  22195100.003   -14081625.23449 -10958402.51046  22195098.803    22195112.645
       226.000         177.000
  20249877.522    -8375304.04649  -6508841.75748  20249876.942    20249887.345
       244.000         213.000
  23059195.170    12578041.63349   9800447.88746  23059195.191    23059211.019
       222.000         165.000
  24029293.205    -4915717.66849  -3635721.55545  24029291.238    24029311.895
       211.000         138.000
  22115935.155   -14539882.39749 -11272467.00046  22115934.017    22115946.167
       233.000         185.000
  23174593.544    11850966.33549   9235215.46346  23174592.144    23174607.752
       220.000         165.000
  21548353.084   -11209486.90749  -8717971.80447  21548352.156    21548364.340
       237.000         198.000
 02  2 24  0 47  0.0000000  0  9G15G23G26G 6G30G22G18G10G17
  22201789.838   -14027812.32549 -10914014.32546  22201787.532    22201802.992
       229.000         181.000
  20532833.186    -9712826.93049  -7550856.49747  20532832.156    20532842.803
       244.000         212.000
  22184104.655   -14139404.99749 -11003425.51146  22184104.004    22184117.141
       227.000         177.000
  20250384.024    -8372642.19949  -6506767.56448  20250383.531    20250393.829
       244.000         213.000
  23077902.045    12676346.09349   9877048.60246  23077902.151    23077918.150
       221.000         165.000
  24020495.641    -4961949.21049  -3671745.88345  24020495.747    24020514.337
       215.000         143.000
  22100155.353   -14622804.98549 -11337081.81546  22100154.981    22100165.844
       235.000         185.000
  23193319.776    11949373.13949   9311895.98346  23193319.309    23193334.131
       220.000         165.000
  21541642.521   -11244750.48449  -8745449.83847  21541641.332    21541653.975
       237.000         198.000
 02  2 24  0 47 30.0000000  0  9G15G23G26G 6G30G22G18G10G17
  22191344.208   -14082703.40949 -10956786.43546  22191342.763    22191357.241
       229.000         181.000
  20534974.081    -9701576.13249  -7542089.60247  20534973.094    20534983.646
       244.000         211.000
  22173196.170   -14196729.01749 -11048093.40446  22173195.516    22173208.693
       228.000         178.000
  20250977.698    -8369522.38149  -6504336.50848  20250977.150    20250987.548
       244.000         213.000
  23096628.572    12774754.14049   9953730.01946  23096629.556    23096644.685
       221.000         164.000
  24011790.438    -5007694.74149  -3707391.49545  24011787.855    24011807.981
       214.000         146.000
  22084439.678   -14705391.02949 -11401434.40346  22084438.751    22084450.234
       235.000         185.000
  23212074.799    12047932.33149   9388695.26146  23212072.377    23212087.842
       218.000         163.000
  21534956.899   -11279883.25849  -8772825.95047  21534956.020    21534968.362
       238.000         199.000
 02  2 24  0 48  0.0000000  0  9G15G23G26G 6G30G22G18G10G17
  22180925.166   -14137455.03549 -10999449.87246  22180923.926    22180938.382
       230.000         181.000
  20537204.676    -9689854.05449  -7532955.47347  20537203.760    20537214.487
       244.000         211.000
  22162375.049   -14253593.63549 -11092403.31546  22162374.777    22162388.071
       228.000         178.000
  20251658.804    -8365942.98749  -6501547.33948  20251658.159    20251668.452
       243.000         213.000
  23115374.199    12873263.19849  10030490.15146  23115374.739    23115390.498
       220.000         164.000
  24003177.871    -5052952.37049  -3742656.92945  24003177.516    24003196.554
       218.000         150.000
  22068788.403   -14787638.42449 -11465523.10546  22068787.276    22068799.832
       235.000         186.000
  23230858.397    12146641.84349   9465611.66246  23230857.972    23230872.202
       220.000         163.000
  21528296.277   -11314885.03449  -8800099.99147  21528295.231    21528307.847
       237.000         199.000
 02  2 24  0 48 30.0000000  0  9G15G23G26G 6G30G22G18G10G17
  22170532.537   -14192067.71349 -11042005.02446  22170530.751    22170545.779
       230.000         181.000
  20539524.581    -9677662.47449  -7523455.50147  20539523.614    20539534.242
       243.000         211.000
  22151641.844   -14309996.51749 -11136353.44346  22151640.978    22151654.502
       228.000         178.000
  20252427.448    -8361903.55349  -6498399.70447  20252426.887    20252437.145
       244.000         212.000
  23134138.531    12971869.77949  10107326.26546  23134139.229    23134154.136
       221.000         164.000
  23994658.817    -5097721.59749  -3777541.77145  23994657.055    23994677.874
       218.000         154.000
  22053201.691   -14869546.34349 -11529347.28046  22053200.707    22053213.125
       236.000         186.000
  23249670.278    12245498.58249   9542642.77946  23249669.829    23249683.857
       221.000         164.000
  21521660.265   -11349756.64049  -8827272.59347  21521659.085    21521672.218
       237.000         199.000
 02  2 24  0 49  0.0000000  0  9G15G23G26G 6G30G22G18G10G17
  22160166.261   -14246541.95649 -11084452.32546  22160164.977    22160178.960
       230.000         181.000
  20541933.608    -9665002.80949  -7513590.78447  20541932.776    20541943.118
       244.000         211.000
  22140996.988   -14365934.94849 -11179941.64646  22140996.487    22141009.485
       227.000         178.000
  20253283.829    -8357403.12149  -6494892.84047  20253283.304    20253293.620
       244.000         212.000
  23152920.821    13070571.00749  10184236.13746  23152921.406    23152936.026
       222.000         163.000
  23986232.529    -5142001.39949  -3812045.27445  23986229.919    23986251.391
       216.000         156.000
  22037679.886   -14951113.39149 -11592905.83946  22037678.742    22037690.864
       235.000         186.000
  23268509.787    12344500.01049   9619786.65046  23268509.686    23268523.860
       220.000         163.000
  21515049.051   -11384498.38749  -8854344.00547  21515048.122    21515060.982
       238.000         200.000
 02  2 24  0 49 30.0000000  0  9G15G23G26G 6G30G22G18G10G17
  22149826.490   -14300877.07349 -11126791.21446  22149824.895    22149839.671
       231.000         181.000
  20544431.514    -9651876.05749  -7503362.10547  20544430.677    20544441.286
       244.000         211.000
  22130441.126   -14421405.49349 -11223165.27046  22130440.285    22130453.652
       227.000         178.000
  20254228.169    -8352440.33049  -6491025.70447  20254227.320    20254237.983
       243.000         212.000
  23171720.600    13169364.11749  10261217.60546  23171721.241    23171736.611
       220.000         163.000
  23977899.391    -5185790.11149  -3846166.09945  23977897.847    23977917.318
       218.000         157.000
  22022223.345   -15032337.47949 -11656197.15846  22022222.313    22022234.116
       236.000         187.000
  23287376.331    12443643.94049   9697041.55646  23287376.075    23287390.333
       221.000         163.000
  21508462.673   -11419110.09249  -8881314.08247  21508461.802    21508474.547
       238.000         201.000
 02  2 24  0 50  0.0000000  0  9G15G23G26G 6G30G22G18G10G17
  22139513.150   -14355073.58349 -11169022.10346  22139512.215    22139526.611
       232.000         183.000
  20547018.068    -9638283.46149  -7492770.43447  20547017.196    20547027.808
       244.000         211.000
  22119974.829   -14476405.30849 -11266022.09046  22119973.871    22119987.567
       228.000         179.000
  20255260.659    -8347014.31449  -6486797.61347  20255260.345    20255270.229
       244.000         212.000
  23190537.373    13268246.07149  10338268.28346  23190537.325    23190553.363
       221.000         163.000
  23969660.189    -5229086.93449  -3879903.63445  23969657.991    23969678.937
       218.000         158.000
  22006832.358   -15113217.16949 -11719220.12646  22006831.508    22006843.096
       236.000         187.000
  23306269.574    12542927.64149   9774405.37346  23306268.756    23306284.562
       221.000         163.000
  21501900.939   -11453592.13149  -8908183.13147  21501899.824    21501912.466
       239.000         201.000
 02  2 24  0 50 30.0000000  0  9G15G23G26G 6G30G22G18G10G17
  22129226.208   -14409131.85249 -11211145.28246  22129224.836    22129238.141
       232.000         183.000
  20549692.957    -9624226.77949  -7481817.13647  20549692.124    20549702.646
       244.000         211.000
  22109598.618   -14530931.79749 -11308510.09846  22109597.694    22109610.936
       227.000         179.000
  20256381.478    -8341124.35849  -6482208.00247  20256380.849    20256391.180
       243.000         212.000
  23209370.569    13367213.77349  10415385.80046  23209371.157    23209386.213
       221.000         163.000
  23961514.663    -5271890.80149  -3913257.07045  23961513.290    23961532.466
       219.000         159.000
  21991506.985   -15193751.68149 -11781974.12146  21991505.697    21991517.976
       236.000         187.000
  23325188.651    12642348.43649   9851876.01446  23325188.148    23325204.534
       218.000         163.000
  21495363.774   -11487945.06649  -8934951.57147  21495362.940    21495374.894
       239.000         201.000
 02  2 24  0 51  0.0000000  0  9G15G23G26G 6G30G22G18G10G17
  22118965.494   -14463051.53149 -11253160.46646  22118964.649    22118977.648
       234.000         184.000
  20552455.985    -9609706.92749  -7470502.92747  20552455.131    20552465.607
       244.000         211.000
  22099313.162   -14584981.65049 -11350626.68746  22099311.995    22099325.925
       230.000         180.000
  20257590.817    -8334768.94849  -6477255.71147  20257590.482    20257600.711
       244.000         212.000
  23228219.588    13466264.72149  10492568.18445  23228220.338    23228235.806
       221.000         162.000
  23953463.260    -5314200.19849  -3946225.18745  23953461.704    23953480.661
       217.000         157.000
  21976247.806   -15273938.50549 -11844457.18947  21976246.651    21976258.698
       236.000         188.000
  23344133.518    12741904.46149   9929452.04645  23344132.393    23344148.890
       220.000         162.000
  21488851.254   -11522168.53849  -8961619.13047  21488850.129    21488862.588
       238.000         201.000
 02  2 24  0 51 30.0000000  0  9G15G23G26G 6G30G22G18G10G17
  22108731.109   -14516833.50149 -11295068.34546  22108729.645    22108743.480
       231.000         184.000
  20555306.738    -9594725.89549  -7458829.36047  20555305.858    20555316.377
       244.000         211.000
  22089118.820   -14638552.66649 -11392370.17546  22089118.272    22089131.076
       229.000         179.000
  20258888.825    -8327947.84749  -6471940.53747  20258888.343    20258898.610
       243.000         212.000
  23247083.677    13565395.27149  10569812.57245  23247085.378    23247099.312
       220.000         162.000
  23945505.951    -5356014.76049  -3978807.73845  23945503.653    23945523.633
       216.000         156.000
  21961054.980   -15353776.60449 -11906668.52747  21961053.739    21961065.537
       236.000         188.000
  23363103.548    12841592.46649  10007130.91245  23363102.810    23363119.215
       219.000         162.000
  21482363.148   -11556263.40349  -8988186.47847  21482361.960    21482374.515
       238.000         201.000
 02  2 24  0 52  0.0000000  0  9G15G23G26G 6G30G22G18G10G17
  22098522.777   -14570477.47149 -11336868.69546  22098521.022    22098535.343
       232.000         184.000
  20558245.083    -9579284.53849  -7446797.10047  20558244.184    20558254.741
       243.000         211.000
  22079016.288   -14691641.46849 -11433737.90746  22079015.296    22079029.442
       229.000         180.000
  20260275.740    -8320659.73249  -6466261.45647  20260275.333    20260285.254
       244.000         212.000
  23265962.565    13664603.02949  10647117.13546  23265963.609    23265979.384
       222.000         163.000
  23937643.217    -5397332.92949  -4011003.49145  23937640.666    23937661.487
       215.000         153.000
  21945928.792   -15433264.27449 -11968606.80747  21945927.501    21945939.892
       236.000         189.000
  23382098.408    12941410.48549  10084911.07445  23382097.361    23382113.551
       220.000         162.000
  21475899.532   -11590229.56449  -9014653.54147  21475898.465    21475910.643
       238.000         200.000
 02  2 24  0 52 30.0000000  0  9G15G23G26G 6G30G22G18G10G17
  22088340.747   -14623983.96449 -11378561.92846  22088338.901    22088353.458
       231.000         183.000
  20561270.685    -9563384.77549  -7434407.64347  20561269.779    20561280.317
       244.000         211.000
  22069005.962   -14744245.44849 -11474727.86146  22069005.525    22069018.551
       229.000         180.000
  20261751.520    -8312904.10349  -6460218.08547  20261751.002    20261761.120
       243.000         212.000
  23284855.441    13763884.70949  10724479.29446  23284855.960    23284872.513
       221.000         163.000
  23929874.838    -5438154.08349  -4042811.97945  23929872.324    23929892.820
       212.000         150.000
  21930869.468   -15512400.74349 -12030271.42647  21930868.745    21930879.920
       236.000         189.000
  23401117.533    13041355.75049  10162790.39245  23401117.034    23401133.411
       220.000         162.000
  21469460.342   -11624067.45349  -9041020.64347  21469459.462    21469470.935
       239.000         200.000
 02  2 24  0 53  0.0000000  0  9G15G23G26G 6G30G22G18G10G17
  22078184.854   -14677352.67749 -11420147.79446  22078183.162    22078197.618
       230.000         183.000
  20564383.321    -9547027.64249  -7421661.79147  20564382.344    20564393.013
       244.000         211.000
  22059088.397   -14796361.85749 -11515337.88446  22059087.581    22059100.459
       230.000         180.000
  20263316.569    -8304679.85649  -6453809.55648  20263316.098    20263326.409
       244.000         213.000
  23303761.780    13863237.58649  10801896.93846  23303762.041    23303777.990
       221.000         163.000
  23922201.636    -5478476.86149  -4074232.09845  23922199.556    23922219.687
       213.000         148.000
  21915877.358   -15591184.20549 -12091660.96847  21915876.394    21915888.099
       235.000         190.000
  23420160.407    13141425.76549  10240766.91745  23420159.791    23420174.826
       219.000         160.000
  21463045.568   -11657777.04849  -9067287.78047  21463044.503    21463056.365
       238.000         199.000
 02  2 24  0 53 30.0000000  0  9G15G23G26G 6G30G22G18G10G17
  22068055.179   -14730583.67249 -11461626.35146  22068053.804    22068067.679
       232.000         183.000
  20567582.707    -9530214.59849  -7408560.68847  20567581.789    20567592.179
       244.000         211.000
  22049264.140   -14847987.89449 -11555565.80146  22049263.443    22049276.550
       230.000         181.000
  20264970.927    -8295986.25849  -6447035.29647  20264970.293    20264980.403
       244.000         212.000
  23322681.125    13962658.61249  10879367.68645  23322681.434    23322697.815
       221.000         161.000
  23914623.252    -5518300.59149  -4105263.37545  23914620.263    23914640.564
       206.000         144.000
  21900952.618   -15669613.24949 -12152774.34547  21900951.317    21900963.372
       236.000         190.000
  23439226.562    13241618.05749  10318838.72845  23439226.321    23439241.222
       219.000         160.000
  21456655.020   -11691358.75949  -9093455.26247  21456653.708    21456665.945
       237.000         199.000
 02  2 24  0 54  0.0000000  0 10G15G21G23G26G 6G30G22G18G10G17
  22057951.797   -14783676.91349 -11502997.58646  22057950.169    22057964.100
       230.000         183.000
  24853828.291     -992819.70249   -752276.28545  24853825.305    24853850.665
       203.000         133.000
  20570868.647    -9512946.88749  -7395105.30047  20570867.904    20570878.220
       244.000         211.000
  22039533.715   -14899120.58949 -11595409.29646  22039532.959    22039545.409
       230.000         181.000
  20266714.746    -8286822.16649  -6439894.42047  20266714.156    20266724.376
       244.000         212.000
  23341612.874    14062145.17449  10956889.49545  23341613.357    23341629.769
       219.000         160.000
  23907139.657    -5557623.90349  -4135904.72345  23907136.634    23907155.612
       202.000         138.000
  21886095.689   -15747686.33449 -12213610.35047  21886094.682    21886106.410
       237.000         190.000
  23458315.632    13341930.75749  10397004.36445  23458314.887    23458330.018
       221.000         160.000
  21450288.860   -11724812.53449  -9119523.06147  21450287.765    21450300.432
       237.000         199.000
 02  2 24  0 54 30.0000000  0 10G15G21G23G26G 6G30G22G18G10G17
  22047872.891   -14836640.66849 -11544267.92546  22047871.296    22047885.519
       231.000         182.000
  24836417.517    -1084310.99749   -823567.71145  24836415.337    24836440.370
       205.000         134.000
  20574239.273    -9495234.03049  -7381303.04347  20574238.291    20574248.896
       243.000         211.000
  22029896.249   -14949765.00549 -11634872.32546  22029895.621    22029908.845
       229.000         181.000
  20268546.726    -8277194.84349  -6432392.58947  20268546.157    20268556.666
       244.000         212.000
  23360554.993    14161686.40049  11034453.89045  23360554.904    23360572.066
       218.000         160.000
  23899750.288    -5596453.98349  -4166161.67745  23899748.998    23899771.243
       203.000         133.000
  21871305.309   -15825409.75049 -12274173.89847  21871304.151    21871315.712
       237.000         191.000
  23477425.601    13442353.26549  10475255.55745  23477425.427    23477440.419
       219.000         158.000
  21443945.553   -11758146.47449  -9145497.48347  21443944.516    21443956.227
       237.000         198.000
 02  2 24  0 55  0.0000000  0 10G15G21G23G26G 6G30G22G18G10G17
  22037820.614   -14889465.13449 -11585429.73246  22037819.495    22037833.201
       232.000         184.000
  24819036.255    -1175648.46249   -894739.26545  24819034.870    24819057.204
       206.000         136.000
  20577696.106    -9477067.85149  -7367147.54947  20577695.378    20577705.707
       244.000         211.000
  22020354.126   -14999908.68949 -11673945.17046  22020353.916    22020366.985
       229.000         181.000
  20270468.900    -8267093.60849  -6424521.48047  20270468.337    20270478.418
       243.000         212.000
  23379508.783    14261289.12249  11112066.20745  23379508.893    23379525.852
       219.000         160.000
  23892456.562    -5634779.98549  -4196025.91444  23892453.639    23892473.962
       199.000         128.000
  21856583.514   -15902772.54149 -12334456.43447  21856582.063    21856594.059
       236.000         190.000
  23496557.696    13542892.86249  10553597.98545  23496556.472    23496572.349
       220.000         158.000
  21437626.767   -11791351.09749  -9171371.13447  21437625.311    21437637.503
       237.000         198.000
 02  2 24  0 55 30.0000000  0 10G15G21G23G26G 6G30G22G18G10G17
  22027795.082   -14942149.37049 -11626482.27246  22027793.446    22027807.536
       232.000         184.000
  24801684.691    -1266829.66349   -965789.06545  24801682.552    24801706.162
       206.000         137.000
  20581239.229    -9458448.73649  -7352639.12247  20581238.415    20581248.790
       244.000         211.000
  22010907.994   -15049547.97949 -11712624.99046  22010908.265    22010920.836
       230.000         181.000
  20272481.657    -8256516.61949  -6416279.65147  20272481.173    20272491.092
       244.000         212.000
  23398474.030    14360951.42049  11189724.94745  23398475.892    23398490.746
       219.000         160.000
  23885259.017    -5672600.05749  -4225495.87744  23885256.311    23885279.332
       200.000         125.000
  21841930.753   -15979772.27849 -12394456.08147  21841929.617    21841941.258
       236.000         190.000
  23515711.832    13643548.13749  10632030.57045  23515711.262    23515725.689
       219.000         159.000
  21431332.824   -11824425.54949  -9197143.35747  21431332.157    21431343.898
       238.000         199.000
 02  2 24  0 56  0.0000000  0 10G15G21G23G26G 6G30G22G18G10G17
  22017795.772   -14994695.51049 -11667427.20846  22017794.648    22017808.160
       233.000         185.000
  24784362.701    -1357855.04549  -1036717.44445  24784360.904    24784383.793
       208.000         139.000
  20584867.834    -9439380.13049  -7337780.44047  20584866.983    20584877.446
       243.000         211.000
  22001557.944   -15098682.35649 -11750911.37246  22001556.839    22001570.121
       228.000         181.000
  20274584.684    -8245465.10149  -6407668.05647  20274584.068    20274594.376
       243.000         212.000
  23417449.605    14460668.29549  11267426.23045  23417450.626    23417466.501
       219.000         159.000
  23878158.276    -5709915.44549  -4254572.60044  23878156.176    23878176.927
       203.000         126.000
  21827347.002   -16056409.73549 -12454173.41947  21827346.243    21827357.761
       237.000         190.000
  23534887.120    13744314.56849  10710549.76845  23534885.598    23534901.550
       218.000         158.000
  21425063.341   -11857372.22649  -9222816.01547  21425062.418    21425075.048
       239.000         200.000
 02  2 24  0 56 30.0000000  0 10G15G21G23G26G 6G30G22G18G10G17
  22007822.601   -15047104.40449 -11708265.19746  22007821.063    22007835.220
       233.000         186.000
  24767070.694    -1448723.99049  -1107523.91745  24767068.725    24767092.316
       210.000         142.000
  20588581.586    -9419863.92549  -7322572.97247  20588580.632    20588591.123
       243.000         210.000
  21992304.405   -15147309.27549 -11788802.31946  21992304.015    21992316.468
       229.000         181.000
  20276778.062    -8233938.70449  -6398686.43147  20276777.439    20276787.609
       243.000         212.000
  23436434.915    14560436.62849  11345167.58645  23436435.433    23436452.343
       217.000         158.000
  23871153.370    -5746725.54949  -4283255.63344  23871150.297    23871172.774
       204.000         127.000
  21812832.425   -16132683.99549 -12513607.75247  21812831.431    21812842.442
       237.000         191.000
  23554082.962    13845189.41249  10789153.44845  23554081.788    23554097.618
       219.000         157.000
  21418817.968   -11890191.53749  -9248389.41947  21418816.902    21418828.929
       238.000         200.000
 02  2 24  0 57  0.0000000  0 10G15G21G23G26G 6G30G22G18G10G17
  21997875.543   -15099376.33249 -11748996.46746  21997874.818    21997887.938
       234.000         186.000
  24749808.715    -1539434.97149  -1178207.29645  24749807.485    24749830.199
       213.000         145.000
  20592380.204    -9399901.89649  -7307018.11547  20592379.392    20592389.872
       243.000         210.000
  21983147.942   -15195426.53849 -11826296.14646  21983147.484    21983159.836
       230.000         182.000
  20279061.880    -8221936.99749  -6389334.43247  20279061.318    20279071.405
       243.000         212.000
  23455429.394    14660253.20749  11422946.54945  23455429.234    23455447.303
       216.000         157.000
  23864244.953    -5783029.73349  -4311544.46344  23864243.798    23864261.755
       208.000         130.000
  21798387.160   -16208593.75249 -12572758.06247  21798386.171    21798397.874
       238.000         192.000
  23573299.035    13946170.01149  10867839.54545  23573297.796    23573314.496
       219.000         157.000
  21412596.747   -11922883.90949  -9273863.92347  21412596.298    21412607.737
       239.000         200.000
 02  2 24  0 57 30.0000000  0 10G15G21G23G26G 6G30G22G18G10G17
  21987954.464   -15151511.75449 -11789621.37246  21987953.367    21987966.971
       234.000         187.000
  24732577.063    -1629986.85749  -1248766.72145  24732575.294    24732598.133
       214.000         144.000
  20596263.303    -9379496.10349  -7291117.46747  20596262.364    20596272.762
       243.000         210.000
  21974088.835   -15243031.76449 -11863390.97946  21974088.835    21974101.416
       229.000         181.000
  20281436.194    -8209459.72049  -6379611.85947  20281435.674    20281445.602
       243.000         212.000
  23474432.375    14760114.61349  11500760.42145  23474432.149    23474449.825
       215.000         156.000
  23857432.725    -5818827.82049  -4339438.90245  23857430.744    23857450.763
       210.000         134.000
  21784011.450   -16284138.06749 -12631623.61347  21784010.104    21784022.192
       237.000         193.000
  23592534.707    14047253.84649  10946606.06245  23592533.199    23592549.202
       218.000         157.000
  21406399.691   -11955449.94649  -9299239.98747  21406398.928    21406410.740
       239.000         201.000
 02  2 24  0 58  0.0000000  0 10G15G21G23G26G 6G30G22G18G10G17
  21978059.465   -15203510.34949 -11830139.65247  21978058.387    21978071.605
       234.000         188.000
  24715375.613    -1720378.60349  -1319201.35745  24715374.073    24715396.673
       213.000         143.000
  20600230.514    -9358647.90549  -7274872.08847  20600229.668    20600239.946
       241.000         210.000
  21965127.654   -15290122.13449 -11900084.64246  21965127.019    21965139.857
       230.000         181.000
  20283901.267    -8196505.83849  -6369517.90347  20283900.868    20283910.910
       244.000         212.000
  23493443.448    14860018.22149  11578607.19245  23493444.267    23493461.066
       217.000         155.000
  23850717.167    -5854118.68949  -4366938.12145  23850716.023    23850734.944
       214.000         138.000
  21769705.539   -16359315.48649 -12690203.26147  21769704.487    21769716.074
       238.000         193.000
  23611789.468    14148438.30449  11025450.99345  23611788.869    23611804.977
       219.000         157.000
  21400226.678   -11987889.62049  -9324517.58147  21400225.632    21400237.459
       239.000         201.000
 02  2 24  0 58 30.0000000  0 10G15G21G23G26G 6G30G22G18G10G17
  21968190.329   -15255372.74249 -11870551.79747  21968189.039    21968202.719
       233.000         188.000
  24698204.874    -1810609.13449  -1389510.37745  24698202.920    24698225.281
       214.000         142.000
  20604281.615    -9337359.18049  -7258283.44247  20604280.853    20604291.289
       242.000         210.000
  21956264.907   -15336695.50149 -11936375.42546  21956264.344    21956276.683
       228.000         181.000
  20286457.063    -8183075.00549  -6359052.30347  20286456.478    20286466.677
       243.000         212.000
  23512462.217    14959960.91949  11656484.42545  23512462.171    23512479.089
       217.000         155.000
  23844098.062    -5888901.90349  -4394041.75845  23844097.025    23844115.484
       212.000         142.000
  21755469.676   -16434125.07249 -12748496.29147  21755468.812    21755480.022
       238.000         193.000
  23631063.086    14249720.68649  11104372.24945  23631062.496    23631077.544
       219.000         157.000
  21394077.469   -12020203.45049  -9349697.11547  21394076.379    21394088.447
       239.000         201.000
 02  2 24  0 59  0.0000000  0 10G15G21G23G26G 6G30G22G18G10G17
  21958347.150   -15307098.66249 -11910857.59147  21958346.433    21958359.674
       233.000         188.000
  24681065.284    -1900676.25549  -1459692.06645  24681063.126    24681085.881
       214.000         140.000
  20608416.286    -9315631.13449  -7241352.46747  20608415.381    20608425.800
       242.000         210.000
  21947501.098   -15382748.89749 -11972261.04446  21947500.272    21947513.331
       228.000         181.000
  20289103.796    -8169166.11149  -6348214.18647  20289103.256    20289113.317
       243.000         212.000
  23531487.904    15059940.25949  11734390.20345  23531488.320    23531504.176
       216.000         155.000
  23837575.683    -5923176.30649  -4420748.88945  23837575.280    23837592.491
       214.000         144.000
  21741304.094   -16508565.31449 -12806501.53947  21741303.019    21741314.005
       239.000         193.000
  23650354.853    14351099.16549  11183368.38345  23650353.511    23650369.220
       217.000         156.000
  21387952.317   -12052391.26049  -9374778.45747  21387951.469    21387963.383
       239.000         202.000
 02  2 24  0 59 30.0000000  0 10G15G21G23G26G 6G30G22G18G10G17
  21948529.885   -15358688.51149 -11951057.34546  21948528.740    21948542.082
       233.000         187.000
  24663957.126    -1990578.99449  -1529745.64945  24663955.199    24663976.439
       214.000         138.000
  20612634.199    -9293465.74549  -7224080.70147  20612633.191    20612643.646
       241.000         209.000
  21938836.675   -15428280.03849 -12007739.71446  21938836.210    21938849.065
       230.000         182.000
  20291841.624    -8154778.80949  -6337003.27847  20291841.081    20291851.132
       244.000         212.000
  23550519.866    15159952.82549  11812321.85845  23550520.314    23550537.002
       216.000         155.000
  23831150.365    -5956941.61749  -4447059.33145  23831149.169    23831168.319
       214.000         148.000
  21727208.935   -16582635.31349 -12864218.26747  21727207.497    21727219.016
       238.000         193.000
  23669664.273    14452571.08949  11262437.31045  23669663.623    23669679.082
       218.000         156.000
  21381851.025   -12084453.55749  -9399761.99747  21381850.003    21381862.053
       239.000         202.000
 02  2 24  1  0  0.0000000  0 10G15G21G23G26G 6G30G22G18G10G17
  21938738.374   -15410142.50049 -11991151.24446  21938737.158    21938750.554
       234.000         187.000
  24646880.399    -2080316.14649  -1599670.24145  24646878.031    24646900.637
       211.000         138.000
  20616935.063    -9270864.39549  -7206469.22947  20616934.343    20616944.617
       242.000         210.000
  21930272.115   -15473286.43549 -12042809.49546  21930271.769    21930284.306
       229.000         181.000
  20294670.559    -8139912.42149  -6325419.06647  20294669.952    20294680.091
       243.000         211.000
  23569557.641    15259996.03949  11890277.40145  23569558.274    23569574.966
       217.000         156.000
  23824821.954    -5990196.93149  -4472972.38945  23824820.700    23824838.341
       215.000         151.000
  21713184.577   -16656333.33349 -12921645.14347  21713183.416    21713194.729
       238.000         194.000
  23688991.128    14554134.18249  11341577.29145  23688990.403    23689006.348
       217.000         157.000
  21375773.553   -12116390.28449  -9424647.69047  21375772.221    21375784.656
       238.000         202.000
 02  2 24  1  0 30.0000000  0 10G15G21G23G26G 6G30G22G18G10G17
  21928972.806   -15461460.52649 -12031139.20446  21928971.269    21928984.937
       234.000         187.000
  24629835.370    -2169886.40849  -1669464.77845  24629833.721    24629854.816
       208.000         137.000
  20621318.609    -9247828.55249  -7188519.19047  20621317.939    20621328.483
       242.000         210.000
  21921807.935   -15517765.30849 -12077468.21746  21921807.189    21921820.362
       228.000         181.000
  20297590.777    -8124566.40049  -6313461.11047  20297590.351    20297600.440
       245.000         212.000
  23588600.744    15360067.07849  11968254.62345  23588600.672    23588617.622
       217.000         157.000
  23818590.816    -6022941.52249  -4498487.46245  23818589.634    23818608.146
       216.000         153.000
  21699231.257   -16729658.13249 -12978781.19747  21699230.206    21699241.377
       238.000         195.000
  23708334.769    14655786.09449  11420786.47845  23708333.522    23708350.351
       216.000         156.000
  21369719.902   -12148201.49449  -9449435.57447  21369718.722    21369731.159
       239.000         202.000
 02  2 24  1  1  0.0000000  0 10G15G21G23G26G 6G30G22G18G10G17
  21919233.142   -15512642.43149 -12071021.08446  21919231.852    21919245.216
       234.000         187.000
  24612822.240    -2259288.31749  -1739128.13145  24612818.910    24612841.934
       209.000         137.000
  20625784.500    -9224359.90149  -7170231.89647  20625783.617    20625794.165
       242.000         210.000
  21913444.640   -15561714.21849 -12111713.99146  21913444.358    21913456.714
       229.000         181.000
  20300602.473    -8108739.94449  -6301128.78447  20300601.946    20300612.182
       245.000         212.000
  23607648.580    15460163.10749  12046251.30945  23607649.514    23607665.289
       216.000         157.000
  23812457.108    -6055174.77249  -4523604.09445  23812455.550    23812474.970
       215.000         155.000
  21685349.111   -16802608.53549 -13035625.51247  21685347.806    21685359.478
       238.000         195.000
  23727694.857    14757524.45249  11500063.02745  23727694.119    23727709.604
       215.000         156.000
  21363690.257   -12179887.34449  -9474125.78047  21363689.565    21363701.444
       240.000         202.000
 02  2 24  1  1 30.0000000  0 10G15G21G23G26G 6G30G22G18G10G17
  21909519.272   -15563688.58949 -12110797.18246  21909517.677    21909530.795
       234.000         187.000
  24595841.418    -2348520.72349  -1808659.41345  24595838.425    24595861.069
       205.000         137.000
  20630332.408    -9200460.41149  -7151608.88347  20630331.649    20630341.875
       242.000         210.000
  21905182.692   -15605130.82249 -12145544.98046  21905182.138    21905194.351
       230.000         182.000
  20303705.634    -8092432.57749  -6288421.72847  20303705.157    20303715.150
       245.000         212.000
  23626700.469    15560281.06149  12124265.09545  23626700.755    23626717.740
       216.000         157.000
  23806420.541    -6086896.10749  -4548321.83345  23806419.139    23806436.873
       213.000         155.000
  21671538.416   -16875183.52649 -13092177.30047  21671537.117    21671548.342
       238.000         195.000
  23747071.016    14859347.12749  11579405.27445  23747070.155    23747086.792
       217.000         157.000
  21357684.529   -12211448.13949  -9498718.54347  21357683.763    21357695.421
       239.000         203.000
 02  2 24  1  2  0.0000000  0 10G15G21G23G26G 6G30G22G18G10G17
  21899831.246   -15614598.99049 -12150467.49746  21899830.663    21899843.750
       234.000         187.000
  24578893.174    -2437582.02249  -1878057.34845  24578891.188    24578912.747
       204.000         138.000
  20634962.006    -9176131.82349  -7132651.51347  20634961.224    20634971.473
       242.000         210.000
  21897022.519   -15648012.68149 -12178959.28046  21897021.667    21897034.095
       229.000         183.000
  20306900.430    -8075643.80249  -6275339.54547  20306899.926    20306909.912
       246.000         212.000
  23645756.027    15660418.12249  12202293.76445  23645756.733    23645773.393
       218.000         158.000
  23800481.572    -6118104.95649  -4572640.24145  23800480.430    23800499.213
       211.000         155.000
  21657799.350   -16947382.02949 -13148435.71947  21657797.958    21657809.519
       237.000         194.000
  23766462.863    14961251.59549  11658811.26745  23766461.781    23766478.022
       215.000         156.000
  21351702.378   -12242883.96949  -9523213.92547  21351700.985    21351713.360
       238.000         202.000
 02  2 24  1  2 30.0000000  0 10G15G21G23G26G 6G30G22G18G10G17
  21890168.982   -15665373.92949 -12190032.25546  21890167.422    21890180.608
       234.000         187.000
  24561977.888    -2526471.18449  -1947321.13545  24561976.328    24561997.276
       201.000         138.000
  20639672.925    -9151375.90749  -7113361.16047  20639672.132    20639682.600
       243.000         210.000
  21888964.440   -15690357.56449 -12211955.15646  21888963.936    21888976.700
       229.000         182.000
  20310186.900    -8058373.16249  -6261881.88347  20310186.251    20310196.453
       246.000         212.000
  23664814.914    15760571.47749  12280335.12745  23664815.409    23664831.842
       217.000         159.000
  23794640.163    -6148800.87549  -4596558.97245  23794638.734    23794657.651
       209.000         154.000
  21644132.146   -17019202.76949 -13204399.77447  21644130.810    21644142.359
       237.000         194.000
  23785869.926    15063235.50949  11738279.16745  23785868.966    23785885.484
       216.000         154.000
  21345743.818   -12274195.22249  -9547612.22047  21345742.370    21345754.995
       238.000         202.000
 02  2 24  1  3  0.0000000  0 10G15G21G23G26G 6G30G22G18G10G17
  21880532.455   -15716013.65649 -12229491.65446  21880530.924    21880544.590
       234.000         187.000
  24545095.359    -2615187.21349  -2016450.03245  24545094.175    24545115.824
       200.000         137.000
  20644464.824    -9126194.36349  -7093739.15247  20644464.045    20644474.383
       243.000         210.000
  21881009.043   -15732163.04249 -12244530.72546  21881008.463    21881020.630
       230.000         182.000
  20313565.133    -8040620.30749  -6248048.47047  20313564.612    20313574.706
       246.000         212.000
  23683876.253    15860737.85549  12358386.61445  23683876.394    23683893.383
       218.000         160.000
  23788896.486    -6178983.32649  -4620077.56745  23788895.191    23788913.573
       208.000         151.000
  21630537.085   -17090644.74249 -13260068.69547  21630535.642    21630547.332
       238.000         195.000
  23805291.745    15165296.41749  11817807.06245  23805291.140    23805307.165
       215.000         154.000
  21339809.200   -12305382.01049  -9571913.54147  21339808.248    21339820.308
       239.000         202.000
 02  2 24  1  3 30.0000000  0 10G15G21G23G26G 6G30G22G18G10G17
  21870921.687   -15766518.26149 -12268845.76147  21870920.237    21870933.798
       234.000         188.000
  24528246.073    -2703728.82849  -2085443.00145  24528243.141    24528266.077
       201.000         139.000
  20649337.421    -9100588.80849  -7073786.74947  20649336.632    20649346.964
       242.000         210.000
  21873156.678   -15773426.84449 -12276684.20546  21873156.059    21873168.779
       232.000         183.000
  20317035.311    -8022384.64749  -6233838.84947  20317034.680    20317044.678
       246.000         212.000
  23702939.544    15960914.70449  12436446.27545  23702940.376    23702956.230
       217.000         161.000
  23783250.507    -6208651.80749  -4643195.66345  23783249.859    23783268.701
       207.000         150.000
  21617014.375   -17161706.60349 -13315441.42447  21617013.443    21617024.518
       240.000         197.000
  23824727.727    15267431.76149  11897392.96245  23824726.625    23824743.688
       213.000         154.000
  21333898.156   -12336444.57149  -9596118.05647  21333897.060    21333909.333
       238.000         202.000
 02  2 24  1  4  0.0000000  0 10G15G21G23G26G 6G30G22G18G10G17
  21861336.548   -15816887.45249 -12308094.33747  21861334.763    21861348.749
       233.000         188.000
  24511430.312    -2792094.14949  -2154298.61545  24511429.401    24511449.855
       204.000         142.000
  20654290.403    -9074560.48849  -7053504.91947  20654289.473    20654299.899
       242.000         210.000
  21865408.014   -15814146.08749 -12308413.35246  21865407.353    21865419.934
       230.000         183.000
  20320597.515    -8003665.15049  -6219252.21147  20320596.814    20320606.863
       246.000         212.000
  23722004.301    16061099.78849  12514512.36045  23722005.138    23722021.379
       218.000         160.000
  23777702.743    -6237805.31749  -4665912.49145  23777701.480    23777719.346
       207.000         148.000
  21603564.224   -17232387.08049 -13370516.97047  21603563.164    21603574.475
       239.000         197.000
  23844177.382    15369640.05049  11977035.69145  23844176.260    23844194.123
       210.000         151.000
  21328010.691   -12367382.46549  -9620225.42447  21328009.586    21328021.800
       238.000         202.000
 02  2 24  1  4 30.0000000  0 10G15G21G23G26G 6G30G22G18G10G17
  21851777.294   -15867121.08349 -12347237.29847  21851776.390    21851789.474
       234.000         188.000
  24494648.392    -2880281.68049  -2223015.69045  24494647.289    24494668.644
       204.000         143.000
  20659323.465    -9048111.20349  -7032895.06747  20659322.539    20659333.088
       242.000         210.000
  21857763.386   -15854318.38349 -12339716.30446  21857762.646    21857774.874
       231.000         183.000
  20324251.785    -7984461.55649  -6204288.35447  20324251.074    20324261.296
       245.000         212.000
  23741069.898    16161289.95349  12592582.38945  23741069.959    23741086.931
       216.000         160.000
  23772252.955    -6266443.36449  -4688227.65045  23772250.264    23772269.710
       206.000         147.000
  21590186.941   -17302684.80049 -13425294.27347  21590185.945    21590197.053
       239.000         197.000
  23863640.400    15471918.75549  12056733.28645  23863639.206    23863655.916
       212.000         150.000
  21322147.086   -12398195.78149  -9644235.72347  21322146.005    21322157.720
       238.000         202.000
 02  2 24  1  5  0.0000000  0 10G15G21G23G26G 6G30G22G18G10G17
  21842243.727   -15917219.71049 -12386275.06747  21842242.510    21842255.689
       234.000         188.000
  24477900.554    -2968290.70949  -2291593.69145  24477898.663    24477920.015
       207.000         146.000
  20664436.310    -9021242.93049  -7011958.72647  20664435.379    20664445.711
       242.000         210.000
  21850223.134   -15893942.08049 -12370591.78146  21850222.356    21850234.778
       231.000         183.000
  20327998.248    -7964773.75249  -6188947.19247  20327997.700    20328007.758
       245.000         212.000
  23760135.948    16261482.11449  12670653.97245  23760136.490    23760154.264
       217.000         160.000
  23766901.252    -6294565.91949  -4710141.15545  23766899.838    23766918.418
       207.000         146.000
  21576882.533   -17372599.18049 -13479772.86547  21576881.456    21576892.811
       240.000         197.000
  23883116.337    15574265.40149  12136483.85345  23883115.643    23883132.272
       208.000         148.000
  21316307.064   -12428885.05349  -9668149.36347  21316306.348    21316317.942
       239.000         202.000
 02  2 24  1  5 30.0000000  0 10G15G21G23G26G 6G30G22G18G10G17
  21832736.026   -15967182.85649 -12425207.26247  21832734.892    21832748.507
       235.000         189.000
  24461186.927    -3056119.95749  -2360031.60845  24461184.814    24461206.643
       210.000         149.000
  20669628.565    -8993957.25749  -6990697.13847  20669627.365    20669637.979
       241.000         209.000
  21842787.851   -15933014.31749 -12401037.55846  21842787.413    21842798.777
       232.000         184.000
  20331836.995    -7944600.90749  -6173228.07747  20331836.423    20331846.314
       245.000         211.000
  23779201.835    16361673.86949  12748725.24545  23779202.511    23779219.765
       216.000         160.000
  23761647.928    -6322172.01949  -4731652.20545  23761646.904    23761665.364
       207.000         147.000
  21563651.385   -17442128.61549 -13533951.50347  21563650.745    21563661.318
       240.000         198.000
  23902604.666    15676678.19749  12216285.96245  23902603.412    23902619.924
       207.000         145.000
  21310490.798   -12459450.09349  -9691966.20247  21310489.595    21310501.224
       239.000         202.000
 02  2 24  1  6  0.0000000  0 10G15G21G23G26G 6G30G22G18G10G17
  21823254.067   -16017010.86849 -12464034.16647  21823252.756    21823265.880
       235.000         190.000
  24444507.883    -3143767.84149  -2428328.21445  24444506.790    24444527.338
       213.000         152.000
  20674899.894    -8966255.99749  -6969111.71647  20674899.005    20674909.294
       242.000         209.000
  21835457.995   -15971532.92149 -12431051.93046  21835457.158    21835469.635
       231.000         184.000
  20335768.085    -7923942.61549  -6157130.69147  20335767.511    20335777.412
       245.000         211.000
  23798267.079    16461862.27249  12826793.90545  23798267.332    23798285.552
       214.000         159.000
  23756492.815    -6349261.59049  -4752760.80545  23756491.643    23756509.956
       208.000         147.000
  21550493.720   -17511272.23649 -13587829.51447  21550492.614    21550503.590
       240.000         198.000
  23922105.184    15779154.60149  12296137.63945  23922104.012    23922120.529
       207.000         144.000
  21304698.032   -12489890.96249  -9715686.27847  21304696.915    21304708.330
       239.000         202.000
 02  2 24  1  6 30.0000000  0 10G15G21G23G26G 6G30G22G18G10G17
  21813797.698   -16066703.91949 -12502755.90947  21813796.373    21813809.731
       235.000         190.000
  24427863.504    -3231233.61349  -2496482.92245  24427861.503    24427882.211
       215.000         154.000
  20680249.974    -8938141.23549  -6947204.08647  20680249.281    20680259.514
       242.000         209.000
  21828233.746   -16009495.96949 -12460633.38846  21828233.179    21828244.802
       231.000         184.000
  20339791.584    -7902798.79649  -6140654.97547  20339791.146    20339801.267
       245.000         211.000
  23817331.123    16562044.31549  12904857.60645  23817331.644    23817348.322
       216.000         157.000
  23751436.134    -6375834.18149  -4773466.56645  23751434.384    23751453.353
       209.000         147.000
  21537409.693   -17580029.15649 -13641406.20347  21537408.742    21537419.467
       241.000         199.000
  23941617.577    15881692.29049  12376037.05745  23941616.544    23941633.062
       208.000         142.000
  21298928.792   -12520207.91849  -9739309.79947  21298927.799    21298939.508
       239.000         202.000
 02  2 24  1  7  0.0000000  0 10G15G21G23G26G 6G30G22G18G10G17
  21804367.044   -16116261.84549 -12541372.36647  21804366.012    21804378.982
       235.000         190.000
  24411253.930    -3318515.79549  -2564494.57645  24411252.132    24411272.838
       218.000         157.000
  20685678.434    -8909614.57049  -6924975.48647  20685677.473    20685687.772
       241.000         209.000
  21821115.656   -16046901.10749 -12489780.11246  21821115.116    21821127.403
       232.000         184.000
  20343907.578    -7881168.98949  -6123800.56847  20343906.876    20343917.327
       244.000         211.000
  23836393.613    16662217.43249  12982914.34045  23836393.888    23836411.549
       215.000         155.000
  23746477.704    -6401889.43749  -4793769.20945  23746475.097    23746495.069
       209.000         147.000
  21524399.415   -17648398.22749 -13694680.66547  21524398.259    21524408.898
       240.000         199.000
  23961141.350    15984289.12649  12455982.58345  23961140.677    23961156.548
       208.000         141.000
  21293183.158   -12550401.18449  -9762836.93647  21293182.576    21293193.967
       241.000         203.000
 02  2 24  1  7 30.0000000  0 10G15G21G23G26G 6G30G22G18G10G17
  21794962.055   -16165684.94949 -12579883.76047  21794960.173    21794973.729
       233.000         189.000
  24394679.572    -3405613.00049  -2632362.10345  24394677.656    24394697.861
       218.000         158.000
  20691184.786    -8880677.97949  -6902427.46547  20691183.851    20691194.211
       241.000         209.000
  21814104.143   -16083746.30149 -12518490.52646  21814103.510    21814115.356
       230.000         184.000
  20348116.144    -7859052.70649  -6106567.09047  20348115.483    20348125.648
       245.000         210.000
  23855454.024    16762378.61549  13060961.77345  23855455.712    23855471.811
       216.000         155.000
  23741617.883    -6427427.02149  -4813668.47745  23741616.481    23741634.533
       211.000         148.000
  21511463.078   -17716378.46149 -13747652.14247  21511461.765    21511472.896
       240.000         199.000
  23980675.602    16086942.60349  12535972.22445  23980673.925    23980689.868
       208.000         141.000
  21287461.158   -12580470.90949  -9786267.80947  21287460.588    21287471.634
       241.000         203.000
 02  2 24  1  8  0.0000000  0 10G15G21G23G26G 6G30G22G18G10G17
  21785582.600   -16214973.18849 -12618290.04347  21785580.536    21785594.927
       232.000         189.000
  24378140.620    -3492524.05449  -2700084.58745  24378138.706    24378159.052
       218.000         157.000
  20696768.970    -8851332.90449  -6879561.14747  20696768.325    20696778.223
       242.000         209.000
  21807199.556   -16120029.21149 -12546762.79546  21807198.481    21807210.732
       231.000         184.000
  20352417.348    -7836449.56549  -6088954.23347  20352416.815    20352426.932
       244.000         210.000
  23874511.597    16862525.29149  13138997.92145  23874512.589    23874529.074
       214.000         153.000
  23736856.762    -6452446.56449  -4833164.06545  23736854.877    23736873.887
       213.000         149.000
  21498600.996   -17783968.65549 -13800319.69247  21498599.889    21498610.368
       240.000         198.000
  24000220.189    16189650.84549  12616004.55745  24000218.954    24000236.118
       207.000         142.000
  21281762.601   -12610416.73749  -9809602.14047  21281761.173    21281773.122
       240.000         204.000
 02  2 24  1  8 30.0000000  0 10G15G21G23G26G 6G30G22G18G10G17
  21776228.955   -16264126.18949 -12656590.95847  21776227.911    21776241.260
       234.000         189.000
  24361637.363    -3579247.67349  -2767661.01145  24361635.641    24361656.136
       217.000         156.000
  20702430.578    -8821580.97149  -6856377.79947  20702429.906    20702440.236
       241.000         209.000
  21800402.468   -16155747.56049 -12574595.13946  21800401.646    21800413.839
       230.000         184.000
  20356811.277    -7813359.26449  -6070961.78547  20356810.723    20356820.994
       244.000         210.000
  23893565.810    16962654.81149  13217020.68745  23893566.498    23893584.009
       214.000         151.000
  23732194.313    -6476947.37449  -4852255.45645  23732193.494    23732211.314
       214.000         151.000
  21485813.250   -17851167.77049 -13852682.50747  21485812.272    21485822.787
       240.000         198.000
  24019774.958    16292411.79849  12696077.98845  24019773.727    24019790.364
       210.000         143.000
  21276087.534   -12640238.80349  -9832840.03247  21276085.862    21276098.224
       239.000         203.000
 02  2 24  1  9  0.0000000  0 10G15G21G23G26G 6G30G22G18G10G17
  21766900.905   -16313144.64749 -12694787.02947  21766899.449    21766912.889
       234.000         189.000
  24345169.910    -3665783.05449  -2835090.75645  24345168.311    24345188.458
       217.000         154.000
  20708169.139    -8791424.42349  -6832879.15847  20708168.293    20708178.658
       241.000         209.000
  21793713.144   -16190899.56649 -12601986.17746  21793712.617    21793724.746
       230.000         185.000
  20361297.875    -7789781.79149  -6052589.71647  20361297.537    20361307.406
       245.000         210.000
  23912616.241    17062764.08149  13295027.66945  23912615.641    23912633.516
       214.000         150.000
  23727630.597    -6500929.89349  -4870942.97545  23727629.154    23727646.430
       215.000         151.000
  21473100.124   -17917975.11949 -13904740.04847  21473098.913    21473109.598
       239.000         198.000
  24039339.181    16395222.69149  12776190.31245  24039337.673    24039355.472
       211.000         144.000
  21270435.861   -12669937.60249  -9855981.86447  21270434.535    21270446.673
       239.000         203.000
 02  2 24  1  9 30.0000000  0 10G15G21G23G26G 6G30G22G18G10G17
  21757598.540   -16362028.21049 -12732878.00347  21757597.669    21757610.718
       235.000         189.000
  24328738.500    -3752128.75349  -2902372.71145  24328736.776    24328756.393
       216.000         153.000
  20713984.499    -8760864.77649  -6809066.42547  20713983.847    20713993.833
       242.000         209.000
  21787132.111   -16225482.64549 -12628933.91346  21787131.723    21787143.477
       230.000         185.000
  20365877.385    -7765716.29049  -6033837.36747  20365876.627    20365886.942
       245.000         210.000
  23931662.291    17162850.63149  13373016.95245  23931662.655    23931680.699
       212.000         149.000
  23723165.510    -6524393.12049  -4889225.84245  23723164.225    23723182.632
       217.000         153.000
  21460461.856   -17984389.27549 -13956491.21647  21460460.682    21460471.420
       239.000         198.000
  24058912.586    16498082.02549  12856340.38345  24058912.412    24058928.565
       212.000         146.000
  21264807.830   -12699512.61749  -9879027.25447  21264807.160    21264818.586
       240.000         204.000
 02  2 24  1 10  0.0000000  0 10G15G21G23G26G 6G30G22G18G10G17
  21748321.981   -16410776.97649 -12770863.93547  21748320.441    21748333.568
       234.000         190.000
  24312343.441    -3838283.57549  -2969505.90345  24312341.396    24312360.916
       214.000         150.000
  20719876.196    -8729903.77249  -6784940.93847  20719874.949    20719885.369
       241.000         209.000
  21780659.733   -16259494.80249 -12655436.75346  21780659.143    21780671.110
       229.000         185.000
  20370549.798    -7741162.55049  -6014704.56547  20370549.342    20370559.299
       244.000         210.000
  23950703.353    17262911.94049  13450986.55545  23950703.553    23950722.251
       212.000         150.000
  23718799.431    -6547336.86549  -4907103.92045  23718798.168    23718816.569
       216.000         154.000
  21447898.474   -18050409.21249 -14007935.19147  21447897.220    21447907.923
       239.000         198.000
  24078494.988    16600987.53649  12936526.42445  24078493.806    24078510.990
       213.000         148.000
  21259203.438   -12728963.99749  -9901976.29547  21259202.450    21259214.075
       240.000         204.000
 02  2 24  1 10 30.0000000  0 10G15G21G23G26G 6G30G22G18G10G17
  21739070.830   -16459391.46249 -12808745.22647  21739069.415    21739082.451
       235.000         190.000
  24295984.857    -3924246.86849  -3036489.86945  24295983.730    24296002.751
       214.000         149.000
  20725843.695    -8698543.67749  -6760504.47947  20725842.947    20725853.232
       241.000         209.000
  21774296.279   -16292934.46249 -12681493.50646  21774295.809    21774308.097
       232.000         186.000
  20375315.073    -7716120.76849  -5995191.47747  20375314.693    20375324.573
       245.000         210.000
  23969738.981    17362944.60149  13528933.83545  23969740.014    23969756.966
       211.000         149.000
  23714532.093    -6569761.48249  -4924577.48945  23714531.222    23714548.448
       218.000         154.000
  21435410.332   -18116034.26749 -14059071.46847  21435409.275    21435420.032
       239.000         198.000
  24098085.691    16703936.47649  13016746.31845  24098085.063    24098101.149
       213.000         149.000
  21253622.454   -12758292.21649  -9924829.37247  21253621.484    21253632.757
       241.000         204.000
 02  2 24  1 11  0.0000000  0 10G15G21G23G26G 6G30G22G18G10G17
  21729845.367   -16507871.17549 -12846521.50747  21729844.771    21729857.456
       236.000         191.000
  24279663.071    -4010017.15649  -3103323.42545  24279660.751    24279681.321
       212.000         147.000
  20731886.933    -8666786.28449  -6735758.43647  20731886.164    20731896.475
       242.000         209.000
  21768042.219   -16325799.37749 -12707102.41046  21768041.928    21768053.563
       232.000         187.000
  20380173.299    -7690590.62049  -5975297.84447  20380172.890    20380182.859
       245.000         210.000
  23988768.754    17462946.17849  13606856.88445  23988770.180    23988788.026
       213.000         148.000
  23710363.779    -6591666.39249  -4941646.05745  23710362.068    23710379.934
       216.000         155.000
  21422997.491   -18181263.66849 -14109899.44747  21422996.428    21423007.576
       239.000         199.000
  24117684.272    16806926.99049  13096998.60545  24117683.245    24117701.207
       214.000         150.000
  21248064.886   -12787497.06549  -9947586.32747  21248063.931    21248074.890
       240.000         203.000
 02  2 24  1 11 30.0000000  0 10G15G21G23G26G 6G30G22G18G10G17
  21720645.751   -16556215.97749 -12884192.66247  21720644.771    21720657.615
       236.000         192.000
  24263378.229    -4095592.98349  -3170005.45045  24263376.054    24263396.237
       210.000         146.000
  20738005.522    -8634633.02949  -6710703.93147  20738004.658    20738014.881
       241.000         209.000
  21761897.986   -16358087.29749 -12732261.70946  21761897.772    21761909.522
       231.000         187.000
  20385124.572    -7664571.47149  -5955023.17647  20385123.962    20385134.140
       245.000         210.000
  24007792.276    17562914.19949  13684753.80545  24007792.701    24007811.131
       214.000         149.000
  23706294.102    -6613051.32149  -4958309.47345  23706292.475    23706310.545
       216.000         155.000
  21410660.200   -18246095.96649 -14160417.99547  21410658.739    21410669.871
       239.000         199.000
  24137290.342    16909957.29849  13177281.91045  24137289.882    24137306.201
       214.000         151.000
  21242530.912   -12816578.23749  -9970246.91047  21242529.703    21242540.918
       240.000         203.000
 02  2 24  1 12  0.0000000  0 10G15G21G23G26G 6G30G22G18G10G17
  21711471.488   -16604426.16549 -12921758.91747  21711470.072    21711483.211
       236.000         192.000
  24247130.520    -4180973.31849  -3236535.12845  24247129.611    24247145.922
       208.000         143.000
  20744198.900    -8602086.27849  -6685342.80547  20744197.951    20744208.352
       242.000         209.000
  21755863.807   -16389796.48349 -12756970.04946  21755863.009    21755875.123
       232.000         186.000
  20390168.871    -7638063.56749  -5934367.65647  20390168.390    20390178.371
       245.000         210.000
  24026808.907    17662845.63149  13762622.22145  24026809.436    24026827.708
       214.000         150.000
  23702323.592    -6633916.24549  -4974567.64745  23702321.874    23702339.436
       216.000         155.000
  21398398.561   -18310530.52349 -14210626.62247  21398397.498    21398408.329
       239.000         199.000
  24156903.611    17013025.11449  13257594.43445  24156902.994    24156920.196
       215.000         152.000
  21237020.357   -12845536.15249  -9992811.45047  21237019.607    21237030.773
       240.000         203.000
 02  2 24  1 12 30.0000000  0 10G15G21G23G26G 6G30G22G18G10G17
  21702322.904   -16652501.88649 -12959220.38947  21702321.935    21702334.219
       236.000         193.000
  24230920.159    -4266157.27049  -3302911.78645  24230917.345    24230937.534
       207.000         141.000
  20750466.850    -8569147.88649  -6659676.50147  20750466.161    20750476.253
       242.000         209.000
  21749940.189   -16420925.05049 -12781225.96046  21749939.710    21749951.742
       232.000         187.000
  20395306.232    -7611066.66749  -5913331.10147  20395305.724    20395315.828
       245.000         210.000
  24045818.009    17762737.81549  13840460.02945  24045817.957    24045837.221
       214.000         150.000
  23698451.860    -6654261.03649  -4990420.57245  23698451.104    23698468.239
       215.000         155.000
  21386212.785   -18374566.56649 -14260524.70847  21386211.774    21386222.432
       239.000         200.000
  24176523.684    17116128.34149  13337934.54845  24176523.151    24176539.427
       215.000         152.000
  21231533.214   -12874370.88149 -10015279.99847  21231532.296    21231543.701
       240.000         203.000
 02  2 24  1 13  0.0000000  0 10G15G21G23G26G 6G30G22G18G10G17
  21693200.109   -16700442.77449 -12996576.80847  21693198.621    21693212.191
       236.000         193.000
  24214747.454    -4351143.01549  -3369134.03545  24214745.281    24214763.344
       207.000         140.000
  20756809.080    -8535819.10049  -6633706.00147  20756808.241    20756818.485
       242.000         209.000
  21744127.454   -16451470.64849 -12805027.60947  21744126.854    21744138.925
       230.000         188.000
  20400536.716    -7583580.16149  -5891913.04347  20400536.143    20400546.043
       244.000         210.000
  24064819.197    17862588.40249  13918265.42545  24064819.882    24064837.991
       215.000         151.000
  23694679.474    -6674085.35949  -5005867.89745  23694677.886    23694695.863
       215.000         156.000
  21374103.137   -18438202.71749 -14310111.19647  21374102.167    21374112.501
       239.000         200.000
  24196150.018    17219265.05249  13418300.76745  24196148.765    24196166.040
       213.000         153.000
  21226069.588   -12903081.93749 -10037652.18147  21226068.339    21226080.449
       239.000         204.000
 02  2 24  1 13 30.0000000  0 10G15G21G23G26G 6G30G22G18G10G17
  21684102.783   -16748249.29149 -13033828.51747  21684101.449    21684114.357
       236.000         193.000
  24198612.728    -4435930.05949  -3435201.43645  24198609.971    24198630.085
       204.000         141.000
  20763225.121    -8502102.41849  -6607433.23547  20763224.309    20763234.772
       242.000         209.000
  21738425.862   -16481432.04149 -12828374.03046  21738425.401    21738437.134
       231.000         187.000
  20405860.313    -7555604.53449  -5870113.84247  20405860.037    20405869.921
       245.000         210.000
  24083811.947    17962394.08049  13996035.83045  24083812.244    24083830.391
       214.000         151.000
  23691005.739    -6693389.45449  -5020909.88445  23691003.570    23691023.166
       215.000         157.000
  21362069.617   -18501438.62949 -14359385.80747  21362068.678    21362079.137
       240.000         200.000
  24215782.209    17322432.52649  13498690.97845  24215781.393    24215798.321
       212.000         153.000
  21220629.350   -12931669.94349 -10059928.47547  21220628.125    21220640.177
       240.000         204.000
 02  2 24  1 14  0.0000000  0 10G15G21G23G26G 6G30G22G18G10G17
  21675031.095   -16795920.83949 -13070975.06247  21675030.329    21675042.669
       236.000         193.000
  24182516.074    -4520517.18149  -3501113.01245  24182513.514    24182533.086
       207.000         142.000
  20769714.728    -8467999.47549  -6580859.49747  20769713.946    20769723.901
       241.000         209.000
  21732835.971   -16510806.79949 -12851263.35046  21732835.351    21732847.314
       231.000         187.000
  20411277.083    -7527139.32849  -5847933.16047  20411276.507    20411286.598
       245.000         210.000
  24102795.657    18062152.67749  14073769.53445  24102796.271    24102814.661
       214.000         149.000
  23687431.284    -6712172.91449  -5035546.17245  23687430.253    23687447.526
       216.000         158.000
  21350112.566   -18564273.23149 -14408347.71947  21350111.635    21350122.259
       240.000         200.000
  24235420.021    17425629.40149  13579104.09645  24235419.628    24235435.770
       211.000         152.000
  21215212.640   -12960134.46149 -10082108.55447  21215211.745    21215223.114
       240.000         204.000
 02  2 24  1 14 30.0000000  0 10G15G21G23G26G 6G30G22G18G10G17
  21665985.144   -16843457.70449 -13108016.65447  21665983.432    21665996.480
       235.000         192.000
  24166457.620    -4604902.98949  -3566867.75845  24166455.461    24166473.986
       207.000         142.000
  20776277.346    -8433512.55249  -6553986.54747  20776276.433    20776286.754
       241.000         209.000
  21727357.931   -16539593.53049 -12873694.45046  21727357.214    21727369.494
       231.000         187.000
  20416786.983    -7498184.67749  -5825371.08847  20416786.363    20416796.655
       244.000         210.000
  24121769.779    18161861.09149  14151464.16145  24121770.136    24121788.366
       215.000         149.000
  23683955.852    -6730436.11749  -5049777.05345  23683953.620    23683972.582
       216.000         158.000
  21338231.930   -18626705.88649 -14456996.42447  21338230.950    21338241.391
       240.000         201.000
  24255062.932    17528853.12849  13659538.12545  24255061.850    24255079.125
       209.000         151.000
  21209819.481   -12988475.96649 -10104192.77647  21209818.538    21209829.994
       240.000         204.000
 02  2 24  1 15  0.0000000  0 10G15G21G23G26G 6G30G22G18G10G17
  21656964.678   -16890859.33749 -13144952.87047  21656963.096    21656975.792
       234.000         191.000
  24150437.652    -4689086.04449  -3632464.52845  24150435.302    24150453.333
       205.000         141.000
  20782912.790    -8398642.88549  -6526815.35547  20782912.099    20782922.320
       242.000         209.000
  21721992.244   -16567789.69249 -12895665.37446  21721991.468    21722003.299
       231.000         187.000
  20422390.121    -7468739.83549  -5802427.05947  20422389.544    20422399.739
       245.000         210.000
  24140734.016    18261517.40049  14229118.17745  24140734.437    24140753.011
       216.000         149.000
  23680579.319    -6748178.27649  -5063601.94445  23680577.297    23680595.899
       214.000         158.000
  21326428.122   -18688735.07349 -14505330.73747  21326426.952    21326437.406
       240.000         201.000
  24274710.746    17632102.33249  13739992.00845  24274709.348    24274727.194
       210.000         150.000
  21204449.848   -13016693.38949 -10126180.31147  21204448.925    21204460.263
       241.000         204.000
 02  2 24  1 15 30.0000000  0 10G15G21G23G26G 6G30G22G18G10G17
  21647969.824   -16938126.58949 -13181784.37447  21647968.094    21647980.885
       234.000         190.000
  24134456.463    -4773066.16949  -3697903.16845  24134454.145    24134473.104
       208.000         141.000
  20789620.609    -8363393.15049  -6499348.00347  20789619.866    20789630.104
       242.000         209.000
  21716739.183   -16595394.27449 -12917175.32346  21716738.685    21716750.299
       231.000         187.000
  20428086.446    -7438805.46849  -5779101.56747  20428085.751    20428095.980
       244.000         210.000
  24159687.655    18361118.07349  14306728.83045  24159687.856    24159704.879
       214.000         150.000
  23677302.048    -6765400.11449  -5077021.38245  23677299.697    23677317.889
       214.000         157.000
  21314701.021   -18750360.68849 -14553350.56847  21314700.030    21314710.547
       240.000         201.000
  24294362.798    17735374.05949  13820463.45245  24294362.213    24294379.789
       207.000         148.000
  21199103.663   -13044787.80949 -10148072.00347  21199102.547    21199113.890
       240.000         205.000
 02  2 24  1 16  0.0000000  0 10G15G21G23G26G 6G30G22G18G10G17
  21639000.706   -16985259.08249 -13218510.88647  21638999.263    21639011.747
       234.000         190.000
  24118514.103    -4856842.41649  -3763182.96945  24118512.441    24118531.218
       210.000         143.000
  20796400.453    -8327764.89549  -6471585.70647  20796399.612    20796409.646
       242.000         208.000
  21711599.111   -16622405.14749 -12938222.65646  21711599.043    21711609.816
       232.000         187.000
  20433876.004    -7408381.01749  -5755394.20247  20433875.462    20433885.670
       244.000         210.000
  24178630.135    18460660.84549  14384294.35245  24178630.692    24178648.480
       213.000         150.000
  23674123.556    -6782101.35249  -5090035.17445  23674120.517    23674140.580
       211.000         156.000
  21303050.941   -18811581.87149 -14601055.26647  21303049.855    21303060.506
       242.000         202.000
  24314018.772    17838666.80249  13900951.27345  24314016.906    24314034.887
       204.000         146.000
  21193780.941   -13072758.77649 -10169867.49447  21193779.672    21193791.173
       241.000         204.000
 02  2 24  1 16 30.0000000  0 10G15G21G23G26G 6G30G22G18G10G17
  21630057.247   -17032256.20549 -13255131.89847  21630056.034    21630069.214
       235.000         191.000
  24102610.788    -4940413.09849  -3828302.57445  24102609.141    24102627.932
       209.000         144.000
  20803251.957    -8291759.61449  -6443529.61747  20803250.889    20803261.071
       242.000         208.000
  21706572.405   -16648820.32049 -12958805.79946  21706572.093    21706583.477
       231.000         187.000
  20439758.864    -7377466.21849  -5731304.74747  20439758.590    20439768.375
       244.000         210.000
  24197561.137    18560143.36549  14461812.91845  24197560.098    24197580.268
       211.000         151.000
  23671044.339    -6798281.78049  -5102643.13345  23671042.968    23671060.037
       214.000         156.000
  21291478.151   -18872396.98949 -14648443.55047  21291477.237    21291487.920
       241.000         202.000
  24333677.986    17941978.65549  13981453.97545  24333677.596    24333694.119
       205.000         144.000
  21188481.707   -13100605.80049 -10191566.40047  21188480.450    21188491.713
       240.000         204.000
 02  2 24  1 17  0.0000000  0 10G15G21G23G26G 6G30G22G18G10G17
  21621139.669   -17079117.84749 -13291647.35047  21621138.587    21621151.008
       236.000         192.000
  24086746.972    -5023776.63049  -3893260.77045  24086744.963    24086764.312
       211.000         145.000
  20810174.925    -8255379.21849  -6415181.23747  20810174.296    20810184.201
       242.000         208.000
  21701659.405   -16674638.00949 -12978923.36647  21701659.064    21701670.385
       232.000         188.000
  20445735.070    -7346061.07049  -5706833.19547  20445734.562    20445744.424
       245.000         210.000
  24216480.146    18659563.19049  14539282.64545  24216479.910    24216499.296
       213.000         150.000
  23668064.237    -6813941.34249  -5114845.22845  23668061.652    23668079.686
       212.000         154.000
  21279982.683   -18932805.62349 -14695515.09747  21279981.665    21279991.928
       241.000         202.000
  24353340.960    18045307.62249  14061970.01845  24353340.383    24353356.773
       206.000         144.000
  21183206.091   -13128328.93849 -10213168.77747  21183205.302    21183215.909
       240.000         204.000
 02  2 24  1 17 30.0000000  0 10G15G21G23G26G 6G30G22G18G10G17
  21612247.818   -17125844.88149 -13328057.92247  21612246.473    21612258.783
       236.000         192.000
  24070922.658    -5106932.59549  -3958057.24545  24070920.808    24070939.142
       212.000         146.000
  20817168.776    -8218626.41549  -6386542.66747  20817167.855    20817177.996
       242.000         208.000
  21696860.317   -16699857.06149 -12998574.47347  21696859.986    21696870.941
       231.000         188.000
  20451804.469    -7314166.15549  -5681980.00847  20451804.071    20451814.186
       245.000         210.000
  24235386.517    18758916.88149  14616700.83545  24235386.231    24235405.531
       214.000         151.000
  23665182.892    -6829080.83949  -5126642.07545  23665180.916    23665199.027
       211.000         153.000
  21268564.577   -18992807.48749 -14742269.67347  21268563.620    21268573.656
       241.000         202.000
  24373006.742    18148651.21349  14142497.48045  24373005.629    24373024.043
       205.000         143.000
  21177954.059   -13155928.63749 -10234674.96647  21177953.178    21177963.713
       240.000         204.000
 02  2 24  1 18  0.0000000  0 10G15G21G23G26G 6G30G22G18G10G17
  21603381.575   -17172436.77749 -13364363.17847  21603380.141    21603393.003
       235.000         193.000
  24055138.003    -5189879.94049  -4022691.16945  24055136.286    24055154.060
       214.000         146.000
  20824233.169    -8181502.63949  -6357615.02247  20824232.374    20824242.139
       242.000         208.000
  21692175.532   -16724475.40949 -13017757.49647  21692175.040    21692186.332
       232.000         188.000
  20457967.203    -7281780.93549  -5656744.75947  20457966.754    20457976.650
       244.000         210.000
  24254279.958    18858202.25149  14694065.78945  24254279.931    24254299.624
       213.000         150.000
  23662400.712    -6843699.66049  -5138033.21445  23662398.183    23662417.270
       210.000         152.000
  21257224.172   -19052401.42149 -14788706.38847  21257223.101    21257233.204
       242.000         202.000
  24392674.574    18252007.91149  14223035.13145  24392673.514    24392691.681
       204.000         143.000
  21172725.460   -13183404.40249 -10256084.58047  21172724.318    21172735.511
       239.000         204.000
 02  2 24  1 18 30.0000000  0 10G15G21G23G26G 6G30G22G18G10G17
  21594541.019   -17218893.32149 -13400562.96647  21594539.471    21594551.926
       236.000         193.000
  24039393.368    -5272617.39149  -4087161.54645  24039391.905    24039409.452
       215.000         148.000
  20831367.761    -8144010.03649  -6328399.99347  20831366.835    20831376.834
       242.000         208.000
  21687605.306   -16748491.38749 -13036471.14247  21687604.554    21687616.728
       232.000         188.000
  20464223.148    -7248905.59349  -5631127.60747  20464222.613    20464232.769
       245.000         210.000
  24273160.077    18957416.87349  14771375.60645  24273161.100    24273180.692
       211.000         149.000
  23659717.629    -6857798.29149  -5149019.00045  23659714.411    23659733.878
       210.000         151.000
  21245961.544   -19111586.56249 -14834824.56847  21245960.528    21245970.626
       242.000         203.000
  24412344.657    18355375.56649  14303581.34945  24412343.286    24412360.664
       205.000         141.000
  21167520.505   -13210756.24149 -10277397.62947  21167519.621    21167530.667
       240.000         204.000
 02  2 24  1 19  0.0000000  0 10G15G21G23G26G 6G30G22G18G10G17
  21585726.224   -17265215.07149 -13436657.72847  21585725.093    21585737.431
       236.000         193.000
  24023688.781    -5355144.58949  -4151468.09445  24023686.648    24023704.860
       215.000         149.000
  20838572.086    -8106150.94149  -6298899.37647  20838571.147    20838581.216
       242.000         208.000
  21683149.938   -16771904.20749 -13054714.78947  21683149.128    21683160.820
       232.000         188.000
  20470572.250    -7215540.84149  -5605129.08747  20470571.798    20470581.576
       245.000         210.000
  24292026.104    19056557.29149  14848627.60145  24292026.770    24292046.402
       209.000         148.000
  23657133.177    -6871377.30749  -5159599.90145  23657130.619    23657150.161
       209.000         150.000
  21234776.726   -19170363.03949 -14880624.30047  21234775.451    21234785.727
       241.000         203.000
  24432016.731    18458751.70249  14384134.19445  24432015.817    24432031.766
       208.000         140.000
  21162339.024   -13237984.78649 -10298614.59747  21162338.098    21162349.538
       240.000         204.000
 02  2 24  1 19 30.0000000  0 10G15G21G23G26G 6G30G22G18G10G17
  21576937.078   -17311401.79949 -13472647.27547  21576935.568    21576947.679
       236.000         193.000
  24008024.262    -5437460.45249  -4215609.95845  24008022.762    24008040.511
       216.000         151.000
  20845845.771    -8067927.17849  -6269114.60047  20845845.042    20845855.133
       241.000         208.000
  21678809.654   -16794711.74749 -13072486.78947  21678808.913    21678820.583
       231.000         188.000
  20477014.543    -7181686.44449  -5578749.02447  20477014.068    20477023.826
       245.000         210.000
  24310877.512    19155621.29449  14925820.02345  24310876.940    24310896.796
       209.000         147.000
  23654647.882    -6884436.64349  -5169775.84945  23654645.370    23654664.769
       207.000         150.000
  21223669.752   -19228729.75249 -14926104.73247  21223668.770    21223679.170
       242.000         203.000
  24451689.834    18562134.75249  14464692.44545  24451689.098    24451706.453
       208.000         141.000
  21157181.185   -13265089.44349 -10319735.02647  21157180.319    21157191.644
       240.000         205.000
 02  2 24  1 20  0.0000000  0 10G15G21G23G26G 6G30G22G18G10G17
  21568173.707   -17357453.25349 -13508531.42347  21568172.245    21568184.890
       237.000         193.000
  23992400.311    -5519563.37049  -4279585.90945  23992398.838    23992416.042
       215.000         152.000
  20853188.545    -8029340.42549  -6239046.98147  20853187.948    20853197.926
       243.000         208.000
  21674584.948   -16816912.15549 -13089785.70747  21674584.328    21674596.122
       232.000         188.000
  20483550.046    -7147342.14949  -5551987.22947  20483549.574    20483559.449
       245.000         210.000
  24329713.934    19254606.75849  15002951.26545  24329714.909    24329733.938
       210.000         145.000
  23652261.301    -6896976.04249  -5179546.68745  23652259.052    23652277.908
       205.000         149.000
  21212641.088   -19286685.69649 -14971265.10047  21212640.035    21212650.269
       242.000         204.000
  24471363.901    18665523.09349  14545254.76645  24471363.218    24471379.287
       207.000         140.000
  21152046.900   -13292069.74749 -10340758.55847  21152045.833    21152057.235
       239.000         205.000
 02  2 24  1 20 30.0000000  0 10G15G21G23G26G 6G30G22G18G10G17
  21559436.174   -17403369.33749 -13544310.08047  21559435.004    21559447.095
       237.000         194.000
  23976817.223    -5601452.25249  -4343395.07545  23976815.986    23976833.275
       218.000         154.000
  20860600.075    -7990392.83949  -6208698.19847  20860599.118    20860609.095
       242.000         208.000
  21670475.974   -16838504.31249 -13106610.67447  21670475.162    21670487.083
       231.000         188.000
  20490178.679    -7112508.39549  -5524844.03547  20490178.255    20490188.176
       245.000         210.000
  24348534.910    19353510.59849  15080018.90845  24348535.370    24348554.635
       211.000         145.000
  23649973.848    -6908996.09049  -5188912.79845  23649971.755    23649991.649
       206.000         149.000
  21201690.616   -19344230.31449 -15016104.94347  21201689.516    21201699.702
       241.000         204.000
  24491038.772    18768914.46149  14625819.48345  24491037.248    24491054.036
       209.000         140.000
  21146936.135   -13318925.98949 -10361685.41647  21146935.032    21146946.454
       240.000         204.000
 02  2 24  1 21  0.0000000  0 10G15G21G23G26G 6G30G22G18G10G17
  21550724.233   -17449150.59149 -13579983.66347  21550723.065    21550735.281
       236.000         195.000
  23961274.922    -5683127.16249  -4407037.52245  23961273.006    23961290.719
       218.000         155.000
  20868079.658    -7951087.05549  -6178070.29547  20868078.610    20868088.908
       242.000         208.000
  21666482.938   -16859487.16749 -13122960.84347  21666482.137    21666494.108
       233.000         188.000
  20496900.340    -7077185.81449  -5497319.93247  20496899.782    20496909.538
       245.000         209.000
  24367339.898    19452329.83749  15157020.61045  24367340.361    24367359.114
       211.000         145.000
  23647784.975    -6920497.65449  -5197874.95045  23647783.780    23647801.583
       206.000         149.000
  21190818.385   -19401363.66749 -15060624.32047  21190817.602    21190827.530
       241.000         204.000
  24510713.586    18872306.19949  14706384.51745  24510712.747    24510728.179
       211.000         140.000
  21141848.934   -13345658.80349 -10382516.09647  21141847.793    21141859.293
       239.000         204.000
 02  2 24  1 21 30.0000000  0 10G15G21G23G26G 6G30G22G18G10G17
  21542038.024   -17494796.36849 -13615551.68447  21542036.369    21542049.137
       236.000         194.000
  23945773.478    -5764586.49349  -4470511.97945  23945772.027    23945789.035
       216.000         157.000
  20875627.146    -7911424.53249  -6147164.41747  20875626.245    20875636.418
       242.000         208.000
  21662606.246   -16879858.84049 -13138834.76847  21662605.880    21662617.319
       231.000         188.000
  20503715.075    -7041374.04449  -5469414.64347  20503714.394    20503724.269
       244.000         209.000
  24386128.224    19551062.28849  15233954.69145  24386129.314    24386147.820
       207.000         144.000
  23645695.182    -6931480.37949  -5206432.77045  23645694.017    23645712.296
       209.000         151.000
  21180024.712   -19458084.60149 -15104822.33747  21180023.875    21180033.695
       242.000         204.000
  24530388.033    18975696.86449  14786948.71745  24530387.496    24530402.905
       211.000         140.000
  21136785.419   -13372267.25649 -10403249.87647  21136784.359    21136795.566
       240.000         204.000
 02  2 24  1 22  0.0000000  0 10G15G21G23G26G 6G30G22G18G10G17
  21533377.619   -17540306.27849 -13651013.83647  21533376.054    21533389.047
       235.000         195.000
  23930313.394    -5845828.50049  -4533817.10045  23930311.490    23930328.747
       219.000         158.000
  20883242.315    -7871406.69549  -6115981.67247  20883241.573    20883251.416
       242.000         208.000
  21658846.272   -16899617.44249 -13154230.98647  21658846.273    21658856.699
       232.000         188.000
  20510622.963    -7005072.82649  -5441127.97247  20510622.182    20510632.529
       244.000         209.000
  24404899.565    19649705.89849  15310819.53245  24404898.810    24404920.494
       208.000         143.000
  23643703.858    -6941944.12149  -5214586.20245  23643702.645    23643721.462
       208.000         152.000
  21169309.743   -19514391.81049 -15148697.97047  21169308.633    21169318.695
       241.000         204.000
  24550062.201    19079085.22849  14867511.11645  24550061.166    24550076.890
       212.000         140.000
  21131745.637   -13398751.01149 -10423886.48747  21131744.668    21131755.899
       240.000         204.000
 02  2 24  1 22 30.0000000  0 10G15G21G23G26G 6G30G22G18G10G17
  21524742.979   -17585680.88849 -13686370.54647  21524741.522    21524754.232
       236.000         195.000
  23914894.561    -5926853.56949  -4596953.17845  23914891.335    23914909.775
       217.000         156.000
  20890924.542    -7831036.37049  -6084524.25947  20890923.485    20890933.769
       242.000         208.000
  21655203.090   -16918762.20249 -13169148.88547  21655202.835    21655214.068
       233.000         189.000
  20517623.789    -6968283.12649  -5412460.66747  20517622.965    20517633.357
       244.000         209.000
  24423653.486    19748257.46249  15387612.66645  24423655.115    24423674.288
       210.000         143.000
  23641811.370    -6951889.91249  -5222336.02445  23641810.805    23641828.518
       213.000         154.000
  21158673.321   -19570285.62849 -15192251.48047  21158672.206    21158681.830
       242.000         204.000
  24569735.549    19182468.70149  14948069.69845  24569734.207    24569749.945
       213.000         141.000
  21126729.609   -13425110.53049 -10444426.28847  21126728.960    21126739.633
       241.000         204.000
 02  2 24  1 23  0.0000000  0 10G15G21G23G26G 6G30G22G18G10G17
  21516134.184   -17630919.82549 -13721621.55047  21516132.681    21516145.561
       236.000         195.000
  23899517.205    -6007660.25949  -4659919.09245  23899514.530    23899532.413
       215.000         154.000
  20898673.440    -7790315.45249  -6052793.65647  20898672.520    20898682.722
       242.000         208.000
  21651677.069   -16937291.49549 -13183587.18647  21651677.036    21651687.619
       233.000         189.000
  20524717.551    -6931004.98949  -5383412.76147  20524716.864    20524727.020
       243.000         208.000
  24442389.492    19846714.57049  15464332.18545  24442389.536    24442409.013
       212.000         143.000
  23640017.392    -6961317.96549  -5229682.42645  23640016.157    23640034.179
       212.000         156.000
  21148115.804   -19625765.29949 -15235482.27847  21148114.655    21148124.871
       242.000         204.000
  24589407.470    19285845.48449  15028623.09145  24589406.198    24589421.336
       215.000         142.000
  21121737.296   -13451345.64349 -10464869.15747  21121736.516    21121747.325
       241.000         205.000
 02  2 24  1 23 30.0000000  0 10G15G21G23G26G 6G30G22G18G10G17
  21507551.256   -17676022.89449 -13756766.68247  21507550.073    21507561.937
       237.000         194.000
  23884181.545    -6088247.50949  -4722714.02445  23884179.547    23884196.793
       215.000         153.000
  20906488.731    -7749245.76549  -6020791.29547  20906487.870    20906498.218
       242.000         208.000
  21648268.418   -16955203.90549 -13197544.81147  21648267.436    21648279.158
       233.000         189.000
  20531904.201    -6893238.46849  -5353984.29647  20531903.639    20531913.801
       243.000         207.000
  24461106.998    19945074.92349  15540976.31545  24461107.048    24461128.614
       208.000         141.000
  23638321.872    -6970228.41949  -5236625.49445  23638321.610    23638338.187
       215.000         158.000
  21137637.354   -19680829.82449 -15278389.59547  21137636.189    21137646.239
       242.000         205.000
  24609077.908    19389213.90849  15109169.97245  24609077.470    24609090.152
       215.000         142.000
  21116768.715   -13477455.89149 -10485214.72647  21116767.696    21116779.026
       241.000         205.000
 02  2 24  1 24  0.0000000  0 10G15G21G23G26G 6G30G22G18G10G17
  21498994.282   -17720990.05049 -13791805.91647  21498993.067    21499004.666
       237.000         194.000
  23868887.929    -6168614.45349  -4785337.28245  23868885.424    23868903.703
       214.000         153.000
  20914370.034    -7707829.42449  -5988518.80447  20914369.084    20914379.272
       242.000         208.000
  21644977.302   -16972498.33449 -13211020.87747  21644976.944    21644987.802
       231.000         189.000
  20539183.750    -6854984.00249  -5324175.61547  20539183.229    20539193.471
       243.000         208.000
  24479805.479    20043335.80149  15617542.91845  24479806.872    24479825.632
       211.000         140.000
  23636724.690    -6978621.78749  -5243165.64245  23636723.357    23636741.116
       215.000         159.000
  21127237.824   -19735479.05249 -15320973.29147  21127236.718    21127246.827
       242.000         205.000
  24628746.374    19492571.86449  15189708.72345  24628744.335    24628761.100
       213.000         141.000
  21111823.747   -13503441.38749 -10505463.08547  21111822.499    21111833.818
       240.000         205.000
 02  2 24  1 24 30.0000000  0 10G15G21G23G26G 6G30G22G18G10G17
  21490463.175   -17765820.98349 -13826738.99247  21490462.173    21490473.638
       237.000         195.000
  23853636.321    -6248759.86549  -4847787.92645  23853634.472    23853651.815
       214.000         151.000
  20922316.901    -7666068.03949  -5955977.44847  20922316.072    20922326.268
       242.000         208.000
  21641804.156   -16989173.05749 -13224014.06947  21641803.791    21641814.825
       233.000         189.000
  20546556.204    -6816241.50149  -5293986.65247  20546555.725    20546565.866
       243.000         208.000
  24498484.640    20141494.87449  15694030.19045  24498486.251    24498505.453
       208.000         140.000
  23635225.831    -6986498.25549  -5249303.00945  23635224.634    23635241.865
       218.000         160.000
  21116917.576   -19789711.97349 -15363232.60347  21116916.633    21116926.639
       242.000         205.000
  24648412.275    19595918.10649  15270238.31445  24648410.960    24648427.249
       213.000         142.000
  21106902.566   -13529301.67249 -10525613.87547  21106901.376    21106912.774
       241.000         205.000
 02  2 24  1 25  0.0000000  0 10G15G21G23G26G 6G30G22G18G10G17
  21481958.070   -17810515.23549 -13861565.56147  21481956.671    21481969.080
       237.000         195.000
  23838427.183    -6328682.51349  -4910064.99645  23838425.971    23838442.357
       216.000         150.000
  20930329.074    -7623963.65549  -5923168.82147  20930328.175    20930338.582
       242.000         208.000
  21638749.193   -17005226.67049 -13236523.27347  21638748.636    21638759.893
       232.000         189.000
  20554021.504    -6777011.01849  -5263417.44147  20554021.067    20554031.171
       243.000         208.000
  24517143.899    20239549.84649  15770436.34945  24517143.984    24517165.057
       206.000         138.000
  23633825.392    -6993857.85849  -5255037.64045  23633824.514    23633841.892
       218.000         161.000
  21106676.629   -19843527.92449 -15405166.99847  21106675.662    21106685.674
       242.000         205.000
  24668075.688    19699250.57949  15350757.17645  24668073.448    24668090.710
       214.000         143.000
  21102005.287   -13555036.40049 -10545666.83247  21102004.236    21102015.598
       240.000         206.000
 02  2 24  1 25 30.0000000  0 10G15G21G23G26G 6G30G22G18G10G17
  21473478.849   -17855073.51149 -13896286.17647  21473477.581    21473489.567
       237.000         196.000
  23823260.743    -6408382.32049  -4972168.42145  23823258.871    23823276.231
       218.000         152.000
  20938406.011    -7581519.13249  -5890095.15347  20938405.004    20938415.364
       241.000         207.000
  21635812.420   -17020658.87849 -13248548.25847  21635811.839    21635823.136
       232.000         189.000
  20561579.455    -6737293.74449  -5232468.90447  20561578.895    20561588.997
       244.000         208.000
  24535782.746    20337497.29549  15846758.68545  24535785.019    24535803.987
       206.000         138.000
  23632523.010    -7000702.23749  -5260370.80746  23632521.616    23632539.074
       219.000         163.000
  21096514.971   -19896927.31249 -15446776.79447  21096513.717    21096524.142
       242.000         205.000
  24687736.010    19802566.56449  15431263.21445  24687735.306    24687749.765
       212.000         144.000
  21097131.866   -13580646.21049 -10565622.45747  21097131.140    21097141.795
       242.000         206.000
 02  2 24  1 26  0.0000000  0 10G15G21G23G26G 6G30G22G18G10G17
  21465025.653   -17899494.95449 -13930900.17147  21465023.973    21465036.575
       237.000         196.000
  23808136.807    -6487857.87549  -5034097.11245  23808134.851    23808150.001
       217.000         151.000
  20946547.404    -7538735.76549  -5856757.45047  20946546.438    20946556.664
       241.000         207.000
  21632994.400   -17035467.45049 -13260087.30647  21632993.700    21633004.865
       232.000         189.000
  20569230.152    -6697089.06349  -5201140.57347  20569229.479    20569239.764
       243.000         208.000
  24554400.972    20435335.74649  15922996.08945  24554401.711    24554421.918
       209.000         138.000
  23631318.756    -7007030.85549  -5265302.06546  23631317.619    23631334.535
       219.000         164.000
  21086432.790   -19949908.79149 -15488060.95347  21086431.667    21086441.532
       242.000         206.000
  24707392.901    19905865.36049  15511755.87445  24707391.379    24707407.982
       208.000         143.000
  21092282.514   -13606130.11749 -10585479.98447  21092281.697    21092292.228
       242.000         206.000
 02  2 24  1 26 30.0000000  0 10G15G21G23G26G 6G30G22G18G10G17
  21456597.968   -17943782.05649 -13965409.48447  21456596.627    21456608.833
       237.000         196.000
  23793055.231    -6567110.66249  -5095852.22745  23793052.622    23793070.246
       218.000         152.000
  20954752.422    -7495617.97149  -5823159.15647  20954751.727    20954761.544
       241.000         207.000
  21630294.711   -17049653.86449 -13271141.55147  21630294.039    21630305.796
       232.000         189.000
  20576973.054    -6656399.85149  -5169434.68947  20576972.488    20576982.706
       244.000         208.000
  24572997.644    20533060.05049  15999144.56245  24572999.786    24573019.788
       209.000         139.000
  23630211.992    -7012846.59749  -5269833.70946  23630211.025    23630228.229
       219.000         165.000
  21076429.937   -20002474.11849 -15529020.84847  21076428.912    21076438.455
       242.000         206.000
  24727045.824    20009142.71749  15592231.80245  24727044.004    24727061.129
       209.000         140.000
  21087456.552   -13631490.39649 -10605241.17847  21087455.548    21087466.036
       242.000         206.000
 02  2 24  1 27  0.0000000  0  9G15G21G23G26G 6G30G22G18G17
  21448196.790   -17987930.36149 -13999810.63747  21448195.783    21448207.286
       239.000         197.000
  23778017.036    -6646135.85749  -5157429.98745  23778015.692    23778031.129
       217.000         154.000
  20963021.514    -7452163.56749  -5789298.55747  20963020.543    20963030.894
       241.000         207.000
  21627714.398   -17063212.77849 -13281706.83247  21627713.815    21627725.036
       232.000         189.000
  20584808.859    -6615222.31849  -5137348.29647  20584808.584    20584818.283
       244.000         208.000
  24591572.918    20630671.98449  16075205.44445  24591573.818    24591594.803
       208.000         140.000
  23629203.633    -7018145.88649  -5273962.91946  23629201.864    23629219.078
       220.000         164.000
  21066507.003   -20054619.08849 -15569653.18247  21066505.782    21066515.560
       242.000         205.000
  21082654.944   -13656722.74949 -10624902.68647  21082653.802    21082664.628
       241.000         206.000
 02  2 24  1 27 30.0000000  0  9G15G21G23G26G 6G30G22G18G17
  21439822.318   -18031938.62149 -14034102.67147  21439821.171    21439832.945
       239.000         197.000
  23763022.477    -6724931.40349  -5218828.80345  23763020.613    23763036.988
       219.000         155.000
  20971354.429    -7408373.70749  -5755176.56947  20971353.304    20971363.883
       240.000         206.000
  21625254.024   -17076141.99049 -13291781.44447  21625253.868    21625264.275
       233.000         189.000
  20592737.769    -6573555.96849  -5104881.00147  20592737.375    20592746.948
       244.000         208.000
  24610126.588    20728170.09549  16151177.60745  24610128.333    24610148.101
       207.000         141.000
  23628293.440    -7022928.34749  -5277689.41446  23628292.384    23628309.616
       219.000         164.000
  21056664.373   -20106341.92949 -15609956.59447  21056663.445    21056672.936
       243.000         206.000
  21077877.908   -13681825.99549 -10644463.59347  21077876.939    21077887.835
       241.000         206.000
 02  2 24  1 28  0.0000000  0  9G15G21G23G26G 6G30G22G18G17
  21431473.522   -18075811.44949 -14068289.17247  21431472.071    21431483.677
       237.000         197.000
  23748070.898    -6803500.85449  -5280051.44245  23748069.753    23748084.903
       218.000         155.000
  20979749.858    -7364254.99349  -5720798.33047  20979748.872    20979759.107
       241.000         206.000
  21622912.734   -17088445.05849 -13301368.14747  21622911.890    21622923.376
       232.000         189.000
  20600758.669    -6531405.76949  -5072036.67747  20600757.932    20600768.090
       244.000         207.000
  24628657.258    20825547.29749  16227055.55545  24628657.635    24628677.940
       209.000         140.000
  23627480.756    -7027198.98349  -5281017.08846  23627479.017    23627496.134
       219.000         164.000
  21046901.410   -20157646.58049 -15649934.14447  21046900.344    21046909.836
       242.000         206.000
  21073124.579   -13706804.55549 -10663927.33847  21073123.610    21073134.395
       241.000         206.000
 02  2 24  1 28 30.0000000  0  9G15G21G23G26G 6G30G22G18G17
  21423150.628   -18119547.78749 -14102369.31747  21423149.202    21423160.940
       238.000         197.000
  23733162.687    -6881842.77749  -5341096.80645  23733161.764    23733177.568
       218.000         156.000
  20988207.697    -7319808.65549  -5686164.80047  20988206.857    20988216.852
       241.000         206.000
  21620690.911   -17100120.20849 -13310465.56647  21620690.607    21620701.131
       233.000         189.000
  20608871.716    -6488771.26649  -5038814.98047  20608871.245    20608881.229
       244.000         207.000
  24647164.760    20922801.99049  16302838.07445  24647165.922    24647185.649
       206.000         138.000
  23626765.487    -7030957.64249  -5283945.81446  23626764.941    23626780.911
       220.000         163.000
  21037218.066   -20208532.16049 -15689585.14247  21037217.048    21037226.356
       242.000         206.000
  21068395.228   -13731657.25249 -10683293.00947  21068394.114    21068404.933
       241.000         206.000
 02  2 24  1 29  0.0000000  0  9G15G21G23G26G 6G30G22G18G17
  21414853.915   -18163146.94149 -14136342.57847  21414852.776    21414864.205
       238.000         197.000
  23718298.066    -6959955.85049  -5401963.83645  23718296.375    23718312.935
       219.000         157.000
  20996727.512    -7275036.39849  -5651277.29947  20996726.329    20996736.934
       240.000         206.000
  21618589.041   -17111165.92349 -13319072.52547  21618588.762    21618599.272
       233.000         190.000
  20617076.956    -6445652.55649  -5005215.98347  20617076.445    20617086.290
       241.000         207.000
  24665648.294    21019932.05249  16378523.46645  24665648.277    24665670.475
       205.000         136.000
  23626147.483    -7034204.55349  -5286475.77445  23626146.259    23626164.033
       219.000         162.000
  21027614.674   -20258997.91549 -15728909.00947  21027613.646    21027623.321
       242.000         206.000
  21063689.880   -13756383.66849 -10702560.27847  21063688.812    21063699.596
       240.000         206.000
 02  2 24  1 29 30.0000000  0  9G15G21G23G26G 6G30G22G18G17
  21406583.281   -18206608.96449 -14170208.98247  21406581.592    21406593.941
       238.000         197.000
  23703477.245    -7037839.00849  -5462651.70345  23703475.985    23703492.731
       218.000         158.000
  21005308.993    -7229940.28649  -5616137.44647  21005308.038    21005318.687
       240.000         206.000
  21616606.933   -17121581.31549 -13327188.31447  21616606.385    21616617.181
       233.000         189.000
  20625374.163    -6402050.14049  -4971240.07447  20625373.501    20625383.650
       242.000         207.000
  24684107.640    21116935.03049  16454109.81745  24684109.886    24684129.833
       206.000         136.000
  23625626.629    -7036940.42549  -5288607.52845  23625625.130    23625641.502
       218.000         160.000
  21018091.280   -20309043.24949 -15767905.27547  21018090.409    21018099.963
       242.000         207.000
  21059008.598   -13780983.53349 -10721728.94247  21059007.612    21059018.215
       241.000         206.000
 02  2 24  1 30  0.0000000  0  8G15G21G23G26G 6G22G18G17
  21398339.650   -18249928.43249 -14203964.29347  21398338.049    21398350.660
       238.000         197.000
  23688701.187    -7115486.28249  -5523155.78845  23688699.545    23688715.594
       218.000         158.000
  21013952.770    -7184516.99349  -5580742.64747  21013951.954    21013962.003
       241.000         206.000
  21614746.122   -17131359.80449 -13334807.82047  21614745.153    21614756.525
       233.000         190.000
  20633764.395    -6357959.03849  -4936883.36047  20633763.733    20633774.018
       241.000         206.000
  23625204.046    -7039160.36649  -5290337.23545  23625202.363    23625219.588
       217.000         159.000
  21008648.991   -20358662.44549 -15806569.48347  21008647.846    21008657.571
       242.000         207.000
  21054352.553   -13805451.18849 -10740794.58247  21054351.386    21054362.237
       241.000         206.000
 02  2 24  1 30 30.0000000  0  8G15G21G23G26G 6G22G18G17
  21390122.669   -18293108.30549 -14237610.83947  21390121.517    21390133.184
       239.000         198.000
  23673969.623    -7192900.04549  -5583477.90245  23673968.253    23673984.344
       219.000         159.000
  21022657.678    -7138772.15349  -5545097.28847  21022656.668    21022667.123
       241.000         206.000
  21613005.960   -17140504.08649 -13341933.13747  21613005.458    21613015.804
       233.000         190.000
  20642246.864    -6313383.46549  -4902149.14547  20642246.270    20642256.429
       241.000         207.000
  23624878.845    -7040868.69049  -5291668.30645  23624878.227    23624893.780
       217.000         158.000
  20999287.219   -20407858.46849 -15844903.94747  20999286.167    20999295.642
       242.000         206.000
  21049720.987   -13829789.88549 -10759759.74047  21049719.922    21049730.846
       241.000         205.000
 02  2 24  1 31  0.0000000  0  8G15G21G23G26G 6G22G18G17
  21381931.642   -18336152.56349 -14271151.71447  21381930.617    21381942.364
       239.000         198.000
  23659281.762    -7270084.07049  -5643621.00345  23659280.071    23659295.981
       218.000         159.000
  21031422.604    -7092711.90049  -5509206.15347  21031421.700    21031432.058
       241.000         206.000
  21611385.841   -17149017.43049 -13348566.80947  21611385.379    21611395.833
       233.000         189.000
  20650820.591    -6268327.96249  -4867040.95947  20650819.975    20650830.091
       241.000         206.000
  23624650.057    -7042069.98449  -5292604.28345  23624648.496    23624665.818
       216.000         156.000
  20990005.220   -20456635.25949 -15882911.74147  20990004.232    20990013.664
       243.000         207.000
  21045113.218   -13854003.55849 -10778627.47347  21045112.112    21045122.882
       240.000         205.000
 02  2 24  1 31 30.0000000  0  8G15G21G23G26G 6G22G18G17
  21373766.646   -18379059.66849 -14304585.72347  21373765.830    21373777.292
       240.000         198.000
  23644637.954    -7347036.30849  -5703583.51145  23644636.439    23644652.664
       218.000         160.000
  21040247.451    -7046337.09349  -5473069.90947  21040246.540    21040256.919
       242.000         206.000
  21609886.237   -17156897.58849 -13354707.10447  21609885.697    21609896.420
       233.000         190.000
  20659485.784    -6222791.73949  -4831558.19147  20659485.266    20659495.273
       242.000         206.000
  23624517.858    -7042763.82049  -5293144.84245  23624516.018    23624533.998
       215.000         156.000
  20980803.353   -20504991.12849 -15920591.54147  20980802.223    20980811.776
       242.000         208.000
  21040529.521   -13878090.68049 -10797396.60047  21040528.435    21040539.298
       240.000         205.000
 02  2 24  1 32  0.0000000  0  8G15G21G23G26G 6G22G18G17
  21365627.866   -18421828.93749 -14337912.32047  21365626.405    21365638.267
       238.000         198.000
  23630038.580    -7423755.00349  -5763364.04345  23630037.056    23630052.412
       219.000         161.000
  21049131.901    -6999649.10049  -5436689.62547  21049131.040    21049141.317
       241.000         207.000
  21608507.338   -17164143.13549 -13360352.88547  21608506.802    21608517.789
       232.000         190.000
  20668242.596    -6176774.66049  -4795700.72647  20668242.174    20668251.941
       242.000         206.000
  23624482.119    -7042950.47149  -5293290.18745  23624479.803    23624496.402
       213.000         154.000
  20971681.682   -20552925.18749 -15957942.65747  20971680.917    20971690.098
       243.000         208.000
  21035970.107   -13902050.35749 -10816066.41747  21035969.012    21035979.876
       240.000         205.000
 02  2 24  1 32 30.0000000  0  8G15G21G23G26G 6G22G18G17
  21357515.307   -18464459.56549 -14371130.88047  21357513.841    21357525.404
       237.000         197.000
  23615483.970    -7500239.00449  -5822961.69745  23615483.361    23615497.603
       220.000         162.000
  21058075.607    -6952649.40349  -5400066.44947  21058074.658    21058084.706
       241.000         206.000
  21607249.472   -17170752.72549 -13365503.11347  21607249.083    21607259.661
       233.000         190.000
  20677090.873    -6130276.76649  -4759468.59747  20677090.278    20677100.438
       242.000         207.000
  23624542.851    -7042629.96249  -5293040.34845  23624541.200    23624558.866
       214.000         154.000
  20962640.560   -20600436.66149 -15994964.48747  20962639.537    20962649.063
       243.000         208.000
  21031435.004   -13925881.82949 -10834636.33147  21031433.781    21031444.769
       240.000         205.000
 02  2 24  1 33  0.0000000  0  8G15G21G23G26G 6G22G18G17
  21349429.253   -18506951.64849 -14404241.49947  21349427.929    21349439.357
       238.000         197.000
  23600974.009    -7576488.51749  -5882376.65446  23600972.027    23600989.104
       221.000         163.000
  21067078.106    -6905340.73349  -5363202.52747  21067077.126    21067087.211
       242.000         206.000
  21606112.749   -17176725.94749 -13370157.48647  21606112.120    21606123.215
       233.000         190.000
  20686030.438    -6083299.09649  -4722862.62547  20686030.089    20686040.051
       242.000         207.000
  23624699.992    -7041803.62949  -5292396.38545  23624698.562    23624715.041
       212.000         152.000
  20953679.743   -20647525.60149 -16031657.07547  20953678.770    20953688.460
       243.000         208.000
  21026924.337   -13949585.02149 -10853106.28947  21026923.314    21026934.068
       240.000         205.000
 02  2 24  1 33 30.0000000  0  8G15G21G23G26G 6G22G18G17
  21341369.708   -18549304.85649 -14437243.89347  21341368.518    21341380.104
       239.000         197.000
  23586508.930    -7652501.62849  -5941607.39645  23586507.910    23586523.198
       221.000         162.000
  21076139.165    -6857724.77749  -5326099.15647  21076138.323    21076148.255
       242.000         206.000
  21605097.324   -17182061.74749 -13374315.15747  21605096.633    21605107.472
       232.000         189.000
  20695061.327    -6035841.78949  -4685882.90147  20695060.738    20695070.675
       242.000         207.000
  23624953.279    -7040471.84949  -5291358.53845  23624952.456    23624969.408
       212.000         151.000
  20944799.465   -20694191.44949 -16068019.96847  20944798.288    20944808.004
       243.000         209.000
  21022438.128   -13973159.69749 -10871476.09447  21022437.040    21022447.979
       240.000         205.000
 02  2 24  1 34  0.0000000  0  8G15G21G23G26G 6G22G18G17
  21333336.511   -18591518.88349 -14470137.83247  21333335.129    21333346.706
       239.000         198.000
  23572089.160    -7728277.63549  -6000653.40345  23572088.253    23572103.478
       222.000         162.000
  21085258.261    -6809803.52349  -5288757.89147  21085257.650    21085267.487
       241.000         206.000
  21604203.283   -17186759.42849 -13377975.58947  21604203.011    21604213.866
       233.000         190.000
  20704183.322    -5987905.45049  -4648529.90647  20704182.942    20704192.820
       242.000         207.000
  23625302.615    -7038635.51649  -5289927.55845  23625300.395    23625319.136
       211.000         151.000
  20935999.779   -20740433.73049 -16104052.81447  20935998.840    20936008.330
       243.000         209.000
  21017976.507   -13996605.29749 -10889745.32647  21017975.648    21017986.338
       240.000         206.000
 02  2 24  1 34 30.0000000  0  8G15G21G23G26G 6G22G18G17
  21325329.878   -18633593.37049 -14502923.04147  21325328.782    21325340.220
       239.000         198.000
  23557714.560    -7803815.78949  -6059514.04745  23557713.654    23557727.967
       221.000         162.000
  21094435.106    -6761579.04949  -5251180.35447  21094434.237    21094444.425
       241.000         207.000
  21603430.862   -17190818.11049 -13381138.10647  21603430.266    21603441.024
       232.000         190.000
  20713396.323    -5939490.81049  -4610804.21047  20713395.745    20713405.802
       242.000         207.000
  23625747.871    -7036295.31849  -5288103.95445  23625746.516    23625765.121
       214.000         152.000
  20927280.737   -20786252.23949 -16139755.45047  20927279.826    20927288.945
       244.000         209.000
  21013539.653   -14019921.39349 -10907913.64647  21013538.750    21013549.442
       241.000         206.000
 02  2 24  1 35  0.0000000  0  8G15G21G23G26G 6G22G18G17
  21317349.863   -18675528.22249 -14535599.45447  21317348.697    21317360.190
       238.000         198.000
  23543385.303    -7879115.56549  -6118188.96045  23543383.155    23543399.413
       221.000         162.000
  21103669.136    -6713053.56149  -5213368.26347  21103668.234    21103678.184
       242.000         206.000
  21602780.088   -17194237.27349 -13383802.29747  21602779.807    21602790.475
       233.000         190.000
  20722700.226    -5890598.57149  -4572706.36147  20722699.684    20722710.144
       243.000         207.000
  23626288.934    -7033452.18849  -5285888.46745  23626287.581    23626303.540
       211.000         153.000
  20918642.384   -20831646.75849 -16175127.71147  20918641.426    20918650.779
       244.000         209.000
  21009127.380   -14043107.89949 -10925980.99247  21009126.614    21009137.122
       241.000         206.000
 02  2 24  1 35 30.0000000  0  8G15G21G23G26G 6G22G18G17
  21309396.498   -18717322.80249 -14568166.55447  21309395.113    21309407.091
       238.000         198.000
  23529101.391    -7954176.58949  -6176677.83745  23529099.843    23529115.148
       221.000         162.000
  21112960.188    -6664228.74349  -5175322.93047  21112959.312    21112969.263
       241.000         206.000
  21602251.319   -17197015.88549 -13385967.35747  21602250.943    21602261.847
       233.000         190.000
  20732094.911    -5841229.08549  -4534236.63347  20732094.400    20732104.529
       242.000         207.000
  23626925.593    -7030106.76749  -5283281.57845  23626925.030    23626941.663
       216.000         155.000
  20910084.788   -20876616.94249 -16210169.31647  20910083.910    20910093.150
       244.000         210.000
  21004739.932   -14066164.16249 -10943946.84547  21004738.972    21004749.718
       241.000         206.000
 02  2 24  1 36  0.0000000  0  8G15G21G23G26G 6G22G18G17
  21301469.811   -18758977.22249 -14600624.43747  21301468.420    21301480.222
       239.000         198.000
  23514863.159    -8028998.03749  -6234980.02845  23514861.350    23514877.417
       221.000         162.000
  21122307.689    -6615107.10249  -5137046.30847  21122307.051    21122316.450
       242.000         205.000
  21601844.357   -17199153.71549 -13387633.10747  21601843.585    21601854.264
       233.000         189.000
  20741580.201    -5791383.49149  -4495395.90847  20741579.593    20741589.809
       242.000         206.000
  23627657.815    -7026260.28349  -5280284.23045  23627655.504    23627674.622
       215.000         156.000
  20901607.948   -20921162.82149 -16244880.29447  20901606.889    20901616.116
       244.000         210.000
  21000377.265   -14089090.21349 -10961811.23147  21000376.422    21000386.922
       241.000         206.000
 02  2 24  1 36 30.0000000  0  8G15G21G23G26G 6G22G18G17
  21293570.003   -18800490.83449 -14632972.61447  21293568.709    21293579.965
       240.000         198.000
  23500670.768    -8103578.42449  -6293094.37646  23500668.576    23500684.293
       222.000         163.000
  21131711.374    -6565690.50149  -5098539.84647  21131710.461    21131720.476
       242.000         206.000
  21601559.552   -17200650.11249 -13388799.04147  21601559.262    21601569.694
       233.000         189.000
  20751156.005    -5741062.22049  -4456184.52547  20751155.144    20751165.551
       241.000         206.000
  23628484.854    -7021913.45949  -5276897.01745  23628483.651    23628499.594
       215.000         156.000
  20893211.892   -20965283.87649 -16279260.24447  20893210.931    20893219.954
       243.000         209.000
  20996039.422   -14111885.32949 -10979573.59647  20996038.485    20996049.009
       240.000         206.000
 02  2 24  1 37  0.0000000  0  8G15G21G23G26G 6G22G18G17
  21285696.967   -18841863.88549 -14665211.25847  21285696.219    21285706.763
       240.000         199.000
  23486524.353    -8177917.67449  -6351020.83246  23486522.929    23486538.836
       222.000         163.000
  21141170.721    -6515981.21549  -5059805.31747  21141169.783    21141180.173
       241.000         206.000
  21601396.820   -17201504.72349 -13389464.88147  21601396.055    21601407.070
       233.000         189.000
  20760822.112    -5690266.27549  -4416603.27047  20760821.322    20760831.774
       242.000         206.000
  23629407.115    -7017067.51449  -5273120.85745  23629404.733    23629422.453
       215.000         155.000
  20884896.623   -21008980.49949 -16313309.46847  20884895.648    20884904.925
       243.000         209.000
  20991726.476   -14134549.67149 -10997234.05347  20991725.131    20991736.073
       240.000         206.000
 02  2 24  1 37 30.0000000  0  8G15G21G23G26G 6G22G18G17
  21277850.820   -18883095.62249 -14697339.78447  21277849.661    21277861.046
       240.000         200.000
  23472424.072    -8252014.65149  -6408758.50046  23472422.700    23472438.053
       222.000         164.000
  21150685.409    -6465981.04349  -5020844.12947  21150684.506    21150694.398
       241.000         205.000
  21601356.346   -17201716.67049 -13389629.94247  21601356.032    21601366.328
       233.000         189.000
  20770578.501    -5638996.09449  -4376652.47547  20770577.918    20770588.073
       241.000         206.000
  23630423.906    -7011723.05349  -5268956.28145  23630423.878    23630439.175
       215.000         154.000
  20876662.242   -21052252.12149 -16347027.51747  20876661.188    20876670.525
       243.000         210.000
  20987438.525   -14157082.41049 -11014791.96047  20987437.289    20987447.979
       241.000         206.000
 02  2 24  1 38  0.0000000  0  8G15G21G23G26G 6G22G18G17
  21270031.554   -18924185.85249 -14729358.04347  21270030.175    21270042.009
       239.000         200.000
  23458369.785    -8325869.42049  -6466307.44346  23458367.950    23458383.137
       222.000         164.000
  21160255.009    -6415692.24949  -4981658.04747  21160254.181    21160264.050
       241.000         205.000
  21601438.328   -17201285.74449 -13389294.07647  21601438.086    21601448.687
       233.000         189.000
  20780424.892    -5587252.78149  -4336333.00747  20780424.302    20780434.324
       241.000         205.000
  23631535.557    -7005881.32249  -5264404.19345  23631534.219    23631549.967
       214.000         153.000
  20868508.774   -21095098.51249 -16380414.21647  20868507.673    20868516.890
       243.000         209.000
  20983175.692   -14179483.52049 -11032247.30147  20983174.780    20983185.114
       241.000         206.000
 02  2 24  1 38 30.0000000  0  8G15G21G23G26G 6G22G18G17
  21262239.176   -18965134.34449 -14761265.85347  21262237.909    21262249.427
       240.000         201.000
  23444361.935    -8399480.81649  -6523666.73846  23444360.357    23444376.413
       222.000         164.000
  21169879.268    -6365116.84749  -4942248.63247  21169878.388    21169888.285
       241.000         205.000
  21601642.701   -17200211.19549 -13388456.67147  21601642.334    21601653.136
       233.000         189.000
  20790361.261    -5535037.03649  -4295645.40747  20790360.683    20790370.795
       242.000         205.000
  23632741.599    -6999543.25949  -5259465.34545  23632740.494    23632757.803
       215.000         154.000
  20860436.226   -21137519.46749 -16413469.41647  20860435.221    20860444.395
       243.000         209.000
  20978938.076   -14201752.50549 -11049599.69247  20978937.214    20978947.452
       242.000         206.000
 02  2 24  1 39  0.0000000  0  8G15G21G23G26G 6G22G18G17
  21254473.829   -19005940.90449 -14793063.06547  21254472.535    21254483.887
       240.000         201.000
  23430400.350    -8472848.57049  -6580836.18546  23430398.693    23430413.700
       223.000         165.000
  21179557.561    -6314256.90449  -4902617.49447  21179556.438    21179566.797
       241.000         205.000
  21601969.698   -17198492.75649 -13387117.55447  21601969.498    21601979.710
       234.000         190.000
  20800387.360    -5482349.57349  -4254590.23247  20800386.822    20800396.637
       241.000         205.000
  23634041.928    -6992709.83049  -5254140.50045  23634040.514    23634056.936
       214.000         153.000
  20852444.641   -21179515.10949 -16446193.20147  20852443.474    20852452.783
       243.000         209.000
  20974725.607   -14223889.01149 -11066848.85447  20974724.560    20974735.138
       241.000         207.000
 02  2 24  1 39 30.0000000  0  8G15G21G23G26G 6G22G18G17
  21246735.629   -19046605.24449 -14824749.46747  21246734.772    21246745.825
       241.000         201.000
  23416485.262    -8545971.78949  -6637815.08146  23416484.575    23416498.900
       223.000         164.000
  21189289.593    -6263114.59949  -4862766.32847  21189288.631    21189298.981
       241.000         205.000
  21602419.270   -17196129.93449 -13385276.31447  21602418.737    21602429.327
       233.000         189.000
  20810503.016    -5429191.22749  -4213168.14147  20810502.419    20810512.528
       241.000         205.000
  23635436.262    -6985382.07149  -5248430.45945  23635435.299    23635451.603
       213.000         153.000
  20844534.030   -21221085.19549 -16478585.38047  20844533.090    20844542.093
       243.000         210.000
  20970538.372   -14245892.62949 -11083994.46147  20970536.999    20970548.240
       241.000         207.000
 02  2 24  1 40  0.0000000  0  8G15G21G23G26G 6G22G18G17
  21239024.298   -19087128.77249 -14856326.15147  21239023.450    21239034.329
       240.000         201.000
  23402616.532    -8618851.57049  -6694604.28646  23402615.067    23402629.736
       222.000         164.000
  21199074.600    -6211693.86049  -4822698.20847  21199073.797    21199083.676
       241.000         204.000
  21602991.150   -17193124.33149 -13382934.19647  21602991.100    21603001.136
       234.000         190.000
  20820707.768    -5375564.78449  -4171381.29747  20820707.324    20820717.386
       241.000         205.000
  23636924.052    -6977562.89549  -5242337.52445  23636921.640    23636938.106
       212.000         151.000
  20836704.101   -21262231.57349 -16510647.40047  20836703.081    20836712.095
       243.000         210.000
  20966376.099   -14267764.78649 -11101037.62447  20966374.891    20966386.194
       241.000         207.000
 02  2 24  1 40 30.0000000  0  8G15G21G23G26G 6G22G18G17
  21231340.198   -19127508.61049 -14887790.86747  21231338.780    21231350.180
       240.000         201.000
  23388794.720    -8691484.78449  -6751201.35846  23388793.315    23388807.529
       222.000         163.000
  21208912.742    -6159994.26549  -4782412.80047  21208911.696    21208921.448
       241.000         204.000
  21603686.021   -17189473.05849 -13380088.96547  21603685.510    21603695.959
       234.000         190.000
  20831001.952    -5321468.49649  -4129228.33947  20831001.598    20831011.699
       242.000         205.000
  23638505.712    -6969250.90849  -5235860.54445  23638504.484    23638520.360
       211.000         150.000
  20828955.250   -21302951.58449 -16542377.18447  20828954.105    20828963.387
       243.000         210.000
  20962239.456   -14289502.59749 -11117976.10547  20962238.474    20962249.267
       241.000         207.000
 02  2 24  1 41  0.0000000  0  8G15G21G23G26G 6G22G18G17
  21223683.353   -19167744.97549 -14919143.78647  21223681.841    21223693.430
       239.000         201.000
  23375019.848    -8763871.05249  -6807605.99145  23375018.302    23375032.633
       221.000         162.000
  21218803.396    -6108018.36249  -4741912.08247  21218802.359    21218812.372
       241.000         204.000
  21604503.586   -17185176.30049 -13376740.76347  21604503.164    21604513.437
       233.000         190.000
  20841385.298    -5266903.73249  -4086710.33247  20841384.939    20841394.982
       241.000         205.000
  23640180.689    -6960447.91249  -5229000.99845  23640178.945    23640195.999
       211.000         149.000
  20821287.484   -21343245.69949 -16573775.10747  20821286.733    20821295.574
       244.000         211.000
  20958128.431   -14311106.27149 -11134810.07047  20958127.750    20958138.228
       242.000         207.000
 02  2 24  1 41 30.0000000  0  8G15G21G23G26G 6G22G18G17
  21216053.945   -19207837.30449 -14950384.46547  21216052.512    21216063.551
       240.000         200.000
  23361292.041    -8836009.95549  -6863817.88646  23361290.775    23361304.750
       221.000         163.000
  21228746.259    -6055767.96249  -4701197.46647  21228745.275    21228755.438
       241.000         204.000
  21605444.095   -17180233.52749 -13372889.17347  21605443.942    21605454.177
       235.000         191.000
  20851857.673    -5211871.11849  -4043827.77347  20851856.930    20851867.097
       240.000         204.000
  23641949.085    -6951154.74849  -5221759.45945  23641947.300    23641963.445
       208.000         149.000
  20813700.825   -21383113.63149 -16604840.93747  20813699.736    20813708.913
       243.000         211.000
  20954043.042   -14332575.16049 -11151539.00747  20954042.089    20954052.386
       241.000         207.000
 02  2 24  1 42  0.0000000  0  8G15G21G23G26G 6G22G18G17
  21208452.046   -19247785.24249 -14981512.62647  21208450.825    21208461.678
       239.000         200.000
  23347611.395    -8907901.32849  -6919836.88846  23347609.177    23347625.113
       223.000         164.000
  21238740.961    -6003245.31149  -4660270.70647  21238740.266    21238750.123
       241.000         204.000
  21606507.546   -17174644.88649 -13368534.31147  21606507.006    21606517.758
       234.000         190.000
  20862418.817    -5156371.76749  -4000581.51947  20862418.258    20862428.287
       240.000         204.000
  23643810.351    -6941372.60749  -5214136.93445  23643808.562    23643825.075
       210.000         149.000
  20806195.152   -21422555.64249 -16635574.87747  20806194.221    20806202.968
       244.000         211.000
  20949983.329   -14353908.98449 -11168162.70147  20949982.299    20949992.572
       241.000         207.000
 02  2 24  1 42 30.0000000  0  8G15G21G23G26G 6G22G18G17
  21200877.553   -19287588.76549 -15012528.25747  21200876.119    21200887.429
       240.000         200.000
  23333977.892    -8979544.38849  -6975662.41146  23333976.174    23333990.986
       223.000         165.000
  21248787.075    -5950452.80149  -4619133.66847  21248786.371    21248796.208
       241.000         204.000
  21607693.876   -17168410.09149 -13363675.95447  21607693.435    21607703.683
       234.000         190.000
  20873068.556    -5100406.89849  -3956972.52547  20873068.176    20873078.179
       240.000         204.000
  23645764.492    -6931102.95649  -5206134.52245  23645761.650    23645779.079
       209.000         149.000
  20798770.576   -21461571.76649 -16665976.96347  20798769.561    20798778.641
       243.000         211.000
  20945949.333   -14375107.39349 -11184680.87147  20945948.112    20945958.768
       241.000         206.000
 02  2 24  1 43  0.0000000  0  8G15G21G23G26G 6G22G18G17
  21193330.709   -19327247.08849 -15043430.75147  21193329.623    21193340.676
       241.000         201.000
  23320391.795    -9050938.61749  -7031294.04846  23320390.390    23320404.711
       222.000         166.000
  21258884.133    -5897392.29849  -4577787.80947  21258883.201    21258893.268
       240.000         204.000
  21609003.364   -17161528.68349 -13358313.74647  21609002.869    21609012.949
       234.000         190.000
  20883806.753    -5043977.28549  -3913001.39047  20883806.172    20883816.236
       240.000         204.000
  23647811.167    -6920346.72749  -5197752.95145  23647809.802    23647826.821
       211.000         151.000
  20791427.050   -21500161.63649 -16696046.90247  20791426.295    20791435.078
       244.000         211.000
  20941941.170   -14396169.84449 -11201093.09947  20941939.947    20941950.775
       241.000         207.000
 02  2 24  1 43 30.0000000  0  8G15G21G23G26G 6G22G18G17
  21185811.481   -19366760.79249 -15074220.56347  21185809.989    21185821.308
       240.000         200.000
  23306852.999    -9122084.00249  -7086731.77846  23306851.492    23306866.177
       223.000         167.000
  21269031.655    -5844066.41049  -4536235.15447  21269030.577    21269040.689
       240.000         203.000
  21610435.642   -17154001.35049 -13352448.21447  21610434.827    21610445.586
       233.000         190.000
  20894633.099    -4987084.46049  -3868669.31347  20894632.697    20894642.803
       241.000         204.000
  23649950.165    -6909105.77149  -5188993.67845  23649948.371    23649965.430
       210.000         152.000
  20784164.559   -21538325.97249 -16725785.25447  20784163.463    20784172.613
       243.000         211.000
  20937958.901   -14417096.42349 -11217399.45247  20937957.833    20937968.678
       242.000         208.000
 02  2 24  1 44  0.0000000  0  8G15G21G23G26G 6G22G18G17
  21178319.910   -19406128.84749 -15104896.87247  21178318.235    21178329.742
       239.000         199.000
  23293361.870    -9192978.97749  -7141974.37846  23293360.472    23293375.555
       223.000         167.000
  21279229.394    -5790476.64149  -4494476.86447  21279228.437    21279238.416
       240.000         203.000
  21611991.013   -17145827.26649 -13346078.72847  21611990.810    21612000.627
       234.000         190.000
  20905547.573    -4929728.67149  -3823976.48447  20905547.031    20905556.955
       241.000         204.000
  23652181.257    -6897380.65249  -5179857.12845  23652180.236    23652196.922
       213.000         153.000
  20776983.093   -21576064.20149 -16755191.57147  20776982.145    20776990.888
       243.000         210.000
  20934002.832   -14437886.10749 -11233599.13647  20934002.102    20934012.426
       242.000         208.000
 02  2 24  1 44 30.0000000  0  8G15G21G23G26G 6G22G18G17
  21170855.756   -19445351.91249 -15135460.20047  21170854.452    21170865.720
       238.000         199.000
  23279918.468    -9263623.78149  -7197022.05346  23279916.669    23279931.597
       224.000         168.000
  21289476.771    -5736626.11549  -4452515.39347  21289475.913    21289485.855
       240.000         203.000
  21613669.369   -17137007.33449 -13339205.98847  21613668.868    21613679.068
       233.000         190.000
  20916549.732    -4871911.96949  -3778924.50247  20916549.294    20916559.263
       241.000         204.000
  23654504.104    -6885173.61449  -5170345.08045  23654502.519    23654519.674
       212.000         153.000
  20769882.554   -21613377.44049 -16784266.73747  20769881.740    20769890.466
       243.000         211.000
  20930072.691   -14458539.44649 -11249692.58647  20930071.793    20930081.964
       242.000         208.000
 02  2 24  1 45  0.0000000  0  9G29G15G21G23G26G 6G22G18G17
                   -708067.96649   -264164.58243
       206.000          74.000
  21163419.519   -19484428.93449 -15165909.73447  21163418.220    21163429.400
       239.000         199.000
  23266522.670    -9334018.13149  -7251874.55946  23266520.893    23266536.079
       222.000         167.000
  21299773.461    -5682516.26749  -4410351.84847  21299772.614    21299782.482
       241.000         203.000
  21615470.627   -17127541.12849 -13331829.64647  21615470.261    21615480.772
       234.000         190.000
  20927639.470    -4813634.95449  -3733513.83147  20927638.947    20927649.054
       240.000         204.000
  23656918.509    -6872485.46549  -5160458.11945  23656917.317    23656934.376
       211.000         153.000
  20762862.965   -21650265.15049 -16813010.31047  20762861.740    20762870.941
       242.000         210.000
  20926168.632   -14479055.45149 -11265679.01647  20926167.446    20926177.774
       242.000         208.000
 02  2 24  1 45 30.0000000  0  8G15G21G23G26G 6G22G18G17
  21156010.788   -19523361.77749 -15196246.92447  21156009.389    21156020.644
       239.000         200.000
  23253174.302    -9404163.22549  -7306532.85546  23253173.083    23253187.342
       223.000         167.000
  21310118.827    -5628151.29149  -4367989.50647  21310117.792    21310127.878
       240.000         203.000
  21617394.497   -17117430.62849 -13323951.27147  21617394.449    21617404.027
       235.000         190.000
  20938816.195    -4754900.72849  -3687746.89247  20938815.630    20938825.664
       240.000         203.000
  23659423.654    -6859319.69049  -5150199.00245  23659422.293    23659439.328
       208.000         152.000
  20755923.932   -21686729.74449 -16841424.18547  20755923.043    20755931.718
       243.000         210.000
  20922290.210   -14499435.86149 -11281559.78347  20922288.761    20922299.144
       242.000         208.000
 02  2 24  1 46  0.0000000  0  8G15G21G23G26G 6G22G18G17
  21148629.952   -19562147.60949 -15226469.55947  21148628.679    21148639.832
       239.000         200.000
  23239873.923    -9474056.31349  -7360994.78046  23239872.971    23239887.209
       223.000         168.000
  21320512.632    -5573531.07249  -4325428.27447  21320511.627    21320521.831
       240.000         203.000
  21619441.456   -17106673.38349 -13315568.93247  21619440.922    21619451.351
       234.000         190.000
  20950080.209    -4695707.98449  -3641622.66947  20950079.881    20950089.721
       241.000         203.000
  23662019.975    -6845675.18049  -5139566.84145  23662018.825    23662035.239
       207.000         150.000
  20749065.813   -21722768.85249 -16869506.51947  20749064.781    20749073.765
       243.000         210.000
  20918438.202   -14519677.62749 -11297332.52347  20918436.997    20918447.305
       242.000         208.000
 02  2 24  1 46 30.0000000  0  9G29G15G21G23G26G 6G22G18G17
                  -1026539.88749   -512322.63144                  24369279.003
       202.000         122.000
  21141276.397   -19600790.40949 -15256580.72847  21141274.980    21141286.362
       238.000         200.000
  23226620.714    -9543700.98849  -7415263.12246  23226619.116    23226633.812
       223.000         167.000
  21330953.801    -5518661.96249  -4282673.09447  21330953.038    21330962.974
       238.000         202.000
  21621610.657   -17095273.74749 -13306686.02447  21621610.730    21621620.612
       233.000         190.000
  20961430.467    -4636062.10349  -3595145.34247  20961430.054    20961439.990
       240.000         203.000
  23664706.408    -6831557.50649  -5128565.96645  23664705.116    23664721.118
       207.000         148.000
  20742287.879   -21758386.74749 -16897260.62847  20742287.103    20742295.858
       241.000         210.000
  20914611.879   -14539784.63849 -11313000.25347  20914610.836    20914621.020
       241.000         208.000
 02  2 24  1 47  0.0000000  0  9G29G15G21G23G26G 6G22G18G17
  24349048.342    -1132760.82949   -595091.50745  24349046.036    24349066.640
       205.000         134.000
  21133951.320   -19639283.54049 -15286575.28047  21133950.241    21133961.182
       239.000         200.000
  23213416.174    -9613090.77349  -7469332.88446  23213415.777    23213429.428
       225.000         168.000
  21341443.220    -5463539.70649  -4239720.66447  21341442.537    21341452.318
       240.000         202.000
  21623903.347   -17083225.61749 -13297297.80447  21623902.914    21623912.964
       234.000         190.000
  20972867.874    -4575957.98549  -3548310.95747  20972867.286    20972876.956
       240.000         203.000
  23667483.844    -6816961.98549  -5117192.75745  23667483.112    23667500.143
       209.000         147.000
  20735591.252   -21793577.44349 -16924681.85947  20735590.220    20735599.022
       242.000         210.000
  20910812.520   -14559750.33749 -11328557.87647  20910811.686    20910821.689
       242.000         208.000
 02  2 24  1 47 30.0000000  0  9G29G15G21G23G26G 6G22G18G17
  24328829.093    -1239010.16949   -677882.57145  24328827.103    24328847.527
       207.000         139.000
  21126654.240   -19677629.78549 -15316455.37347  21126653.142    21126664.323
       239.000         200.000
  23200259.533    -9682228.85149  -7523206.50646  23200258.755    23200272.208
       225.000         168.000
  21351979.811    -5408169.74049  -4196575.20947  21351979.042    21351988.739
       239.000         202.000
  21626318.683   -17070532.45349 -13287406.95447  21626318.551    21626328.294
       234.000         190.000
  20984391.651    -4515400.10549  -3501122.98647  20984391.188    20984400.957
       240.000         202.000
  23670351.332    -6801893.22049  -5105450.79545  23670350.567    23670366.561
       210.000         147.000
  20728975.248   -21828344.29149 -16951772.82147  20728974.280    20728983.112
       242.000         210.000
  20907039.535   -14579577.44849 -11344007.50547  20907038.468    20907048.581
       242.000         208.000
 02  2 24  1 48  0.0000000  0  9G29G15G21G23G26G 6G22G18G17
  24308605.505    -1345283.56849   -760692.37345  24308603.014    24308621.989
       206.000         138.000
  21119385.531   -19715826.87649 -15346219.25147  21119384.314    21119395.554
       239.000         200.000
  23187151.387    -9751112.36449  -7576881.74846  23187149.940    23187164.028
       225.000         168.000
  21362563.397    -5352552.21549  -4153236.85547  21362562.406    21362572.449
       239.000         202.000
  21628857.189   -17057192.47649 -13277012.10047  21628857.074    21628867.335
       234.000         190.000
  20996001.934    -4454387.63949  -3453580.78747  20996001.341    20996011.374
       240.000         202.000
  23673309.027    -6786350.74349  -5093339.68345  23673308.560    23673324.214
       211.000         149.000
  20722440.220   -21862685.66049 -16978532.23947  20722439.044    20722448.166
       242.000         210.000
  20903293.291   -14599263.54449 -11359347.24947  20903292.052    20903302.207
       241.000         208.000
 02  2 24  1 48 30.0000000  0  9G29G15G21G23G26G 6G22G18G17
  24288377.978    -1451577.38249   -843518.08145  24288375.597    24288394.196
       204.000         138.000
  21112145.386   -19753873.43549 -15375865.82647  21112144.297    21112155.347
       239.000         201.000
  23174091.838    -9819740.30949  -7630357.87146  23174090.801    23174103.848
       224.000         168.000
  21373193.910    -5296688.56449  -4109706.71047  21373192.956    21373203.011
       240.000         202.000
  21631518.864   -17043205.01849 -13266112.71447  21631518.451    21631528.891
       233.000         190.000
  21007698.638    -4392921.06049  -3405684.73847  21007698.193    21007707.943
       240.000         202.000
  23676356.698    -6770335.13849  -5080859.91245  23676355.350    23676371.748
       211.000         150.000
  20715986.313   -21896600.70849 -17004959.46347  20715985.352    20715994.078
       242.000         210.000
  20899574.076   -14618807.35449 -11374576.12147  20899573.127    20899583.101
       241.000         207.000
 02  2 24  1 49  0.0000000  0  9G29G15G21G23G26G 6G22G18G17
  24268146.818    -1557889.85749   -926358.29445  24268144.613    24268164.152
       203.000         137.000
  21104933.727   -19791770.04149 -15405395.54447  21104932.369    21104943.798
       240.000         201.000
  23161080.913    -9888112.55449  -7683634.72946  23161079.298    23161093.987
       224.000         168.000
  21383870.723    -5240581.54649  -4065986.93147  21383869.885    21383880.083
       239.000         202.000
  21634303.577   -17028570.97749 -13254709.48847  21634303.074    21634313.495
       234.000         190.000
  21019481.403    -4331002.19249  -3357436.26147  21019480.876    21019490.681
       239.000         201.000
  23679494.009    -6753848.62249  -5068013.17545  23679493.548    23679509.025
       214.000         151.000
  20709613.339   -21930090.47949 -17031055.30847  20709612.424    20709621.074
       243.000         210.000
  20895881.959   -14638209.08149 -11389694.28247  20895881.003    20895891.026
       241.000         207.000
 02  2 24  1 49 30.0000000  0  9G29G15G21G23G26G 6G22G18G17
  24247912.493    -1664218.78049  -1009211.34845  24247910.751    24247929.336
       205.000         137.000
  21097750.756   -19829516.52549 -15434808.28647  21097749.402    21097761.258
       240.000         202.000
  23148118.554    -9956229.27949  -7736712.48446  23148116.962    23148130.773
       225.000         168.000
  21394593.301    -5184233.51249  -4022079.35147  21394592.322    21394602.567
       240.000         202.000
  21637211.262   -17013291.14749 -13242803.06347  21637210.911    21637221.113
       234.000         190.000
  21031349.948    -4268632.47749  -3308836.47847  21031349.630    21031359.585
       239.000         201.000
  23682720.542    -6736893.03949  -5054800.97545  23682719.075    23682734.690
       212.000         151.000
  20703321.164   -21963155.75249 -17056820.37747  20703320.290    20703329.129
       243.000         211.000
  20892216.960   -14657468.70349 -11404701.70947  20892216.250    20892226.317
       242.000         208.000
 02  2 24  1 50  0.0000000  0  9G29G15G21G23G26G 6G22G18G17
  24227675.517    -1770561.49049  -1092075.17045  24227674.040    24227692.499
       205.000         137.000
  21090596.455   -19867112.57749 -15464103.81947  21090595.335    21090606.189
       241.000         202.000
  23135204.856   -10024090.44649  -7789591.10546  23135203.402    23135217.621
       226.000         169.000
  21405361.444    -5127646.71249  -3977985.71847  21405360.627    21405370.746
       240.000         202.000
  21640241.624   -16997365.80449 -13230393.63747  21640241.363    21640250.914
       235.000         190.000
  21043303.997    -4205813.20549  -3259886.38447  21043303.434    21043313.504
       240.000         202.000
  23686036.005    -6719469.98849  -5041224.48545  23686034.689    23686050.591
       213.000         151.000
  20697109.779   -21995796.61449 -17082254.73647  20697108.740    20697117.513
       242.000         211.000
  20888579.106   -14676585.61049 -11419597.92947  20888578.268    20888588.477
       242.000         208.000
 02  2 24  1 50 30.0000000  0  9G29G15G21G23G26G 6G22G18G17
  24207436.445    -1876915.62749  -1174947.89545  24207434.872    24207452.223
       206.000         136.000
  21083470.913   -19904557.73649 -15493281.77247  21083469.927    21083480.454
       241.000         202.000
  23122339.941   -10091695.16949  -7842269.88846  23122338.678    23122351.689
       223.000         170.000
  21416174.582    -5070823.19349  -3933707.63347  21416173.811    21416183.992
       240.000         202.000
  21643394.918   -16980795.08049 -13217481.32647  21643394.280    21643403.843
       234.000         190.000
  21055343.366    -4142545.81849  -3210587.11547  21055342.799    21055352.792
       239.000         202.000
  23689440.095    -6701580.85249  -5027284.84345  23689438.533    23689455.463
       212.000         151.000
  20690979.075   -22028013.15549 -17107358.45947  20690978.194    20690986.856
       243.000         211.000
  20884968.518   -14695559.37949 -11434382.61447  20884967.508    20884978.135
       242.000         209.000
 02  2 24  1 51  0.0000000  0  9G29G15G21G23G26G 6G22G18G17
  24187195.756    -1983278.96249  -1257827.78445  24187194.024    24187212.481
       205.000         137.000
  21076374.071   -19941852.03849 -15522342.18147  21076373.360    21076383.437
       241.000         202.000
  23109523.703   -10159043.89849  -7894749.20246  23109522.341    23109535.958
       224.000         171.000
  21427032.320    -5013765.49549  -3889247.07447  21427031.755    21427041.327
       240.000         202.000
  21646670.812   -16963579.88249 -13204066.81547  21646670.232    21646680.317
       233.000         190.000
  21067467.638    -4078832.11649  -3160940.07247  21067467.036    21067477.234
       239.000         201.000
  23692932.524    -6683227.79049  -5012983.68545  23692930.815    23692947.200
       212.000         152.000
  20684929.047   -22059806.32149 -17132132.28647  20684928.052    20684936.509
       242.000         211.000
  20881385.194   -14714389.91449 -11449055.68547  20881384.358    20881394.506
       243.000         209.000
 02  2 24  1 51 30.0000000  0  9G29G15G21G23G26G 6G22G18G17
  24166953.947    -2089648.55049  -1340712.54645  24166952.607    24166970.128
       206.000         138.000
  21069305.968   -19978994.85149 -15551284.54447  21069304.764    21069315.367
       241.000         203.000
  23096756.384   -10226135.75549  -7947028.33846  23096754.749    23096769.011
       224.000         171.000
  21437934.251    -4956475.59149  -3844605.56947  21437933.438    21437942.994
       240.000         201.000
  21650069.313   -16945720.54549 -13190150.38047  21650068.889    21650078.884
       234.000         190.000
  21079676.675    -4014673.15749  -3110946.07247  21079676.024    21079686.214
       239.000         201.000
  23696512.943    -6664412.21549  -4998322.13445  23696511.566    23696528.032
       212.000         152.000
  20678959.464   -22091176.30449 -17156576.35047  20678958.435    20678967.041
       242.000         210.000
  20877829.264   -14733076.61149 -11463616.67847  20877828.400    20877838.358
       243.000         209.000
 02  2 24  1 52  0.0000000  0  9G29G15G21G23G26G 6G22G18G17
  24146711.362    -2196022.53149  -1423600.74845  24146709.931    24146728.183
       207.000         139.000
  21062266.629   -20015986.19549 -15580108.87147  21062265.247    21062276.252
       241.000         203.000
  23084037.926   -10292971.11649  -7999107.60946  23084036.654    23084050.132
       224.000         171.000
  21448879.831    -4898955.90449  -3799785.01647  21448878.740    21448888.952
       239.000         201.000
  21653590.189   -16927217.74449 -13175732.55847  21653589.502    21653599.794
       233.000         190.000
  21091970.129    -3950070.60049  -3060606.41247  21091969.853    21091979.688
       240.000         201.000
  23700181.086    -6645136.07449  -4983301.70845  23700180.097    23700196.232
       209.000         153.000
  20673070.342   -22122123.59249 -17180691.05147  20673069.612    20673077.889
       242.000         211.000
  20874300.746   -14751619.25849 -11478065.43147  20874299.843    20874309.711
       243.000         210.000
 02  2 24  1 52 30.0000000  0  9G29G15G21G23G26G 6G22G18G17
  24126468.632    -2302397.65549  -1506489.86145  24126466.835    24126484.640
       208.000         140.000
  21055256.232   -20052825.31549 -15608814.57947  21055255.020    21055266.313
       241.000         203.000
  23071368.345   -10359549.08649  -8050986.32646  23071366.945    23071380.316
       225.000         171.000
  21459868.824    -4841208.31949  -3754786.87847  21459868.172    21459878.211
       239.000         201.000
  21657233.539   -16908071.49449 -13160813.33947  21657233.359    21657243.208
       234.000         190.000
  21104347.893    -3885025.21049  -3009921.68447  21104347.444    21104357.371
       240.000         201.000
  23703936.470    -6625400.55649  -4967923.32245  23703935.207    23703950.866
       211.000         152.000
  20667261.653   -22152648.28349 -17204476.45947  20667260.773    20667269.220
       241.000         210.000
  20870799.815   -14770016.95049 -11492401.22747  20870798.777    20870808.842
       243.000         210.000
 02  2 24  1 53  0.0000000  0  9G29G15G21G23G26G 6G22G18G17
  24106226.178    -2408771.43649  -1589377.93945  24106224.458    24106241.595
       207.000         139.000
  21048274.957   -20089511.56949 -15637401.16547  21048273.813    21048284.853
       241.000         204.000
  23058747.813   -10425869.38449  -8102664.26046  23058746.582    23058759.700
       225.000         172.000
  21470900.795    -4783234.81849  -3709612.69947  21470900.145    21470909.996
       240.000         201.000
  21660999.221   -16888282.29949 -13145393.12747  21660998.543    21661008.903
       234.000         190.000
  21116809.610    -3819538.42249  -2958893.01047  21116809.097    21116819.002
       239.000         201.000
  23707778.995    -6605207.23149  -4952188.19745  23707778.037    23707794.456
       213.000         152.000
  20661533.267   -22182750.50249 -17227932.65547  20661532.159    20661541.016
       242.000         210.000
  20867326.492   -14788269.10349 -11506623.61147  20867325.201    20867335.340
       243.000         210.000
 02  2 24  1 53 30.0000000  0  9G29G15G21G23G26G 6G22G18G17
  24085984.266    -2515141.30949  -1672262.98945  24085982.861    24086000.436
       207.000         140.000
  21041322.904   -20126044.52949 -15665868.31647  21041321.776    21041333.018
       242.000         204.000
  23046176.329   -10491931.85949  -8154141.29146  23046175.175    23046188.738
       226.000         173.000
  21481975.366    -4725037.62749  -3664264.21647  21481974.688    21481984.765
       240.000         201.000
  21664887.138   -16867850.84849 -13129472.45747  21664886.641    21664896.829
       234.000         190.000
  21129355.061    -3753611.84049  -2907521.64647  21129354.572    21129364.602
       239.000         201.000
  23711708.302    -6584558.00849  -4936097.85445  23711706.907    23711723.361
       212.000         152.000
  20655885.171   -22212431.03349 -17251060.27147  20655884.159    20655893.075
       242.000         211.000
  20863880.907   -14806375.47149 -11520732.39547  20863879.747    20863890.078
       243.000         210.000
 02  2 24  1 54  0.0000000  0  9G29G15G21G23G26G 6G22G18G17
  24065743.554    -2621504.47449  -1755142.80745  24065741.924    24065758.619
       207.000         142.000
  21034400.134   -20162423.72949 -15694215.65547  21034398.999    21034409.748
       241.000         204.000
  23033654.007   -10557736.21449  -8205417.19046  23033652.454    23033665.216
       226.000         173.000
  21493092.189    -4666618.63949  -3618742.90947  21493091.382    21493100.888
       240.000         201.000
  21668897.211   -16846777.61149 -13113051.69247  21668896.935    21668906.477
       234.000         190.000
  21141983.957    -3687246.57649  -2855808.45247  21141983.539    21141993.165
       239.000         200.000
  23715724.192    -6563454.32049  -4919653.36045  23715723.376    23715739.505
       212.000         153.000
  20650317.369   -22241689.91649 -17273859.33047  20650316.383    20650325.177
       241.000         211.000
  20860463.219   -14824335.10749 -11534726.84647  20860461.873    20860472.189
       242.000         210.000
 02  2 24  1 54 30.0000000  0  9G29G15G21G23G26G 6G22G18G17
  24045504.734    -2727858.34249  -1838015.40845  24045502.995    24045520.101
       209.000         144.000
  21027506.743   -20198648.64649 -15722442.77647  21027505.301    21027516.051
       241.000         203.000
  23021180.960   -10623281.67149  -8256491.35546  23021179.709    23021192.946
       227.000         174.000
  21504250.764    -4607979.76949  -3573050.26047  21504249.868    21504259.494
       240.000         201.000
  21673029.274   -16825062.97349 -13096131.12947  21673028.914    21673039.309
       233.000         189.000
  21154696.126    -3620443.85749  -2803754.38047  21154695.549    21154705.450
       239.000         200.000
  23719826.269    -6541897.69949  -4902855.97345  23719825.407    23719840.219
       214.000         153.000
  20644829.747   -22270527.25749 -17296329.91147  20644828.683    20644837.434
       242.000         211.000
  20857073.587   -14842147.44949 -11548606.52547  20857072.599    20857082.368
       243.000         209.000
 02  2 24  1 55  0.0000000  0  9G29G15G21G23G26G 6G22G18G17
  24025268.225    -2834200.40249  -1920878.82945  24025266.224    24025282.626
       212.000         144.000
  21020642.618   -20234719.05749 -15750549.49947  21020641.283    21020651.764
       241.000         202.000
  23008757.200   -10688568.27149  -8307363.80946  23008756.100    23008768.551
       228.000         174.000
  21515450.785    -4549123.24949  -3527188.02147  21515449.844    21515459.296
       239.000         200.000
  21677283.311   -16802707.54349 -13078711.25347  21677283.149    21677293.278
       233.000         189.000
  21167491.168    -3553205.28349  -2751360.68647  21167490.361    21167500.502
       238.000         199.000
  23724014.241    -6519890.13349  -4885707.16745  23724012.548    23724028.448
       214.000         153.000
  20639422.183   -22298943.82349 -17318472.62447  20639421.356    20639429.942
       244.000         211.000
  20853712.100   -14859812.17549 -11562371.18147  20853710.936    20853720.859
       243.000         209.000
 02  2 24  1 55 30.0000000  0  9G29G15G21G23G26G 6G22G18G17
  24005034.444    -2940527.93549  -2003730.92045  24005032.602    24005049.393
       208.000         145.000
  21013808.060   -20270634.49449 -15778535.46647  21013807.124    21013817.373
       241.000         203.000
  22996382.675   -10753595.97949  -8358034.54046  22996381.566    22996394.681
       228.000         174.000
  21526691.707    -4490051.27949  -3481157.89347  21526690.622    21526700.198
       239.000         200.000
  21681659.123   -16779712.24449 -13060792.77747  21681658.620    21681668.741
       233.000         189.000
  21180368.812    -3485532.39449  -2698628.56647  21180367.946    21180378.108
       238.000         198.000
  23728287.684    -6497433.36449  -4868208.34845  23728286.689    23728302.287
       216.000         155.000
  20634094.668   -22326940.03149 -17340287.78147  20634093.564    20634102.389
       243.000         211.000
  20850378.678   -14877328.80149 -11576020.43747  20850377.244    20850387.529
       241.000         209.000
 02  2 24  1 56  0.0000000  0  9G29G15G21G23G26G 6G22G18G17
  23984803.915    -3046838.38249  -2086569.74545  23984801.318    23984819.113
       210.000         146.000
  21007003.252   -20306394.33349 -15806400.18347  21007002.405    21007012.627
       242.000         204.000
  22984057.558   -10818364.13049  -8408503.02146  22984056.559    22984069.563
       227.000         175.000
  21537973.356    -4430765.86749  -3434961.44547  21537972.262    21537982.344
       240.000         200.000
  21686156.571   -16756077.62349 -13042376.13047  21686156.107    21686166.251
       233.000         189.000
  21193328.880    -3417426.42849  -2645558.97747  21193328.304    21193338.142
       237.000         198.000
  23732646.318    -6474529.04849  -4850360.78145  23732645.192    23732660.276
       216.000         154.000
  20628846.938   -22354516.33849 -17361775.73447  20628845.967    20628854.680
       243.000         211.000
  20847073.494   -14894696.54149 -11589553.66647  20847071.912    20847082.221
       241.000         208.000
 02  2 24  1 56 30.0000000  0  9G29G15G21G23G26G 6G22G18G17
  23964576.925    -3153129.07349  -2169393.17545  23964573.721    23964592.372
       209.000         146.000
  21000228.116   -20341998.16949 -15834143.34247  21000227.065    21000237.054
       242.000         204.000
  22971781.848   -10882872.44049  -8458769.02046  22971780.837    22971793.808
       228.000         175.000
  21549295.206    -4371269.13649  -3388600.33247  21549294.344    21549304.098
       239.000         200.000
  21690775.607   -16731804.19549 -13023461.70847  21690775.249    21690785.677
       233.000         189.000
  21206371.122    -3348888.96949  -2592153.16847  21206370.595    21206380.471
       238.000         198.000
  23737089.713    -6451179.03149  -4832165.91145  23737088.625    23737104.586
       220.000         156.000
  20623679.160   -22381672.99049 -17382936.69547  20623678.325    20623686.722
       244.000         211.000
  20843796.815   -14911914.66049 -11602970.31047  20843795.451    20843805.885
       241.000         208.000
 02  2 24  1 57  0.0000000  0  9G29G15G21G23G26G 6G22G18G17
  23944354.321    -3259397.09749  -2252198.93545  23944352.300    23944369.220
       211.000         147.000
  20993482.736   -20377445.07149 -15861764.21247  20993481.285    20993491.534
       241.000         203.000
  22959555.609   -10947120.69049  -8508832.38546  22959554.491    22959568.351
       228.000         175.000
  21560656.898    -4311562.82649  -3342075.91447  21560656.448    21560666.012
       240.000         200.000
  21695516.081   -16706892.58349 -13004050.00647  21695515.597    21695525.474
       233.000         189.000
  21219495.274    -3279921.20249  -2538412.05147  21219494.999    21219504.648
       238.000         198.000
  23741617.729    -6427384.63849  -4813624.79345  23741617.081    23741632.693
       217.000         156.000
  20618591.177   -22408410.18449 -17403770.80147  20618590.097    20618598.791
       243.000         211.000
  20840548.787   -14928982.52949 -11616269.88047  20840548.009    20840557.868
       242.000         208.000
 02  2 24  1 57 30.0000000  0  9G29G15G21G23G26G 6G22G18G17
  23924136.549    -3365639.75749  -2334984.94345  23924134.117    23924151.899
       211.000         148.000
  20986767.223   -20412734.54249 -15889262.41247  20986765.425    20986776.019
       241.000         203.000
  22947378.972   -11011108.32949  -8558692.67646  22947377.191    22947390.654
       226.000         174.000
  21572058.200    -4251648.99849  -3295389.79647  21572057.555    21572067.292
       240.000         200.000
  21700377.879   -16681343.20349 -12984141.33947  21700377.451    21700387.185
       233.000         189.000
  21232701.011    -3210524.55149  -2484336.74247  21232700.647    21232710.546
       238.000         198.000
  23746229.859    -6403147.70949  -4794738.81645  23746228.878    23746244.610
       217.000         157.000
  20613582.963   -22434728.20749 -17424278.28247  20613582.154    20613590.574
       244.000         211.000
  20837329.555   -14945899.46649 -11629451.84247  20837328.598    20837338.559
       242.000         209.000
 02  2 24  1 58  0.0000000  0  9G29G15G21G23G26G 6G22G18G17
  23903924.124    -3471854.23249  -2417749.00345  23903922.319    23903938.751
       212.000         148.000
  20980081.823   -20447865.71649 -15916637.26247  20980080.532    20980090.890
       241.000         203.000
  22935251.860   -11074835.45449  -8608349.97246  22935250.586    22935263.296
       228.000         175.000
  21583498.535    -4191529.44049  -3248543.36547  21583497.426    21583507.419
       238.000         200.000
  21705360.911   -16655156.94549 -12963736.40347  21705360.452    21705370.654
       234.000         189.000
  21245988.140    -3140700.39249  -2429928.29947  21245987.479    21245997.779
       238.000         197.000
  23750925.847    -6378469.81249  -4775509.26345  23750924.887    23750941.112
       216.000         157.000
  20608654.410   -22460627.69349 -17444459.63047  20608653.596    20608661.831
       244.000         212.000
  20834139.170   -14962664.73349 -11642515.61847  20834137.936    20834148.316
       241.000         209.000
 02  2 24  1 58 30.0000000  0  9G29G15G21G23G26G 6G22G18G17
  23883717.583    -3578038.06349  -2500489.19645  23883715.408    23883731.844
       210.000         148.000
  20973426.613   -20482838.57349 -15943888.74847  20973425.560    20973435.869
       242.000         204.000
  22923174.537   -11138301.52449  -8657803.84446  22923173.837    22923186.191
       227.000         175.000
  21594977.534    -4131206.44649  -3201538.41647  21594976.419    21594986.678
       238.000         199.000
  21710465.026   -16628334.80049 -12942835.97347  21710464.718    21710474.800
       233.000         189.000
  21259356.179    -3070450.63249  -2375188.22747  21259355.764    21259365.783
       237.000         197.000
  23755705.491    -6353353.11549  -4755937.77445  23755703.908    23755719.488
       216.000         157.000
  20603805.387   -22486109.20449 -17464315.28447  20603804.453    20603812.846
       244.000         211.000
  20830977.594   -14979277.82149 -11655460.80647  20830976.115    20830986.377
       241.000         208.000
 02  2 24  1 59  0.0000000  0  9G29G15G21G23G26G 6G22G18G17
  23863517.296    -3684188.80149  -2583203.58845  23863515.272    23863532.295
       211.000         148.000
  20966801.666   -20517652.71749 -15971016.55847  20966800.596    20966811.078
       242.000         204.000
  22911146.814   -11201506.88649  -8707054.57946  22911145.354    22911158.845
       226.000         175.000
  21606494.837    -4070682.27049  -3154376.69947  21606493.636    21606503.701
       237.000         199.000
  21715689.821   -16600877.81049 -12921440.85647  21715689.651    21715699.240
       233.000         189.000
  21272804.931    -2999776.83349  -2320117.73147  21272804.664    21272814.647
       238.000         197.000
  23760568.108    -6327799.52349  -4736025.87845  23760567.411    23760582.799
       215.000         157.000
  20599035.782   -22511173.22449 -17483845.61747  20599034.965    20599043.388
       244.000         211.000
  20827845.172   -14995738.40149 -11668287.16147  20827844.303    20827854.045
       242.000         208.000
 02  2 24  1 59 30.0000000  0  9G29G15G21G23G26G 6G22G18G17
  23843324.018    -3790303.25249  -2665889.71245  23843322.451    23843338.860
       213.000         149.000
  20960207.060   -20552307.19749 -15998019.95447  20960205.971    20960216.467
       241.000         204.000
  22899168.795   -11264450.82449  -8756101.62046  22899166.847    22899180.473
       226.000         174.000
  21618050.045    -4009958.65549  -3107059.57647  21618049.016    21618059.002
       237.000         198.000
  21721035.424   -16572786.35949 -12899551.36147  21721035.640    21721045.048
       233.000         189.000
  21286334.227    -2928680.07649  -2264717.66147  21286333.698    21286344.056
       237.000         198.000
  23765513.621    -6301810.62049  -4715774.75545  23765513.297    23765528.281
       214.000         156.000
  20594345.609   -22535819.94949 -17503050.79147  20594344.772    20594353.064
       244.000         211.000
  20824742.111   -15012045.34349 -11680993.80047  20824741.302    20824751.119
       242.000         209.000
 02  2 24  2  0  0.0000000  0  9G29G15G21G23G26G 6G22G18G17
  23823138.053    -3896379.12449  -2748545.77045  23823136.406    23823152.709
       211.000         149.000
  20953642.904   -20586801.68149 -16024898.67347  20953641.776    20953652.315
       242.000         205.000
  22887240.539   -11327133.19149  -8804944.82346  22887238.944    22887251.985
       226.000         173.000
  21629642.915    -3949037.53649  -3059588.56147  21629642.260    21629652.225
       238.000         198.000
  21726501.619   -16544061.35349 -12877168.19247  21726501.336    21726510.724
       233.000         189.000
  21299943.647    -2857162.02049  -2208989.31347  21299943.046    21299952.958
       238.000         198.000
  23770541.551    -6275388.32449  -4695185.94445  23770540.157    23770556.332
       214.000         156.000
  20589734.709   -22560050.13949 -17521931.38847  20589733.754    20589742.211
       243.000         211.000
  20821668.386   -15028198.01749 -11693580.22647  20821667.530    20821677.493
       242.000         209.000
 02  2 24  2  0 30.0000000  0  9G29G15G21G23G26G 6G22G18G17
  23802959.970    -4002413.87849  -2831169.79245  23802958.395    23802974.921
       211.000         148.000
  20947109.369   -20621135.57449 -16051652.26547  20947108.429    20947118.670
       243.000         205.000
  22875362.138   -11389553.75249  -8853584.01746  22875360.268    22875372.747
       226.000         173.000
  21641273.036    -3887921.21149  -3011965.43447  21641272.229    21641282.009
       237.000         198.000
  21732088.095   -16514704.05649 -12854292.32847  21732087.339    21732097.580
       233.000         189.000
  21313632.955    -2785224.56449  -2152934.15147  21313632.799    21313642.363
       238.000         198.000
  23775651.595    -6248534.79349  -4674261.09945  23775650.090    23775666.804
       215.000         156.000
  20585202.936   -22583864.56049 -17540488.01047  20585202.031    20585210.269
       244.000         211.000
  20818623.947   -15044196.38349 -11706046.40847  20818622.867    20818632.800
       242.000         209.000
 02  2 24  2  1  0.0000000  0  9G29G15G21G23G26G 6G22G18G17
  23782790.000    -4108405.52049  -2913760.22945  23782788.178    23782803.554
       208.000         146.000
  20940606.375   -20655309.07749 -16078280.88047  20940605.181    20940615.312
       243.000         205.000
  22863533.319   -11451713.37749  -8902019.90246  22863532.076    22863544.420
       228.000         173.000
  21652939.665    -3826612.69649  -2964192.54947  21652939.012    21652949.054
       238.000         198.000
  21737794.574   -16484716.23349 -12830925.14047  21737794.038    21737803.767
       234.000         188.000
  21327401.649    -2712869.93149  -2096553.91747  21327401.008    21327410.962
       238.000         197.000
  23780843.200    -6221252.71749  -4653002.32245  23780842.076    23780856.995
       215.000         155.000
  20580750.042   -22607264.55549 -17558721.70947  20580749.004    20580757.418
       243.000         211.000
  20815608.908   -15060040.25549 -11718392.20747  20815608.064    20815617.678
       242.000         209.000
 02  2 24  2  1 30.0000000  0  9G29G15G21G23G26G 6G22G18G17
  23762628.964    -4214349.92449  -2996313.84345  23762627.225    23762643.182
       207.000         145.000
  20934134.227   -20689320.28149 -16104783.02147  20934132.991    20934143.462
       242.000         205.000
  22851754.602   -11513610.17249  -8950250.99646  22851753.081    22851766.368
       227.000         174.000
  21664642.794    -3765112.40949  -2916270.23547  21664641.831    21664651.921
       236.000         198.000
  21743621.129   -16454097.30149 -12807066.18647  21743621.014    21743630.391
       234.000         188.000
  21341249.583    -2640098.41949  -2039848.84447  21341248.961    21341259.155
       237.000         196.000
  23786116.245    -6193542.57349  -4631409.97145  23786115.755    23786130.728
       216.000         155.000
  20576376.137   -22630249.04049 -17576631.62747  20576375.422    20576383.771
       243.000         211.000
  20812623.691   -15075727.66249 -11730616.09147  20812622.761    20812632.300
       243.000         209.000
 02  2 24  2  2  0.0000000  0  9G29G15G21G23G26G 6G22G18G17
  23742477.310    -4320244.70949  -3078828.78745  23742474.847    23742491.260
       209.000         144.000
  20927692.969   -20723168.86549 -16131158.44447  20927691.800    20927702.281
       242.000         206.000
  22840025.784   -11575244.95449  -8998277.91046  22840023.880    22840037.876
       227.000         174.000
  21676381.883    -3703422.47649  -2868200.13647  21676380.504    21676391.444
       236.000         197.000
  21749567.552   -16422848.41349 -12782716.36547  21749566.978    21749576.861
       233.000         188.000
  21355176.536    -2566911.69049  -1982820.22547  21355175.849    21355185.784
       237.000         196.000
  23791470.350    -6165406.33149  -4609485.59845  23791469.928    23791484.613
       218.000         156.000
  20572081.212   -22652818.82849 -17594218.40947  20572080.325    20572088.688
       243.000         212.000
  20809668.364   -15091258.06149 -11742717.62847  20809667.407    20809676.772
       243.000         209.000
 02  2 24  2  2 30.0000000  0  9G29G15G21G23G26G 6G22G18G17
  23722335.737    -4426087.02349  -3161302.85645  23722334.310    23722350.054
       207.000         144.000
  20921282.830   -20756854.08049 -16157406.56147  20921281.608    20921292.003
       243.000         206.000
  22828346.874   -11636617.07149  -9046100.15646  22828344.566    22828358.732
       227.000         174.000
  21688156.672    -3641544.92949  -2819983.85447  21688155.722    21688165.957
       236.000         197.000
  21755633.654   -16390970.67849 -12757876.52247  21755633.249    21755643.301
       233.000         188.000
  21369182.213    -2493311.34549  -1925469.30447  21369181.853    21369192.006
       237.000         196.000
  23796905.174    -6136846.04449  -4587230.78445  23796903.666    23796919.805
       215.000         156.000
  20567865.037   -22674974.48349 -17611482.48747  20567864.074    20567872.645
       243.000         211.000
  20806743.043   -15106630.64149 -11754696.18747  20806741.942    20806751.859
       243.000         209.000
 02  2 24  2  3  0.0000000  0  9G29G15G21G23G26G 6G22G18G17
  23702204.669    -4531874.35949  -3243734.08345  23702202.856    23702219.168
       210.000         146.000
  20914903.831   -20790375.65249 -16183527.16947  20914902.594    20914912.976
       242.000         206.000
  22816718.101   -11697726.34449  -9093717.58846  22816716.876    22816731.035
       227.000         175.000
  21699966.797    -3579481.95149  -2771623.07347  21699965.986    21699976.234
       236.000         197.000
  21761819.224   -16358465.17749 -12732547.52047  21761818.836    21761828.416
       232.000         188.000
  21383266.223    -2419299.21749  -1867797.51847  21383265.683    21383275.649
       237.000         196.000
  23802420.296    -6107863.70649  -4564647.12145  23802419.308    23802434.763
       216.000         156.000
  20563727.571   -22696716.86449 -17628424.53947  20563727.058    20563735.165
       243.000         212.000
  20803847.779   -15121844.86149 -11766551.34947  20803846.697    20803856.469
       242.000         209.000
 02  2 24  2  3 30.0000000  0  9G29G15G21G23G26G 6G22G18G17
  23682084.748    -4637604.25249  -3326120.55645  23682082.915    23682099.182
       210.000         147.000
  20908556.081   -20823733.14449 -16209519.92847  20908554.909    20908564.864
       242.000         205.000
  22805139.293   -11758572.89749  -9141130.30746  22805137.902    22805150.507
       228.000         176.000
  21711811.850    -3517235.80549  -2723119.57047  21711810.996    21711821.044
       236.000         197.000
  21768123.960   -16325333.22649 -12706730.37146  21768123.262    21768133.228
       232.000         187.000
  21397428.220    -2344877.30249  -1809806.41847  21397427.909    21397437.661
       237.000         196.000
  23808015.266    -6078461.62349  -4541736.37545  23808014.874    23808029.443
       217.000         155.000
  20559668.643   -22718046.73349 -17645045.15147  20559667.568    20559676.109
       243.000         212.000
  20800982.727   -15136900.35649 -11778282.83547  20800981.610    20800991.425
       242.000         209.000
 02  2 24  2  4  0.0000000  0  9G29G15G21G23G26G 6G22G18G17
  23661976.186    -4743274.11049  -3408460.22745  23661975.145    23661990.235
       211.000         148.000
  20902239.540   -20856926.15049 -16235384.51647  20902238.012    20902248.037
       241.000         205.000
  22793610.401   -11819156.93849  -9188338.46846  22793609.263    22793622.077
       227.000         177.000
  21723691.382    -3454808.58649  -2674474.96947  21723690.902    21723700.446
       236.000         196.000
  21774547.680   -16291576.19549 -12680426.15046  21774547.484    21774557.350
       233.000         187.000
  21411667.919    -2270047.41549  -1751497.42447  21411667.601    21411677.602
       236.000         195.000
  23813689.782    -6048641.87549  -4518500.17845  23813688.806    23813703.696
       215.000         155.000
  20555687.997   -22738964.79049 -17661344.86947  20555687.104    20555695.526
       243.000         212.000
  20798147.963   -15151796.64449 -11789890.26747  20798146.863    20798156.521
       242.000         209.000
 02  2 24  2  4 30.0000000  0  9G29G15G21G23G26G 6G22G18G17
  23641879.654    -4848881.48149  -3490751.23645  23641878.678    23641892.713
       215.000         149.000
  20895954.301   -20889954.07449 -16261120.45947  20895952.833    20895963.355
       241.000         204.000
  22782131.401   -11879478.30049  -9235341.94146  22782129.670    22782142.534
       227.000         177.000
  21735605.026    -3392202.36349  -2625690.87947  21735604.204    21735613.736
       236.000         196.000
  21781090.106   -16257195.11249 -12653635.65046  21781089.016    21781099.219
       232.000         187.000
  21425984.927    -2194811.16849  -1692871.78447  21425984.520    21425994.428
       237.000         195.000
  23819443.387    -6018406.52049  -4494940.11445  23819442.273    23819456.537
       216.000         154.000
  20551785.684   -22759471.63749 -17677324.16547  20551784.795    20551792.990
       243.000         212.000
  20795343.614   -15166532.88349 -11801372.98447  20795342.544    20795352.596
       242.000         209.000
 02  2 24  2  5  0.0000000  0  9G29G15G21G23G26G 6G22G18G17
  23621795.658    -4954422.56549  -3572990.58745  23621794.022    23621807.847
       215.000         150.000
  20889700.822   -20922815.37449 -16286726.57347  20889699.522    20889709.799
       241.000         204.000
  22770702.671   -11939535.80649  -9282139.82846  22770701.431    22770714.191
       228.000         178.000
  21747552.439    -3329418.22049  -2576768.15547  21747551.713    21747561.736
       236.000         196.000
  21787751.201   -16222190.47549 -12626359.26846  21787751.064    21787760.636
       232.000         187.000
  21440379.110    -2119169.53149  -1633930.25347  21440378.485    21440388.764
       237.000         195.000
  23825275.798    -5987756.83249  -4471057.21345  23825273.746    23825289.928
       212.000         153.000
  20547961.519   -22779567.31649 -17692983.07747  20547960.493    20547968.960
       243.000         212.000
  20792570.052   -15181107.64149 -11812729.87047  20792568.924    20792579.216
       242.000         209.000
 02  2 24  2  5 30.0000000  0  9G29G15G21G23G26G 6G22G18G17
  23601724.535    -5059895.68449  -3655176.97245  23601723.517    23601737.145
       214.000         152.000
  20883479.017   -20955510.53349 -16312203.22847  20883477.989    20883487.880
       241.000         204.000
  22759323.843   -11999330.99949  -9328733.30546  22759322.659    22759335.912
       228.000         178.000
  21759533.145    -3266458.95149  -2527708.95747  21759532.109    21759542.368
       236.000         196.000
  21794530.629   -16186564.22649 -12598598.51746  21794530.660    21794540.095
       231.000         187.000
  21454849.836    -2043125.13149  -1574674.87947  21454849.317    21454859.428
       237.000         195.000
  23831186.529    -5956695.59049  -4446853.62645  23831185.953    23831200.512
       214.000         153.000
  20544215.363   -22799253.06849 -17708322.55747  20544214.406    20544222.780
       243.000         212.000
  20789827.222   -15195520.98449 -11823960.97747  20789826.483    20789836.255
       242.000         209.000
 02  2 24  2  6  0.0000000  0  9G29G15G21G23G26G 6G22G18G17
  23581666.968    -5165297.64349  -3737307.90945  23581665.063    23581680.568
       216.000         153.000
  20877289.079   -20988038.20849 -16337549.38047  20877287.664    20877298.194
       241.000         204.000
  22747995.151   -12058862.97249  -9375121.67846  22747993.951    22748006.694
       228.000         178.000
  21771546.918    -3203325.87649  -2478514.33347  21771546.052    21771555.840
       236.000         195.000
  21801428.181   -16150317.09749 -12570353.95546  21801427.626    21801437.552
       232.000         187.000
  21469397.001    -1966679.15649  -1515106.58747  21469396.596    21469406.209
       236.000         195.000
  23837175.225    -5925224.40749  -4422330.60845  23837173.588    23837188.153
       211.000         151.000
  20540547.191   -22818529.23449 -17723342.88147  20540546.416    20540554.713
       244.000         212.000
  20787115.489   -15209771.64249 -11835065.32147  20787114.680    20787124.219
       242.000         209.000
 02  2 24  2  6 30.0000000  0  9G29G15G21G23G26G 6G22G18G17
  23561623.474    -5270625.35249  -3819381.00545  23561621.809    23561636.501
       218.000         156.000
  20871131.190   -21020397.32549 -16362764.18747  20871129.718    20871140.065
       240.000         204.000
  22736716.659   -12118131.17849  -9421304.52346  22736715.399    22736728.616
       229.000         179.000
  21783593.466    -3140020.78349  -2429185.66347  21783592.822    21783602.456
       237.000         195.000
  21808443.709   -16113450.05249 -12541626.34446  21808443.609    21808452.956
       232.000         187.000
  21484020.341    -1889832.89749  -1455226.39747  21484019.633    21484030.127
       236.000         194.000
  23843241.576    -5893345.12349  -4397489.58845  23843239.469    23843256.967
       207.000         151.000
  20536956.897   -22837396.16049 -17738044.32147  20536955.861    20536964.293
       244.000         212.000
  20784434.823   -15223858.66849 -11846042.15147  20784433.606    20784443.384
       242.000         209.000
 02  2 24  2  7  0.0000000  0  9G29G15G21G23G26G 6G22G18G17
  23541594.461    -5375876.77249  -3901394.66845  23541593.364    23541607.114
       215.000         157.000
  20865005.438   -21052587.96349 -16387847.71547  20865004.358    20865014.566
       240.000         204.000
  22725488.256   -12177136.11949  -9467282.22246  22725487.332    22725499.217
       230.000         179.000
  21795672.268    -3076546.52549  -2379725.18347  21795671.191    21795681.461
       237.000         196.000
  21815576.905   -16075964.86749 -12512417.07046  21815576.870    21815586.062
       232.000         187.000
  21498719.335    -1812588.97149  -1395036.33247  21498719.027    21498728.654
       236.000         194.000
  23849385.069    -5861060.43349  -4372332.67345  23849383.355    23849400.014
       207.000         150.000
  20533444.166   -22855855.31749 -17752428.01847  20533443.313    20533451.523
       244.000         212.000
  20781785.193   -15237782.08149 -11856891.49747  20781783.800    20781793.652
       242.000         208.000
 02  2 24  2  7 30.0000000  0  9G29G15G21G23G26G 6G22G18G17
  23521580.531    -5481048.66749  -3983346.35445  23521578.500    23521593.040
       215.000         157.000
  20858911.928   -21084609.26049 -16412799.29247  20858910.627    20858920.996
       241.000         204.000
  22714310.060   -12235877.49849  -9513054.55146  22714308.671    22714321.091
       229.000         179.000
  21807782.968    -3012904.35749  -2330133.86347  21807781.727    21807792.043
       237.000         196.000
  21822827.470   -16037862.56649 -12482726.92846  21822827.201    21822837.340
       232.000         187.000
  21513493.878    -1734948.54749  -1334537.31147  21513493.698    21513503.337
       235.000         193.000
  23855605.329    -5828371.94449  -4346861.12245  23855605.188    23855619.604
       210.000         150.000
  20530009.065   -22873906.89949 -17766494.12848  20530008.381    20530016.248
       244.000         213.000
  20779166.930   -15251540.55349 -11867612.32247  20779165.743    20779175.392
       242.000         208.000
 02  2 24  2  8  0.0000000  0 10G29G15G21G23G26G 6G22G18G17G 3
  23501581.999    -5586139.12549  -4065234.60345  23501580.245    23501594.743
       215.000         157.000
  20852850.660   -21116461.12349 -16437618.84247  20852849.513    20852859.805
       241.000         205.000
  22703181.783   -12294356.09849  -9558622.13246  22703180.915    22703192.404
       229.000         179.000
  21819925.121    -2949096.99949  -2280413.82647  21819924.011    21819934.123
       236.000         195.000
  21830195.187   -15999145.13449 -12452557.46146  21830194.451    21830204.237
       232.000         187.000
  21528343.335    -1656914.11549  -1273731.27747  21528342.718    21528352.859
       236.000         193.000
  23861902.041    -5795282.57949  -4321077.18945  23861900.440    23861916.515
       207.000         148.000
  20526651.200   -22891552.26949 -17780243.70648  20526650.286    20526658.275
       243.000         213.000
  20776580.102   -15265134.04949 -11878204.59747  20776579.014    20776588.867
       242.000         208.000
  24643927.726    -3253342.51449  -2493880.30045  24643926.755    24643945.578
       209.000         134.000
 02  2 24  2  8 30.0000000  0 10G29G15G21G23G26G 6G22G18G17G 3
  23481597.800    -5691154.75949  -4147064.54245  23481596.079    23481609.950
       216.000         157.000
  20846819.983   -21148151.99949 -16462312.94847  20846819.097    20846829.288
       242.000         205.000
  22692101.935   -12352580.68849  -9603991.78346  22692100.346    22692113.397
       230.000         180.000
  21832096.510    -2885135.55249  -2230573.71547  21832095.345    21832105.320
       236.000         195.000
  21837677.907   -15959823.06749 -12421916.84546  21837677.780    21837687.527
       232.000         187.000
  21543265.702    -1578496.61249  -1212626.73247  21543265.128    21543275.132
       234.000         193.000
  23868272.846    -5761803.59049  -4294989.67045  23868271.899    23868287.195
       207.000         148.000
  20523368.745   -22908801.35149 -17793684.48348  20523368.068    20523376.070
       244.000         213.000
  20774023.039   -15278570.98549 -11888674.87147  20774021.994    20774032.082
       241.000         209.000
  24624853.172    -3353579.78149  -2571986.90945  24624853.059    24624870.632
       209.000         135.000
 02  2 24  2  9  0.0000000  0 10G29G15G21G23G26G 6G22G18G17G 3
  23461631.091    -5796078.42649  -4228822.82145  23461629.452    23461643.768
       215.000         158.000
  20840822.825   -21179667.24149 -16486870.19747  20840821.659    20840832.097
       241.000         205.000
  22681073.068   -12410537.23349  -9649152.56646  22681071.911    22681084.351
       231.000         180.000
  21844299.550    -2821007.86149  -2180604.05547  21844298.457    21844308.302
       235.000         195.000
  21845278.062   -15919883.77449 -12390795.28346  21845277.909    21845287.439
       233.000         187.000
  21558263.255    -1499683.65849  -1151214.04847  21558262.665    21558272.766
       234.000         192.000
  23874720.094    -5727922.98149  -4268589.16845  23874717.467    23874734.476
       208.000         147.000
  20520164.281   -22925640.85549 -17806806.11448  20520163.287    20520171.620
       243.000         213.000
  20771498.601   -15291836.42449 -11899011.51047  20771497.472    20771507.589
       241.000         209.000
  24605805.961    -3453673.27149  -2649981.46045  24605805.026    24605822.792
       207.000         136.000
 02  2 24  2  9 30.0000000  0 10G29G15G21G23G26G 6G22G18G17G 3
  23441681.960    -5900909.57349  -4310509.02245  23441680.123    23441694.424
       215.000         157.000
  20834858.755   -21211008.12149 -16511291.58347  20834857.408    20834867.975
       242.000         206.000
  22670094.863   -12468227.97949  -9694106.23246  22670093.661    22670105.455
       230.000         180.000
  21856533.431    -2756717.84649  -2130507.91947  21856532.627    21856542.364
       236.000         194.000
  21852995.122   -15879330.45149 -12359195.25846  21852994.806    21853004.300
       232.000         187.000
  21573335.342    -1420479.04749  -1089496.18447  21573335.451    21573344.892
       235.000         192.000
  23881243.027    -5693644.95749  -4241879.02545  23881242.000    23881257.331
       210.000         148.000
  20517037.204   -22942073.27849 -17819610.53448  20517036.241    20517044.576
       243.000         213.000
  20769006.582   -15304931.65949 -11909215.52247  20769005.627    20769015.112
       242.000         208.000
  24586786.147    -3553622.53249  -2727863.59945  24586783.134    24586802.951
       205.000         137.000
 02  2 24  2 10  0.0000000  0 10G29G15G21G23G26G 6G22G18G17G 3
  23421750.711    -6005646.49349  -4392121.79445  23421748.571    23421762.859
       213.000         155.000
  20828927.822   -21242174.94249 -16535577.33147  20828926.674    20828936.810
       242.000         206.000
  22659166.981   -12525653.40849  -9738853.15946  22659165.176    22659178.312
       230.000         180.000
  21868797.760    -2692268.49549  -2080287.62347  21868796.927    21868806.851
       237.000         195.000
  21860828.511   -15838165.64949 -12327118.76146  21860828.264    21860837.567
       231.000         186.000
  21588481.460    -1340885.87849  -1027475.53947  21588481.235    21588491.288
       234.000         191.000
  23887841.028    -5658972.62649  -4214861.60245  23887839.293    23887856.127
       208.000         147.000
  20513987.219   -22958100.52249 -17832099.23348  20513986.393    20513994.608
       243.000         213.000
  20766547.004   -15317856.90949 -11919287.08147  20766546.399    20766555.344
       243.000         208.000
  24567794.017    -3653426.18049  -2805632.26945  24567792.751    24567810.967
       205.000         138.000
 02  2 24  2 10 30.0000000  0 10G29G15G21G23G26G 6G22G18G17G 3
  23401837.965    -6110286.72549  -4473659.23045  23401835.546    23401851.406
       212.000         155.000
  20823030.179   -21273167.29249 -16559727.13447  20823029.337    20823039.224
       243.000         206.000
  22648289.544   -12582814.32749  -9783393.97346  22648288.316    22648300.435
       232.000         181.000
  21881091.993    -2627662.06249  -2029944.92547  21881091.086    21881101.273
       237.000         195.000
  21868777.931   -15796391.09549 -12294567.11946  21868777.830    21868787.868
       232.000         186.000
  21603701.102    -1260906.23949   -965153.74947  21603700.439    21603710.627
       234.000         191.000
  23894513.321    -5623908.52049  -4187538.91345  23894512.193    23894528.807
       211.000         147.000
  20511014.201   -22973723.68849 -17844273.06848  20511013.351    20511021.417
       243.000         213.000
  20764119.973   -15330611.73149 -11929225.83747  20764119.129    20764128.267
       243.000         209.000
  24548830.045    -3753081.98749  -2883285.72445  24548827.101    24548844.799
       206.000         139.000
 02  2 24  2 11  0.0000000  0 10G29G15G21G23G26G 6G22G18G17G 3
  23381944.073    -6214827.93849  -4555119.50245  23381942.548    23381957.400
       213.000         155.000
  20817165.836   -21303984.92649 -16583740.79847  20817164.677    20817174.346
       243.000         206.000
  22637462.385   -12639711.08049  -9827728.95646  22637461.042    22637473.133
       231.000         182.000
  21893415.718    -2562900.79949  -1979481.58847  21893415.074    21893424.748
       237.000         195.000
  21876842.887   -15754008.82749 -12261541.94146  21876842.427    21876852.148
       232.000         185.000
  21618993.812    -1180542.38049   -902532.57647  21618993.512    21619003.505
       234.000         191.000
  23901259.707    -5588455.26449  -4159913.00345  23901258.333    23901275.633
       208.000         146.000
  20508117.785   -22988944.18249 -17856133.12848  20508116.786    20508125.030
       243.000         213.000
  20761725.310   -15343195.62349 -11939031.40047  20761724.237    20761733.934
       242.000         209.000
  24529894.263    -3852588.36249  -2960822.72745  24529892.629    24529909.357
       202.000         141.000
 02  2 24  2 11 30.0000000  0 10G29G15G21G23G26G 6G22G18G17G 3
  23362069.527    -6319267.66049  -4636500.70445  23362067.957    23362082.014
       210.000         155.000
  20811334.781   -21334627.24049 -16607617.84847  20811333.833    20811343.203
       243.000         206.000
  22626685.407   -12696343.80449  -9871858.19246  22626684.492    22626696.130
       232.000         182.000
  21905768.539    -2497986.67249  -1928899.13047  21905767.543    21905777.656
       237.000         195.000
  21885023.389   -15711020.23349 -12228044.31146  21885023.374    21885032.242
       232.000         185.000
  21634359.350    -1099796.29849   -839613.56047  21634359.165    21634368.711
       233.000         191.000
  23908079.691    -5552615.33549  -4131985.77245  23908078.851    23908093.540
       207.000         144.000
  20505297.855   -23003762.77249 -17867680.01748  20505297.088    20505305.273
       244.000         213.000
  20759363.174   -15355608.13249 -11948703.41647  20759361.873    20759371.778
       242.000         209.000
  24510987.165    -3951942.87649  -3038241.40145  24510985.798    24511002.469
       204.000         144.000
 02  2 24  2 12  0.0000000  0 10G29G15G21G23G26G 6G22G18G17G 3
  23342214.766    -6423603.53449  -4717800.99145  23342213.662    23342227.118
       213.000         154.000
  20805537.150   -21365093.87949 -16631358.00047  20805536.237    20805545.642
       243.000         207.000
  22615958.660   -12752712.90049  -9915782.01146  22615957.618    22615969.500
       231.000         182.000
  21918149.853    -2432922.09449  -1878199.43847  21918148.941    21918158.824
       236.000         194.000
  21893318.730   -15667427.43949 -12194075.85746  21893318.241    21893328.131
       230.000         185.000
  21649797.027    -1018670.53749   -776398.69947  21649796.678    21649806.130
       233.000         190.000
  23914972.964    -5516391.30349  -4103759.25345  23914971.919    23914987.619
       208.000         143.000
  20502554.218   -23018180.49249 -17878914.53548  20502553.358    20502561.355
       243.000         213.000
  20757033.674   -15367848.78749 -11958241.52347  20757032.366    20757042.257
       242.000         209.000
  24492109.614    -4051143.56249  -3115540.20645  24492107.507    24492125.282
       207.000         147.000
 02  2 24  2 12 30.0000000  0 10G29G15G21G23G26G 6G22G18G17G 3
  23322380.285    -6527832.77649  -4799018.19345  23322379.453    23322391.476
       211.000         154.000
  20799773.091   -21395383.89849 -16654960.53047  20799771.918    20799781.778
       243.000         207.000
  22605281.989   -12808818.35449  -9959500.39646  22605281.080    22605292.631
       232.000         183.000
  21930559.361    -2367708.96049  -1827383.99247  21930558.041    21930568.265
       236.000         194.000
  21901728.725   -15623231.96249 -12159637.79046  21901728.529    21901737.847
       232.000         185.000
  21665306.685     -937166.77749   -712889.29147  21665306.351    21665316.149
       234.000         190.000
  23921938.943    -5479785.26149  -4075235.07045  23921938.287    23921953.389
       209.000         144.000
  20499886.664   -23032198.40149 -17889837.51748  20499885.804    20499893.860
       243.000         213.000
  20754737.101   -15379916.61949 -11967644.96747  20754735.955    20754745.689
       242.000         209.000
  24473261.789    -4150187.79449  -3192717.10545  24473260.604    24473277.236
       209.000         150.000
 02  2 24  2 13  0.0000000  0 10G29G15G21G23G26G 6G22G18G17G 3
  23302566.681    -6631952.66649  -4880150.18645  23302565.989    23302578.569
       211.000         153.000
  20794042.772   -21425497.00049 -16678425.19647  20794041.864    20794051.329
       244.000         207.000
  22594655.534   -12864660.19749 -10003013.37146  22594654.276    22594666.361
       232.000         183.000
  21942996.848    -2302349.14449  -1776454.24947  21942995.890    21943005.777
       236.000         193.000
  21910253.242   -15578435.32949 -12124731.29146  21910252.858    21910262.238
       231.000         184.000
  21680887.876     -855287.12049   -649086.96447  21680887.254    21680897.231
       234.000         190.000
  23928977.175    -5442799.58149  -4046415.03745  23928975.825    23928991.541
       209.000         143.000
  20497295.012   -23045817.41349 -17900449.66548  20497294.129    20497302.244
       243.000         213.000
  20752473.616   -15391810.96349 -11976913.21647  20752472.792    20752482.202
       242.000         209.000
  24454444.219    -4249073.42449  -3269770.40045  24454442.482    24454459.958
       211.000         152.000
 02  2 24  2 13 30.0000000  0 10G29G15G21G23G26G 6G22G18G17G 3
  23282774.351    -6735960.38049  -4961194.78245  23282773.391    23282786.266
       212.000         153.000
  20788346.294   -21455432.43849 -16701751.43647  20788345.328    20788354.626
       244.000         207.000
  22584079.181   -12920238.89949 -10046321.31046  22584078.138    22584089.790
       231.000         183.000
  21955461.920    -2236844.50649  -1725411.66147  21955461.171    21955470.521
       236.000         193.000
  21918891.793   -15533039.28349 -12089357.71546  21918892.007    21918901.297
       231.000         184.000
  21696540.204     -773033.25549   -584993.05647  21696539.598    21696550.098
       233.000         189.000
  23936087.214    -5405436.46049  -4017300.90945  23936086.542    23936101.824
       212.000         145.000
  20494779.177   -23059037.98549 -17910751.34448  20494778.240    20494786.517
       243.000         213.000
  20750243.369   -15403530.99249 -11986045.64647  20750242.696    20750251.874
       242.000         209.000
  24435657.404    -4347797.92249  -3346698.14845  24435656.467    24435673.394
       211.000         153.000
 02  2 24  2 14  0.0000000  0 10G29G15G21G23G26G 6G22G18G17G 3
  23263003.956    -6839853.53649  -5042150.10245  23263002.558    23263015.908
       214.000         155.000
  20782683.702   -21485189.48949 -16724938.66347  20782682.368    20782692.162
       243.000         207.000
  22573552.785   -12975554.81749 -10089424.47446  22573551.466    22573563.504
       231.000         182.000
  21967954.185    -2171197.10349  -1674257.82247  21967953.312    21967963.052
       236.000         192.000
  21927644.136   -15487045.47249 -12053518.35446  21927643.578    21927653.354
       232.000         184.000
  21712263.379     -690407.47249   -520609.34247  21712263.173    21712272.970
       233.000         189.000
  23943268.586    -5367698.55249  -3987894.75245  23943267.171    23943282.528
       210.000         146.000
  20492338.871   -23071861.68949 -17920743.77348  20492338.080    20492345.932
       244.000         213.000
  20748046.418   -15415075.96149 -11995041.65447  20748045.307    20748055.049
       242.000         209.000
  24416901.636    -4446358.95849  -3423498.51945  24416900.432    24416915.892
       212.000         153.000
 02  2 24  2 14 30.0000000  0 10G29G15G21G23G26G 6G22G18G17G 3
  23243255.997    -6943629.12249  -5123013.82345  23243255.559    23243267.191
       216.000         156.000
  20777055.053   -21514767.34149 -16747986.25447  20777053.645    20777063.652
       243.000         207.000
  22563076.553   -13030607.14549 -10132322.25246  22563075.638    22563087.080
       232.000         182.000
  21980473.392    -2105408.53149  -1622993.98447  21980472.795    21980482.530
       236.000         192.000
  21936509.880   -15440455.49249 -12017214.44846  21936509.341    21936519.318
       231.000         184.000
  21728057.079     -607411.34749   -455937.04747  21728056.869    21728066.798
       233.000         189.000
  23950520.818    -5329587.67749  -3958197.96145  23950520.080    23950534.303
       215.000         146.000
  20489974.081   -23084288.60649 -17930427.02048  20489973.377    20489981.245
       244.000         214.000
  20745882.934   -15426444.94449 -12003900.53447  20745881.795    20745891.798
       242.000         209.000
  24398177.450    -4544753.92249  -3500169.49145  24398176.054    24398191.580
       213.000         152.000
 02  2 24  2 15  0.0000000  0 10G29G15G21G23G26G 6G22G18G17G 3
  23223530.879    -7047284.49749  -5203783.88545  23223529.725    23223542.484
       217.000         156.000
  20771460.719   -21544165.38749 -16770893.73347  20771459.638    20771469.483
       244.000         207.000
  22552650.448   -13085396.17249 -10175014.85546  22552649.486    22552661.184
       232.000         183.000
  21993019.042    -2039480.94349  -1571621.82547  21993018.030    21993027.861
       236.000         192.000
  21945488.753   -15393271.11449 -11980447.37646  21945488.574    21945497.883
       232.000         184.000
  21743920.755     -524047.25449   -390978.02747  21743920.447    21743930.520
       233.000         189.000
  23957843.678    -5291106.43949  -3928212.56145  23957842.451    23957858.495
       214.000         149.000
  20487684.499   -23096320.12449 -17939802.15948  20487683.712    20487691.579
       244.000         214.000
  20743753.015   -15437637.20149 -12012621.70847  20743751.769    20743761.578
       241.000         209.000
  24379484.983    -4642980.79749  -3576709.48845  24379482.256    24379499.662
       211.000         149.000
 02  2 24  2 15 30.0000000  0 10G29G15G21G23G26G 6G22G18G17G 3
  23203829.118    -7150816.63149  -5284457.93445  23203827.514    23203839.253
       216.000         156.000
  20765900.895   -21573382.32249 -16793660.09747  20765899.807    20765909.545
       243.000         208.000
  22542274.413   -13139921.96149 -10217502.35346  22542273.459    22542285.199
       232.000         183.000
  22005590.880    -1973415.71949  -1520142.42447  22005590.277    22005599.881
       236.000         193.000
  21954580.548   -15345493.44349 -11943217.99246  21954580.650    21954589.752
       231.000         184.000
  21759854.213     -440316.49249   -325733.29147  21759853.547    21759864.127
       233.000         189.000
  23965236.549    -5252256.67849  -3897940.03745  23965235.633    23965251.070
       216.000         151.000
  20485470.106   -23107956.70049 -17948869.55848  20485469.055    20485477.116
       243.000         214.000
  20741656.932   -15448651.41849 -12021204.16047  20741655.771    20741665.677
       241.000         208.000
  24360825.081    -4741036.43049  -3653116.05845  24360823.233    24360840.084
       210.000         147.000
 02  2 24  2 16  0.0000000  0 10G29G15G21G23G26G 6G22G18G17G 3
  23184151.239    -7254222.96049  -5365033.94545  23184149.377    23184163.235
       215.000         155.000
  20760375.552   -21602417.68449 -16816284.96347  20760374.002    20760383.821
       242.000         207.000
  22531948.509   -13194184.35149 -10259784.59346  22531947.707    22531959.075
       232.000         183.000
  22018188.528    -1907214.88149  -1468557.34447  22018187.406    22018197.730
       236.000         193.000
  21963784.828   -15297124.69149 -11905528.03346  21963784.938    21963794.111
       232.000         183.000
  21775856.938     -356221.51349   -260204.74647  21775856.378    21775866.759
       234.000         189.000
  23972699.093    -5213040.95149  -3867382.30545  23972698.156    23972713.705
       215.000         151.000
  20483330.655   -23119199.20649 -17957629.88648  20483329.736    20483337.552
       244.000         213.000
  20739594.946   -15459486.98349 -12029647.39947  20739593.948    20739603.334
       241.000         208.000
  24342198.333    -4838918.68749  -3729387.54145  24342197.427    24342213.446
       211.000         146.000
 02  2 24  2 16 30.0000000  0 10G29G15G21G23G26G 6G22G18G17G 3
  23164497.812    -7357500.44349  -5445509.57545  23164496.093    23164509.009
       216.000         156.000
  20754884.862   -21631270.35249 -16838767.48147  20754883.603    20754893.035
       242.000         206.000
  22521672.644   -13248183.81849 -10301861.96846  22521671.481    22521682.978
       234.000         183.000
  22030811.594    -1840879.86949  -1416867.71647  22030810.797    22030820.530
       236.000         193.000
  21973101.331   -15248166.35149 -11867378.65946  21973100.689    21973110.759
       229.000         183.000
  21791928.744     -271763.85849   -194393.59547  21791928.462    21791938.414
       234.000         189.000
  23980230.802    -5173461.43649  -3836541.13945  23980230.082    23980244.931
       216.000         152.000
  20481266.056   -23130048.53349 -17966083.84148  20481264.945    20481273.126
       243.000         213.000
  20737567.132   -15470142.96449 -12037950.69847  20737566.242    20737575.470
       241.000         208.000
  24323605.177    -4936625.00649  -3805521.93245  24323604.569    24323620.531
       212.000         146.000
 02  2 24  2 17  0.0000000  0 10G29G15G21G23G26G 6G22G18G17G 3
  23144869.321    -7460646.63249  -5525882.90245  23144867.572    23144881.200
       215.000         156.000
  20749429.140   -21659939.95449 -16861107.35147  20749428.040    20749437.528
       243.000         206.000
  22511446.757   -13301920.68649 -10343734.72146  22511445.591    22511456.996
       232.000         184.000
  22043459.779    -1774412.86549  -1365075.23647  22043458.861    22043468.932
       235.000         192.000
  21982529.608   -15198620.33449 -11828771.34946  21982529.372    21982538.647
       231.000         183.000
  21808069.082     -186945.68349   -128301.52947  21808068.388    21808078.473
       233.000         188.000
  23987831.311    -5133520.56149  -3805418.37845  23987830.001    23987846.080
       216.000         153.000
  20479275.987   -23140505.93949 -17974232.40048  20479275.103    20479282.992
       242.000         213.000
  20735573.688   -15480618.54949 -12046113.43047  20735572.832    20735582.549
       241.000         208.000
  24305046.021    -5034153.04949  -3881517.41045  24305045.317    24305060.499
       216.000         148.000
 02  2 24  2 17 30.0000000  0 10G29G15G21G23G26G 6G22G18G17G 3
  23125266.306    -7563658.97449  -5606151.95145  23125264.802    23125278.327
       216.000         156.000
  20744008.384   -21688425.95049 -16883304.14447  20744007.283    20744017.162
       243.000         207.000
  22501270.779   -13355395.19949 -10385403.04246  22501270.005    22501281.002
       233.000         185.000
  22056132.686    -1707815.96549  -1313181.54047  22056131.388    22056141.585
       235.000         192.000
  21992069.344   -15148488.72249 -11789707.73846  21992069.007    21992078.244
       231.000         182.000
  21824277.612     -101769.32549    -61930.35347  21824276.907    21824287.676
       233.000         188.000
  23995500.128    -5093220.98049  -3774016.09545  23995499.142    23995514.822
       215.000         151.000
  20477360.369   -23150572.14649 -17982076.13548  20477359.279    20477367.070
       242.000         213.000
  20733614.670   -15490913.28449 -12054135.23547  20733613.838    20733623.456
       241.000         208.000
  24286521.181    -5131500.79049  -3957372.39745  24286519.912    24286535.832
       217.000         151.000
 02  2 24  2 18  0.0000000  0 10G29G15G21G23G26G 6G22G18G17G 3
  23105689.516    -7666534.34649  -5686314.27545  23105688.834    23105700.710
       216.000         158.000
  20738622.804   -21716726.75849 -16905356.63347  20738621.541    20738631.362
       242.000         207.000
  22491144.783   -13408607.43049 -10426866.97546  22491143.465    22491154.977
       233.000         185.000
  22068830.124    -1641090.36949  -1261187.56747  22068829.307    22068839.583
       236.000         192.000
  22001720.235   -15097772.77849 -11750188.79846  22001719.806    22001729.729
       231.000         182.000
  21840554.035      -16236.31649      4718.73446  21840553.659    21840563.653
       233.000         187.000
  24003236.731    -5052564.64549  -3742335.84545  24003235.586    24003251.120
       215.000         152.000
  20475519.075   -23160247.88049 -17989615.60747  20475518.074    20475526.123
       242.000         212.000
  20731690.323   -15501025.47949 -12062014.80947  20731688.781    20731698.848
       240.000         208.000
  24268031.262    -5228664.91949  -4033084.32145  24268030.092    24268046.927
       219.000         155.000
